<?xml version="1.0" encoding="UTF-8" standalone="no" ?>
<gpx xmlns="http://www.topografix.com/GPX/1/1" xmlns:xsi="http://www.w3.org/2001/XMLSchema-instance" xsi:schemaLocation="http://www.topografix.com/GPX/1/1 http://www.topografix.com/GPX/1/1/gpx.xsd" version="1.1" creator="VisuGPX - https://www.visugpx.com">
  <metadata>
    <name>Aveyron</name>
    <desc><![CDATA[9 jours de vélo dans l'Aveyron (et un peu du Lot)]]></desc>
  </metadata>
  <trk>
    <name><![CDATA[j2]]></name>
    <desc><![CDATA[comment ...]]></desc>
    <extensions>
      <line xmlns="http://www.topografix.com/GPX/gpx_style/0/2">
        <color>FF0000</color>
        <width>4</width>
      </line>
    </extensions>
    <trkseg>
      <trkpt lat="44.59076" lon="2.9259">
        <ele>773</ele>
        <time>2021-08-28T07:03:55Z</time>
      </trkpt>
      <trkpt lat="44.59098" lon="2.92618">
        <ele>767</ele>
        <time>2021-08-28T07:03:58Z</time>
      </trkpt>
      <trkpt lat="44.59084" lon="2.9259">
        <ele>768</ele>
        <time>2021-08-28T07:03:58Z</time>
      </trkpt>
      <trkpt lat="44.59079" lon="2.92588">
        <ele>789</ele>
        <time>2021-08-28T07:04:01Z</time>
      </trkpt>
      <trkpt lat="44.59072" lon="2.92577">
        <ele>796</ele>
        <time>2021-08-28T07:04:03Z</time>
      </trkpt>
      <trkpt lat="44.59069" lon="2.92572">
        <ele>804</ele>
        <time>2021-08-28T07:04:17Z</time>
      </trkpt>
      <trkpt lat="44.59064" lon="2.9257">
        <ele>803</ele>
        <time>2021-08-28T07:04:19Z</time>
      </trkpt>
      <trkpt lat="44.59061" lon="2.92587">
        <ele>802</ele>
        <time>2021-08-28T07:04:23Z</time>
      </trkpt>
      <trkpt lat="44.59058" lon="2.92596">
        <ele>803</ele>
        <time>2021-08-28T07:04:26Z</time>
      </trkpt>
      <trkpt lat="44.59059" lon="2.92604">
        <ele>805</ele>
        <time>2021-08-28T07:04:29Z</time>
      </trkpt>
      <trkpt lat="44.59073" lon="2.92654">
        <ele>806</ele>
        <time>2021-08-28T07:04:44Z</time>
      </trkpt>
      <trkpt lat="44.59074" lon="2.92669">
        <ele>806</ele>
        <time>2021-08-28T07:04:49Z</time>
      </trkpt>
      <trkpt lat="44.59073" lon="2.92676">
        <ele>807</ele>
        <time>2021-08-28T07:04:51Z</time>
      </trkpt>
      <trkpt lat="44.59072" lon="2.92684">
        <ele>808</ele>
        <time>2021-08-28T07:04:53Z</time>
      </trkpt>
      <trkpt lat="44.5907" lon="2.9269">
        <ele>809</ele>
        <time>2021-08-28T07:04:55Z</time>
      </trkpt>
      <trkpt lat="44.59068" lon="2.92699">
        <ele>810</ele>
        <time>2021-08-28T07:04:58Z</time>
      </trkpt>
      <trkpt lat="44.59067" lon="2.92707">
        <ele>811</ele>
        <time>2021-08-28T07:05:01Z</time>
      </trkpt>
      <trkpt lat="44.59071" lon="2.9272">
        <ele>814</ele>
        <time>2021-08-28T07:05:10Z</time>
      </trkpt>
      <trkpt lat="44.59076" lon="2.92722">
        <ele>811</ele>
        <time>2021-08-28T07:05:12Z</time>
      </trkpt>
      <trkpt lat="44.59129" lon="2.92713">
        <ele>801</ele>
        <time>2021-08-28T07:05:26Z</time>
      </trkpt>
      <trkpt lat="44.5916" lon="2.92692">
        <ele>801</ele>
        <time>2021-08-28T07:05:34Z</time>
      </trkpt>
      <trkpt lat="44.59164" lon="2.92687">
        <ele>801</ele>
        <time>2021-08-28T07:05:36Z</time>
      </trkpt>
      <trkpt lat="44.59167" lon="2.9268">
        <ele>801</ele>
        <time>2021-08-28T07:05:38Z</time>
      </trkpt>
      <trkpt lat="44.59167" lon="2.92668">
        <ele>801</ele>
        <time>2021-08-28T07:05:40Z</time>
      </trkpt>
      <trkpt lat="44.59167" lon="2.92662">
        <ele>801</ele>
        <time>2021-08-28T07:05:41Z</time>
      </trkpt>
      <trkpt lat="44.59166" lon="2.92652">
        <ele>806</ele>
        <time>2021-08-28T07:05:43Z</time>
      </trkpt>
      <trkpt lat="44.59165" lon="2.92645">
        <ele>806</ele>
        <time>2021-08-28T07:05:45Z</time>
      </trkpt>
      <trkpt lat="44.59165" lon="2.92605">
        <ele>808</ele>
        <time>2021-08-28T07:05:55Z</time>
      </trkpt>
      <trkpt lat="44.59157" lon="2.92589">
        <ele>810</ele>
        <time>2021-08-28T07:05:59Z</time>
      </trkpt>
      <trkpt lat="44.59151" lon="2.92549">
        <ele>811</ele>
        <time>2021-08-28T07:06:09Z</time>
      </trkpt>
      <trkpt lat="44.59153" lon="2.92514">
        <ele>811</ele>
        <time>2021-08-28T07:06:19Z</time>
      </trkpt>
      <trkpt lat="44.59156" lon="2.92492">
        <ele>811</ele>
        <time>2021-08-28T07:06:25Z</time>
      </trkpt>
      <trkpt lat="44.5916" lon="2.92479">
        <ele>811</ele>
        <time>2021-08-28T07:06:29Z</time>
      </trkpt>
      <trkpt lat="44.59161" lon="2.92459">
        <ele>812</ele>
        <time>2021-08-28T07:06:35Z</time>
      </trkpt>
      <trkpt lat="44.59157" lon="2.92441">
        <ele>813</ele>
        <time>2021-08-28T07:06:41Z</time>
      </trkpt>
      <trkpt lat="44.59153" lon="2.92434">
        <ele>813</ele>
        <time>2021-08-28T07:06:44Z</time>
      </trkpt>
      <trkpt lat="44.59152" lon="2.92427">
        <ele>813</ele>
        <time>2021-08-28T07:06:46Z</time>
      </trkpt>
      <trkpt lat="44.59138" lon="2.92408">
        <ele>813</ele>
        <time>2021-08-28T07:06:54Z</time>
      </trkpt>
      <trkpt lat="44.59134" lon="2.92404">
        <ele>814</ele>
        <time>2021-08-28T07:06:56Z</time>
      </trkpt>
      <trkpt lat="44.59114" lon="2.92358">
        <ele>814</ele>
        <time>2021-08-28T07:07:13Z</time>
      </trkpt>
      <trkpt lat="44.59112" lon="2.92316">
        <ele>816</ele>
        <time>2021-08-28T07:07:25Z</time>
      </trkpt>
      <trkpt lat="44.59112" lon="2.92309">
        <ele>816</ele>
        <time>2021-08-28T07:07:27Z</time>
      </trkpt>
      <trkpt lat="44.59111" lon="2.92295">
        <ele>813</ele>
        <time>2021-08-28T07:07:31Z</time>
      </trkpt>
      <trkpt lat="44.59109" lon="2.92288">
        <ele>813</ele>
        <time>2021-08-28T07:07:33Z</time>
      </trkpt>
      <trkpt lat="44.59107" lon="2.92281">
        <ele>812</ele>
        <time>2021-08-28T07:07:35Z</time>
      </trkpt>
      <trkpt lat="44.59105" lon="2.92258">
        <ele>812</ele>
        <time>2021-08-28T07:07:41Z</time>
      </trkpt>
      <trkpt lat="44.59102" lon="2.92243">
        <ele>811</ele>
        <time>2021-08-28T07:07:45Z</time>
      </trkpt>
      <trkpt lat="44.591" lon="2.92236">
        <ele>810</ele>
        <time>2021-08-28T07:07:48Z</time>
      </trkpt>
      <trkpt lat="44.59101" lon="2.92229">
        <ele>811</ele>
        <time>2021-08-28T07:07:52Z</time>
      </trkpt>
      <trkpt lat="44.59102" lon="2.92223">
        <ele>812</ele>
        <time>2021-08-28T07:09:57Z</time>
      </trkpt>
      <trkpt lat="44.59102" lon="2.92215">
        <ele>811</ele>
        <time>2021-08-28T07:13:21Z</time>
      </trkpt>
      <trkpt lat="44.591" lon="2.92207">
        <ele>812</ele>
        <time>2021-08-28T07:13:24Z</time>
      </trkpt>
      <trkpt lat="44.59098" lon="2.922">
        <ele>812</ele>
        <time>2021-08-28T07:13:26Z</time>
      </trkpt>
      <trkpt lat="44.59096" lon="2.92191">
        <ele>812</ele>
        <time>2021-08-28T07:13:28Z</time>
      </trkpt>
      <trkpt lat="44.59092" lon="2.92175">
        <ele>813</ele>
        <time>2021-08-28T07:13:32Z</time>
      </trkpt>
      <trkpt lat="44.59093" lon="2.92168">
        <ele>814</ele>
        <time>2021-08-28T07:13:34Z</time>
      </trkpt>
      <trkpt lat="44.59093" lon="2.92161">
        <ele>814</ele>
        <time>2021-08-28T07:13:36Z</time>
      </trkpt>
      <trkpt lat="44.59082" lon="2.92098">
        <ele>812</ele>
        <time>2021-08-28T07:13:55Z</time>
      </trkpt>
      <trkpt lat="44.59079" lon="2.92091">
        <ele>812</ele>
        <time>2021-08-28T07:13:57Z</time>
      </trkpt>
      <trkpt lat="44.59077" lon="2.92084">
        <ele>811</ele>
        <time>2021-08-28T07:13:59Z</time>
      </trkpt>
      <trkpt lat="44.59078" lon="2.92074">
        <ele>812</ele>
        <time>2021-08-28T07:14:02Z</time>
      </trkpt>
      <trkpt lat="44.59075" lon="2.92057">
        <ele>810</ele>
        <time>2021-08-28T07:14:08Z</time>
      </trkpt>
      <trkpt lat="44.59074" lon="2.9205">
        <ele>810</ele>
        <time>2021-08-28T07:14:10Z</time>
      </trkpt>
      <trkpt lat="44.59073" lon="2.92043">
        <ele>809</ele>
        <time>2021-08-28T07:14:12Z</time>
      </trkpt>
      <trkpt lat="44.59077" lon="2.92027">
        <ele>810</ele>
        <time>2021-08-28T07:14:17Z</time>
      </trkpt>
      <trkpt lat="44.59077" lon="2.92021">
        <ele>810</ele>
        <time>2021-08-28T07:14:19Z</time>
      </trkpt>
      <trkpt lat="44.59082" lon="2.91962">
        <ele>814</ele>
        <time>2021-08-28T07:14:39Z</time>
      </trkpt>
      <trkpt lat="44.59087" lon="2.91937">
        <ele>818</ele>
        <time>2021-08-28T07:14:48Z</time>
      </trkpt>
      <trkpt lat="44.59093" lon="2.91906">
        <ele>820</ele>
        <time>2021-08-28T07:14:59Z</time>
      </trkpt>
      <trkpt lat="44.59096" lon="2.91889">
        <ele>821</ele>
        <time>2021-08-28T07:15:05Z</time>
      </trkpt>
      <trkpt lat="44.59094" lon="2.91865">
        <ele>823</ele>
        <time>2021-08-28T07:15:14Z</time>
      </trkpt>
      <trkpt lat="44.59087" lon="2.91844">
        <ele>823</ele>
        <time>2021-08-28T07:15:22Z</time>
      </trkpt>
      <trkpt lat="44.5908" lon="2.91832">
        <ele>823</ele>
        <time>2021-08-28T07:15:28Z</time>
      </trkpt>
      <trkpt lat="44.59078" lon="2.91824">
        <ele>819</ele>
        <time>2021-08-28T07:15:31Z</time>
      </trkpt>
      <trkpt lat="44.59071" lon="2.91811">
        <ele>816</ele>
        <time>2021-08-28T07:15:37Z</time>
      </trkpt>
      <trkpt lat="44.59054" lon="2.91769">
        <ele>806</ele>
        <time>2021-08-28T07:15:55Z</time>
      </trkpt>
      <trkpt lat="44.59051" lon="2.91763">
        <ele>806</ele>
        <time>2021-08-28T07:15:58Z</time>
      </trkpt>
      <trkpt lat="44.59049" lon="2.91757">
        <ele>803</ele>
        <time>2021-08-28T07:16:01Z</time>
      </trkpt>
      <trkpt lat="44.59044" lon="2.91751">
        <ele>803</ele>
        <time>2021-08-28T07:16:04Z</time>
      </trkpt>
      <trkpt lat="44.59026" lon="2.91706">
        <ele>811</ele>
        <time>2021-08-28T07:16:25Z</time>
      </trkpt>
      <trkpt lat="44.59024" lon="2.91691">
        <ele>813</ele>
        <time>2021-08-28T07:16:31Z</time>
      </trkpt>
      <trkpt lat="44.59019" lon="2.9167">
        <ele>814</ele>
        <time>2021-08-28T07:16:40Z</time>
      </trkpt>
      <trkpt lat="44.59014" lon="2.9163">
        <ele>817</ele>
        <time>2021-08-28T07:16:55Z</time>
      </trkpt>
      <trkpt lat="44.59014" lon="2.91623">
        <ele>817</ele>
        <time>2021-08-28T07:16:58Z</time>
      </trkpt>
      <trkpt lat="44.5901" lon="2.91577">
        <ele>821</ele>
        <time>2021-08-28T07:17:16Z</time>
      </trkpt>
      <trkpt lat="44.59004" lon="2.91488">
        <ele>830</ele>
        <time>2021-08-28T07:17:49Z</time>
      </trkpt>
      <trkpt lat="44.59002" lon="2.91472">
        <ele>831</ele>
        <time>2021-08-28T07:17:55Z</time>
      </trkpt>
      <trkpt lat="44.59002" lon="2.91454">
        <ele>831</ele>
        <time>2021-08-28T07:18:01Z</time>
      </trkpt>
      <trkpt lat="44.59002" lon="2.91447">
        <ele>831</ele>
        <time>2021-08-28T07:18:03Z</time>
      </trkpt>
      <trkpt lat="44.59002" lon="2.91441">
        <ele>831</ele>
        <time>2021-08-28T07:18:05Z</time>
      </trkpt>
      <trkpt lat="44.58996" lon="2.91391">
        <ele>837</ele>
        <time>2021-08-28T07:18:26Z</time>
      </trkpt>
      <trkpt lat="44.58995" lon="2.91384">
        <ele>837</ele>
        <time>2021-08-28T07:18:29Z</time>
      </trkpt>
      <trkpt lat="44.58992" lon="2.91376">
        <ele>836</ele>
        <time>2021-08-28T07:18:33Z</time>
      </trkpt>
      <trkpt lat="44.58985" lon="2.91364">
        <ele>837</ele>
        <time>2021-08-28T07:18:38Z</time>
      </trkpt>
      <trkpt lat="44.58977" lon="2.91353">
        <ele>839</ele>
        <time>2021-08-28T07:18:43Z</time>
      </trkpt>
      <trkpt lat="44.58973" lon="2.9135">
        <ele>840</ele>
        <time>2021-08-28T07:18:45Z</time>
      </trkpt>
      <trkpt lat="44.58968" lon="2.91346">
        <ele>842</ele>
        <time>2021-08-28T07:18:48Z</time>
      </trkpt>
      <trkpt lat="44.58945" lon="2.91344">
        <ele>846</ele>
        <time>2021-08-28T07:19:00Z</time>
      </trkpt>
      <trkpt lat="44.5894" lon="2.91349">
        <ele>847</ele>
        <time>2021-08-28T07:19:03Z</time>
      </trkpt>
      <trkpt lat="44.58935" lon="2.91353">
        <ele>848</ele>
        <time>2021-08-28T07:19:05Z</time>
      </trkpt>
      <trkpt lat="44.58885" lon="2.91384">
        <ele>859</ele>
        <time>2021-08-28T07:19:36Z</time>
      </trkpt>
      <trkpt lat="44.58865" lon="2.91389">
        <ele>863</ele>
        <time>2021-08-28T07:19:48Z</time>
      </trkpt>
      <trkpt lat="44.58844" lon="2.91391">
        <ele>866</ele>
        <time>2021-08-28T07:20:00Z</time>
      </trkpt>
      <trkpt lat="44.58819" lon="2.91386">
        <ele>871</ele>
        <time>2021-08-28T07:20:15Z</time>
      </trkpt>
      <trkpt lat="44.58798" lon="2.91374">
        <ele>872</ele>
        <time>2021-08-28T07:20:26Z</time>
      </trkpt>
      <trkpt lat="44.58794" lon="2.91368">
        <ele>872</ele>
        <time>2021-08-28T07:20:29Z</time>
      </trkpt>
      <trkpt lat="44.58787" lon="2.91366">
        <ele>873</ele>
        <time>2021-08-28T07:20:32Z</time>
      </trkpt>
      <trkpt lat="44.58745" lon="2.91344">
        <ele>876</ele>
        <time>2021-08-28T07:20:53Z</time>
      </trkpt>
      <trkpt lat="44.58682" lon="2.91322">
        <ele>881</ele>
        <time>2021-08-28T07:21:23Z</time>
      </trkpt>
      <trkpt lat="44.58671" lon="2.91317">
        <ele>884</ele>
        <time>2021-08-28T07:21:29Z</time>
      </trkpt>
      <trkpt lat="44.58666" lon="2.91316">
        <ele>886</ele>
        <time>2021-08-28T07:21:32Z</time>
      </trkpt>
      <trkpt lat="44.58633" lon="2.91292">
        <ele>888</ele>
        <time>2021-08-28T07:21:48Z</time>
      </trkpt>
      <trkpt lat="44.58624" lon="2.91283">
        <ele>889</ele>
        <time>2021-08-28T07:21:54Z</time>
      </trkpt>
      <trkpt lat="44.5862" lon="2.91279">
        <ele>890</ele>
        <time>2021-08-28T07:21:57Z</time>
      </trkpt>
      <trkpt lat="44.58616" lon="2.91275">
        <ele>891</ele>
        <time>2021-08-28T07:22:00Z</time>
      </trkpt>
      <trkpt lat="44.58606" lon="2.91267">
        <ele>892</ele>
        <time>2021-08-28T07:22:05Z</time>
      </trkpt>
      <trkpt lat="44.58545" lon="2.91237">
        <ele>894</ele>
        <time>2021-08-28T07:22:37Z</time>
      </trkpt>
      <trkpt lat="44.58487" lon="2.91208">
        <ele>898</ele>
        <time>2021-08-28T07:23:07Z</time>
      </trkpt>
      <trkpt lat="44.58454" lon="2.91186">
        <ele>899</ele>
        <time>2021-08-28T07:23:25Z</time>
      </trkpt>
      <trkpt lat="44.58449" lon="2.91181">
        <ele>899</ele>
        <time>2021-08-28T07:23:28Z</time>
      </trkpt>
      <trkpt lat="44.58439" lon="2.91171">
        <ele>898</ele>
        <time>2021-08-28T07:23:34Z</time>
      </trkpt>
      <trkpt lat="44.5842" lon="2.91152">
        <ele>900</ele>
        <time>2021-08-28T07:23:45Z</time>
      </trkpt>
      <trkpt lat="44.58413" lon="2.9114">
        <ele>900</ele>
        <time>2021-08-28T07:23:50Z</time>
      </trkpt>
      <trkpt lat="44.58409" lon="2.91133">
        <ele>900</ele>
        <time>2021-08-28T07:23:53Z</time>
      </trkpt>
      <trkpt lat="44.58406" lon="2.91118">
        <ele>901</ele>
        <time>2021-08-28T07:23:58Z</time>
      </trkpt>
      <trkpt lat="44.58407" lon="2.91108">
        <ele>901</ele>
        <time>2021-08-28T07:24:01Z</time>
      </trkpt>
      <trkpt lat="44.58409" lon="2.91087">
        <ele>901</ele>
        <time>2021-08-28T07:24:08Z</time>
      </trkpt>
      <trkpt lat="44.58412" lon="2.91079">
        <ele>900</ele>
        <time>2021-08-28T07:24:12Z</time>
      </trkpt>
      <trkpt lat="44.5842" lon="2.9107">
        <ele>899</ele>
        <time>2021-08-28T07:24:16Z</time>
      </trkpt>
      <trkpt lat="44.5843" lon="2.91063">
        <ele>900</ele>
        <time>2021-08-28T07:24:22Z</time>
      </trkpt>
      <trkpt lat="44.58442" lon="2.91059">
        <ele>900</ele>
        <time>2021-08-28T07:24:28Z</time>
      </trkpt>
      <trkpt lat="44.58457" lon="2.91061">
        <ele>903</ele>
        <time>2021-08-28T07:24:35Z</time>
      </trkpt>
      <trkpt lat="44.58513" lon="2.91119">
        <ele>908</ele>
        <time>2021-08-28T07:25:07Z</time>
      </trkpt>
      <trkpt lat="44.58535" lon="2.91144">
        <ele>909</ele>
        <time>2021-08-28T07:25:20Z</time>
      </trkpt>
      <trkpt lat="44.5854" lon="2.91148">
        <ele>909</ele>
        <time>2021-08-28T07:25:22Z</time>
      </trkpt>
      <trkpt lat="44.58544" lon="2.91152">
        <ele>909</ele>
        <time>2021-08-28T07:25:24Z</time>
      </trkpt>
      <trkpt lat="44.58616" lon="2.91205">
        <ele>912</ele>
        <time>2021-08-28T07:25:56Z</time>
      </trkpt>
      <trkpt lat="44.58649" lon="2.91225">
        <ele>914</ele>
        <time>2021-08-28T07:26:11Z</time>
      </trkpt>
      <trkpt lat="44.58684" lon="2.91239">
        <ele>918</ele>
        <time>2021-08-28T07:26:25Z</time>
      </trkpt>
      <trkpt lat="44.58769" lon="2.91222">
        <ele>919</ele>
        <time>2021-08-28T07:26:57Z</time>
      </trkpt>
      <trkpt lat="44.58834" lon="2.91162">
        <ele>923</ele>
        <time>2021-08-28T07:27:29Z</time>
      </trkpt>
      <trkpt lat="44.58852" lon="2.91061">
        <ele>928</ele>
        <time>2021-08-28T07:27:59Z</time>
      </trkpt>
      <trkpt lat="44.58882" lon="2.9097">
        <ele>931</ele>
        <time>2021-08-28T07:28:31Z</time>
      </trkpt>
      <trkpt lat="44.58885" lon="2.90965">
        <ele>931</ele>
        <time>2021-08-28T07:28:33Z</time>
      </trkpt>
      <trkpt lat="44.58922" lon="2.90926">
        <ele>934</ele>
        <time>2021-08-28T07:28:51Z</time>
      </trkpt>
      <trkpt lat="44.58939" lon="2.90912">
        <ele>936</ele>
        <time>2021-08-28T07:28:59Z</time>
      </trkpt>
      <trkpt lat="44.58963" lon="2.90903">
        <ele>937</ele>
        <time>2021-08-28T07:29:10Z</time>
      </trkpt>
      <trkpt lat="44.58983" lon="2.90897">
        <ele>939</ele>
        <time>2021-08-28T07:29:18Z</time>
      </trkpt>
      <trkpt lat="44.59007" lon="2.90887">
        <ele>941</ele>
        <time>2021-08-28T07:29:28Z</time>
      </trkpt>
      <trkpt lat="44.59069" lon="2.90827">
        <ele>946</ele>
        <time>2021-08-28T07:29:59Z</time>
      </trkpt>
      <trkpt lat="44.59124" lon="2.90758">
        <ele>949</ele>
        <time>2021-08-28T07:30:30Z</time>
      </trkpt>
      <trkpt lat="44.59171" lon="2.90673">
        <ele>949</ele>
        <time>2021-08-28T07:31:00Z</time>
      </trkpt>
      <trkpt lat="44.59222" lon="2.90609">
        <ele>952</ele>
        <time>2021-08-28T07:31:26Z</time>
      </trkpt>
      <trkpt lat="44.59268" lon="2.90514">
        <ele>956</ele>
        <time>2021-08-28T07:31:57Z</time>
      </trkpt>
      <trkpt lat="44.59316" lon="2.90399">
        <ele>958</ele>
        <time>2021-08-28T07:32:29Z</time>
      </trkpt>
      <trkpt lat="44.59333" lon="2.90348">
        <ele>960</ele>
        <time>2021-08-28T07:32:41Z</time>
      </trkpt>
      <trkpt lat="44.59344" lon="2.90276">
        <ele>960</ele>
        <time>2021-08-28T07:32:54Z</time>
      </trkpt>
      <trkpt lat="44.59356" lon="2.90062">
        <ele>954</ele>
        <time>2021-08-28T07:33:24Z</time>
      </trkpt>
      <trkpt lat="44.59363" lon="2.8985">
        <ele>955</ele>
        <time>2021-08-28T07:33:55Z</time>
      </trkpt>
      <trkpt lat="44.59372" lon="2.89655">
        <ele>956</ele>
        <time>2021-08-28T07:34:26Z</time>
      </trkpt>
      <trkpt lat="44.59381" lon="2.89471">
        <ele>959</ele>
        <time>2021-08-28T07:34:58Z</time>
      </trkpt>
      <trkpt lat="44.5939" lon="2.89364">
        <ele>957</ele>
        <time>2021-08-28T07:35:15Z</time>
      </trkpt>
      <trkpt lat="44.5941" lon="2.89267">
        <ele>952</ele>
        <time>2021-08-28T07:35:30Z</time>
      </trkpt>
      <trkpt lat="44.59422" lon="2.89249">
        <ele>950</ele>
        <time>2021-08-28T07:35:36Z</time>
      </trkpt>
      <trkpt lat="44.59426" lon="2.89244">
        <ele>951</ele>
        <time>2021-08-28T07:35:38Z</time>
      </trkpt>
      <trkpt lat="44.59428" lon="2.89235">
        <ele>950</ele>
        <time>2021-08-28T07:35:40Z</time>
      </trkpt>
      <trkpt lat="44.59427" lon="2.89218">
        <ele>950</ele>
        <time>2021-08-28T07:35:44Z</time>
      </trkpt>
      <trkpt lat="44.59435" lon="2.88982">
        <ele>938</ele>
        <time>2021-08-28T07:36:14Z</time>
      </trkpt>
      <trkpt lat="44.59436" lon="2.88902">
        <ele>937</ele>
        <time>2021-08-28T07:36:25Z</time>
      </trkpt>
      <trkpt lat="44.59419" lon="2.88822">
        <ele>938</ele>
        <time>2021-08-28T07:36:37Z</time>
      </trkpt>
      <trkpt lat="44.5937" lon="2.8863">
        <ele>932</ele>
        <time>2021-08-28T07:37:07Z</time>
      </trkpt>
      <trkpt lat="44.5934" lon="2.88536">
        <ele>928</ele>
        <time>2021-08-28T07:37:17Z</time>
      </trkpt>
      <trkpt lat="44.59204" lon="2.88255">
        <ele>921</ele>
        <time>2021-08-28T07:37:47Z</time>
      </trkpt>
      <trkpt lat="44.59166" lon="2.88204">
        <ele>921</ele>
        <time>2021-08-28T07:37:56Z</time>
      </trkpt>
      <trkpt lat="44.59022" lon="2.8808">
        <ele>928</ele>
        <time>2021-08-28T07:38:27Z</time>
      </trkpt>
      <trkpt lat="44.5886" lon="2.8795">
        <ele>919</ele>
        <time>2021-08-28T07:38:57Z</time>
      </trkpt>
      <trkpt lat="44.5881" lon="2.87908">
        <ele>917</ele>
        <time>2021-08-28T07:39:05Z</time>
      </trkpt>
      <trkpt lat="44.58774" lon="2.87861">
        <ele>914</ele>
        <time>2021-08-28T07:39:11Z</time>
      </trkpt>
      <trkpt lat="44.58712" lon="2.87727">
        <ele>908</ele>
        <time>2021-08-28T07:39:23Z</time>
      </trkpt>
      <trkpt lat="44.58628" lon="2.87423">
        <ele>903</ele>
        <time>2021-08-28T07:39:54Z</time>
      </trkpt>
      <trkpt lat="44.5857" lon="2.87178">
        <ele>897</ele>
        <time>2021-08-28T07:40:24Z</time>
      </trkpt>
      <trkpt lat="44.58511" lon="2.86907">
        <ele>886</ele>
        <time>2021-08-28T07:40:48Z</time>
      </trkpt>
      <trkpt lat="44.58466" lon="2.86795">
        <ele>881</ele>
        <time>2021-08-28T07:40:57Z</time>
      </trkpt>
      <trkpt lat="44.58444" lon="2.86763">
        <ele>879</ele>
        <time>2021-08-28T07:41:00Z</time>
      </trkpt>
      <trkpt lat="44.58238" lon="2.8656">
        <ele>876</ele>
        <time>2021-08-28T07:41:31Z</time>
      </trkpt>
      <trkpt lat="44.58131" lon="2.86453">
        <ele>885</ele>
        <time>2021-08-28T07:42:02Z</time>
      </trkpt>
      <trkpt lat="44.58047" lon="2.86372">
        <ele>893</ele>
        <time>2021-08-28T07:42:32Z</time>
      </trkpt>
      <trkpt lat="44.57968" lon="2.86315">
        <ele>898</ele>
        <time>2021-08-28T07:42:58Z</time>
      </trkpt>
      <trkpt lat="44.57962" lon="2.86312">
        <ele>899</ele>
        <time>2021-08-28T07:43:00Z</time>
      </trkpt>
      <trkpt lat="44.5787" lon="2.8626">
        <ele>903</ele>
        <time>2021-08-28T07:43:30Z</time>
      </trkpt>
      <trkpt lat="44.57771" lon="2.862">
        <ele>908</ele>
        <time>2021-08-28T07:44:02Z</time>
      </trkpt>
      <trkpt lat="44.57656" lon="2.86126">
        <ele>908</ele>
        <time>2021-08-28T07:44:34Z</time>
      </trkpt>
      <trkpt lat="44.57635" lon="2.86114">
        <ele>907</ele>
        <time>2021-08-28T07:46:10Z</time>
      </trkpt>
      <trkpt lat="44.57566" lon="2.86073">
        <ele>904</ele>
        <time>2021-08-28T07:46:29Z</time>
      </trkpt>
      <trkpt lat="44.57562" lon="2.86068">
        <ele>904</ele>
        <time>2021-08-28T07:46:31Z</time>
      </trkpt>
      <trkpt lat="44.57561" lon="2.8606">
        <ele>904</ele>
        <time>2021-08-28T07:48:03Z</time>
      </trkpt>
      <trkpt lat="44.5756" lon="2.86044">
        <ele>904</ele>
        <time>2021-08-28T07:48:08Z</time>
      </trkpt>
      <trkpt lat="44.57565" lon="2.8603">
        <ele>903</ele>
        <time>2021-08-28T07:48:13Z</time>
      </trkpt>
      <trkpt lat="44.57567" lon="2.86017">
        <ele>903</ele>
        <time>2021-08-28T07:48:17Z</time>
      </trkpt>
      <trkpt lat="44.57563" lon="2.85997">
        <ele>903</ele>
        <time>2021-08-28T07:48:23Z</time>
      </trkpt>
      <trkpt lat="44.57522" lon="2.85849">
        <ele>899</ele>
        <time>2021-08-28T07:48:54Z</time>
      </trkpt>
      <trkpt lat="44.57496" lon="2.8575">
        <ele>900</ele>
        <time>2021-08-28T07:49:14Z</time>
      </trkpt>
      <trkpt lat="44.57494" lon="2.85721">
        <ele>901</ele>
        <time>2021-08-28T07:49:20Z</time>
      </trkpt>
      <trkpt lat="44.57496" lon="2.85712">
        <ele>901</ele>
        <time>2021-08-28T07:49:22Z</time>
      </trkpt>
      <trkpt lat="44.57506" lon="2.85683">
        <ele>903</ele>
        <time>2021-08-28T07:49:30Z</time>
      </trkpt>
      <trkpt lat="44.5753" lon="2.85638">
        <ele>906</ele>
        <time>2021-08-28T07:49:44Z</time>
      </trkpt>
      <trkpt lat="44.57578" lon="2.85479">
        <ele>902</ele>
        <time>2021-08-28T07:50:14Z</time>
      </trkpt>
      <trkpt lat="44.57584" lon="2.85462">
        <ele>902</ele>
        <time>2021-08-28T07:50:19Z</time>
      </trkpt>
      <trkpt lat="44.57586" lon="2.85456">
        <ele>901</ele>
        <time>2021-08-28T07:51:08Z</time>
      </trkpt>
      <trkpt lat="44.57605" lon="2.85398">
        <ele>900</ele>
        <time>2021-08-28T07:51:20Z</time>
      </trkpt>
      <trkpt lat="44.57638" lon="2.85219">
        <ele>896</ele>
        <time>2021-08-28T07:51:40Z</time>
      </trkpt>
      <trkpt lat="44.57639" lon="2.85202">
        <ele>896</ele>
        <time>2021-08-28T07:51:42Z</time>
      </trkpt>
      <trkpt lat="44.57637" lon="2.85185">
        <ele>895</ele>
        <time>2021-08-28T07:51:44Z</time>
      </trkpt>
      <trkpt lat="44.57628" lon="2.85163">
        <ele>894</ele>
        <time>2021-08-28T07:51:47Z</time>
      </trkpt>
      <trkpt lat="44.57614" lon="2.85138">
        <ele>893</ele>
        <time>2021-08-28T07:51:52Z</time>
      </trkpt>
      <trkpt lat="44.57612" lon="2.85131">
        <ele>892</ele>
        <time>2021-08-28T07:51:54Z</time>
      </trkpt>
      <trkpt lat="44.5761" lon="2.85124">
        <ele>891</ele>
        <time>2021-08-28T07:52:49Z</time>
      </trkpt>
      <trkpt lat="44.57606" lon="2.85117">
        <ele>891</ele>
        <time>2021-08-28T07:52:51Z</time>
      </trkpt>
      <trkpt lat="44.57592" lon="2.85106">
        <ele>891</ele>
        <time>2021-08-28T07:52:55Z</time>
      </trkpt>
      <trkpt lat="44.57577" lon="2.85098">
        <ele>891</ele>
        <time>2021-08-28T07:52:59Z</time>
      </trkpt>
      <trkpt lat="44.57552" lon="2.85082">
        <ele>892</ele>
        <time>2021-08-28T07:53:07Z</time>
      </trkpt>
      <trkpt lat="44.57547" lon="2.85077">
        <ele>893</ele>
        <time>2021-08-28T07:53:10Z</time>
      </trkpt>
      <trkpt lat="44.5753" lon="2.85044">
        <ele>888</ele>
        <time>2021-08-28T07:53:19Z</time>
      </trkpt>
      <trkpt lat="44.57511" lon="2.85011">
        <ele>886</ele>
        <time>2021-08-28T07:53:24Z</time>
      </trkpt>
      <trkpt lat="44.57505" lon="2.84993">
        <ele>886</ele>
        <time>2021-08-28T07:53:26Z</time>
      </trkpt>
      <trkpt lat="44.57503" lon="2.84971">
        <ele>886</ele>
        <time>2021-08-28T07:53:28Z</time>
      </trkpt>
      <trkpt lat="44.57506" lon="2.8493">
        <ele>887</ele>
        <time>2021-08-28T07:53:32Z</time>
      </trkpt>
      <trkpt lat="44.57522" lon="2.84838">
        <ele>886</ele>
        <time>2021-08-28T07:53:44Z</time>
      </trkpt>
      <trkpt lat="44.57523" lon="2.84804">
        <ele>885</ele>
        <time>2021-08-28T07:53:49Z</time>
      </trkpt>
      <trkpt lat="44.57508" lon="2.84722">
        <ele>884</ele>
        <time>2021-08-28T07:54:06Z</time>
      </trkpt>
      <trkpt lat="44.57506" lon="2.84708">
        <ele>883</ele>
        <time>2021-08-28T07:54:12Z</time>
      </trkpt>
      <trkpt lat="44.57504" lon="2.847">
        <ele>883</ele>
        <time>2021-08-28T07:54:16Z</time>
      </trkpt>
      <trkpt lat="44.57502" lon="2.84693">
        <ele>883</ele>
        <time>2021-08-28T07:54:20Z</time>
      </trkpt>
      <trkpt lat="44.575" lon="2.84686">
        <ele>882</ele>
        <time>2021-08-28T07:55:02Z</time>
      </trkpt>
      <trkpt lat="44.57498" lon="2.8468">
        <ele>882</ele>
        <time>2021-08-28T07:55:04Z</time>
      </trkpt>
      <trkpt lat="44.57472" lon="2.84621">
        <ele>879</ele>
        <time>2021-08-28T07:55:16Z</time>
      </trkpt>
      <trkpt lat="44.5746" lon="2.84607">
        <ele>878</ele>
        <time>2021-08-28T07:55:19Z</time>
      </trkpt>
      <trkpt lat="44.57452" lon="2.84601">
        <ele>878</ele>
        <time>2021-08-28T07:55:21Z</time>
      </trkpt>
      <trkpt lat="44.57367" lon="2.84566">
        <ele>875</ele>
        <time>2021-08-28T07:55:36Z</time>
      </trkpt>
      <trkpt lat="44.57358" lon="2.84556">
        <ele>875</ele>
        <time>2021-08-28T07:55:38Z</time>
      </trkpt>
      <trkpt lat="44.57352" lon="2.84543">
        <ele>874</ele>
        <time>2021-08-28T07:55:40Z</time>
      </trkpt>
      <trkpt lat="44.57351" lon="2.84535">
        <ele>874</ele>
        <time>2021-08-28T07:55:41Z</time>
      </trkpt>
      <trkpt lat="44.57349" lon="2.84412">
        <ele>869</ele>
        <time>2021-08-28T07:55:55Z</time>
      </trkpt>
      <trkpt lat="44.57339" lon="2.84278">
        <ele>865</ele>
        <time>2021-08-28T07:56:09Z</time>
      </trkpt>
      <trkpt lat="44.57342" lon="2.84248">
        <ele>864</ele>
        <time>2021-08-28T07:56:12Z</time>
      </trkpt>
      <trkpt lat="44.57362" lon="2.84169">
        <ele>859</ele>
        <time>2021-08-28T07:56:21Z</time>
      </trkpt>
      <trkpt lat="44.57363" lon="2.84151">
        <ele>859</ele>
        <time>2021-08-28T07:56:23Z</time>
      </trkpt>
      <trkpt lat="44.5735" lon="2.84077">
        <ele>860</ele>
        <time>2021-08-28T07:56:32Z</time>
      </trkpt>
      <trkpt lat="44.57342" lon="2.84053">
        <ele>859</ele>
        <time>2021-08-28T07:56:35Z</time>
      </trkpt>
      <trkpt lat="44.57334" lon="2.84039">
        <ele>858</ele>
        <time>2021-08-28T07:56:37Z</time>
      </trkpt>
      <trkpt lat="44.57316" lon="2.84022">
        <ele>857</ele>
        <time>2021-08-28T07:56:40Z</time>
      </trkpt>
      <trkpt lat="44.57288" lon="2.84003">
        <ele>856</ele>
        <time>2021-08-28T07:56:44Z</time>
      </trkpt>
      <trkpt lat="44.57276" lon="2.83989">
        <ele>856</ele>
        <time>2021-08-28T07:56:46Z</time>
      </trkpt>
      <trkpt lat="44.57268" lon="2.83972">
        <ele>855</ele>
        <time>2021-08-28T07:56:48Z</time>
      </trkpt>
      <trkpt lat="44.57266" lon="2.83962">
        <ele>854</ele>
        <time>2021-08-28T07:56:49Z</time>
      </trkpt>
      <trkpt lat="44.57274" lon="2.83813">
        <ele>850</ele>
        <time>2021-08-28T07:57:02Z</time>
      </trkpt>
      <trkpt lat="44.57219" lon="2.83519">
        <ele>846</ele>
        <time>2021-08-28T07:57:32Z</time>
      </trkpt>
      <trkpt lat="44.57177" lon="2.83319">
        <ele>841</ele>
        <time>2021-08-28T07:57:53Z</time>
      </trkpt>
      <trkpt lat="44.57069" lon="2.83084">
        <ele>836</ele>
        <time>2021-08-28T07:58:24Z</time>
      </trkpt>
      <trkpt lat="44.56994" lon="2.82915">
        <ele>832</ele>
        <time>2021-08-28T07:58:44Z</time>
      </trkpt>
      <trkpt lat="44.56972" lon="2.82826">
        <ele>832</ele>
        <time>2021-08-28T07:58:55Z</time>
      </trkpt>
      <trkpt lat="44.56967" lon="2.82775">
        <ele>831</ele>
        <time>2021-08-28T07:59:01Z</time>
      </trkpt>
      <trkpt lat="44.56966" lon="2.8267">
        <ele>830</ele>
        <time>2021-08-28T07:59:12Z</time>
      </trkpt>
      <trkpt lat="44.56882" lon="2.82399">
        <ele>824</ele>
        <time>2021-08-28T07:59:42Z</time>
      </trkpt>
      <trkpt lat="44.56797" lon="2.82133">
        <ele>819</ele>
        <time>2021-08-28T08:00:13Z</time>
      </trkpt>
      <trkpt lat="44.56733" lon="2.81917">
        <ele>812</ele>
        <time>2021-08-28T08:00:38Z</time>
      </trkpt>
      <trkpt lat="44.56721" lon="2.81841">
        <ele>811</ele>
        <time>2021-08-28T08:00:45Z</time>
      </trkpt>
      <trkpt lat="44.56715" lon="2.81822">
        <ele>811</ele>
        <time>2021-08-28T08:00:47Z</time>
      </trkpt>
      <trkpt lat="44.56705" lon="2.81806">
        <ele>809</ele>
        <time>2021-08-28T08:00:49Z</time>
      </trkpt>
      <trkpt lat="44.56539" lon="2.81689">
        <ele>808</ele>
        <time>2021-08-28T08:01:19Z</time>
      </trkpt>
      <trkpt lat="44.56412" lon="2.81591">
        <ele>803</ele>
        <time>2021-08-28T08:01:50Z</time>
      </trkpt>
      <trkpt lat="44.56363" lon="2.81556">
        <ele>798</ele>
        <time>2021-08-28T08:02:01Z</time>
      </trkpt>
      <trkpt lat="44.5634" lon="2.81549">
        <ele>795</ele>
        <time>2021-08-28T08:02:06Z</time>
      </trkpt>
      <trkpt lat="44.56221" lon="2.81544">
        <ele>799</ele>
        <time>2021-08-28T08:02:32Z</time>
      </trkpt>
      <trkpt lat="44.56205" lon="2.81545">
        <ele>801</ele>
        <time>2021-08-28T08:02:36Z</time>
      </trkpt>
      <trkpt lat="44.56191" lon="2.81552">
        <ele>802</ele>
        <time>2021-08-28T08:02:40Z</time>
      </trkpt>
      <trkpt lat="44.56168" lon="2.81578">
        <ele>802</ele>
        <time>2021-08-28T08:02:48Z</time>
      </trkpt>
      <trkpt lat="44.56147" lon="2.81593">
        <ele>803</ele>
        <time>2021-08-28T08:02:54Z</time>
      </trkpt>
      <trkpt lat="44.56141" lon="2.81595">
        <ele>804</ele>
        <time>2021-08-28T08:02:56Z</time>
      </trkpt>
      <trkpt lat="44.56115" lon="2.81595">
        <ele>805</ele>
        <time>2021-08-28T08:03:04Z</time>
      </trkpt>
      <trkpt lat="44.56108" lon="2.81594">
        <ele>806</ele>
        <time>2021-08-28T08:03:06Z</time>
      </trkpt>
      <trkpt lat="44.56093" lon="2.81591">
        <ele>807</ele>
        <time>2021-08-28T08:03:12Z</time>
      </trkpt>
      <trkpt lat="44.56068" lon="2.81576">
        <ele>808</ele>
        <time>2021-08-28T08:03:24Z</time>
      </trkpt>
      <trkpt lat="44.56064" lon="2.81576">
        <ele>808</ele>
        <time>2021-08-28T08:03:26Z</time>
      </trkpt>
      <trkpt lat="44.56059" lon="2.81575">
        <ele>806</ele>
        <time>2021-08-28T08:03:30Z</time>
      </trkpt>
      <trkpt lat="44.56052" lon="2.81572">
        <ele>803</ele>
        <time>2021-08-28T08:04:42Z</time>
      </trkpt>
      <trkpt lat="44.56016" lon="2.81543">
        <ele>803</ele>
        <time>2021-08-28T08:04:52Z</time>
      </trkpt>
      <trkpt lat="44.56005" lon="2.81529">
        <ele>801</ele>
        <time>2021-08-28T08:04:55Z</time>
      </trkpt>
      <trkpt lat="44.56001" lon="2.81522">
        <ele>801</ele>
        <time>2021-08-28T08:04:56Z</time>
      </trkpt>
      <trkpt lat="44.55996" lon="2.81506">
        <ele>800</ele>
        <time>2021-08-28T08:04:58Z</time>
      </trkpt>
      <trkpt lat="44.55994" lon="2.81467">
        <ele>798</ele>
        <time>2021-08-28T08:05:02Z</time>
      </trkpt>
      <trkpt lat="44.55993" lon="2.81442">
        <ele>798</ele>
        <time>2021-08-28T08:05:05Z</time>
      </trkpt>
      <trkpt lat="44.55989" lon="2.81425">
        <ele>798</ele>
        <time>2021-08-28T08:05:07Z</time>
      </trkpt>
      <trkpt lat="44.55974" lon="2.814">
        <ele>798</ele>
        <time>2021-08-28T08:05:10Z</time>
      </trkpt>
      <trkpt lat="44.55944" lon="2.8137">
        <ele>795</ele>
        <time>2021-08-28T08:05:14Z</time>
      </trkpt>
      <trkpt lat="44.55926" lon="2.81361">
        <ele>795</ele>
        <time>2021-08-28T08:05:16Z</time>
      </trkpt>
      <trkpt lat="44.55865" lon="2.81348">
        <ele>794</ele>
        <time>2021-08-28T08:05:23Z</time>
      </trkpt>
      <trkpt lat="44.55736" lon="2.81241">
        <ele>789</ele>
        <time>2021-08-28T08:05:43Z</time>
      </trkpt>
      <trkpt lat="44.55671" lon="2.81158">
        <ele>783</ele>
        <time>2021-08-28T08:05:58Z</time>
      </trkpt>
      <trkpt lat="44.55639" lon="2.81107">
        <ele>778</ele>
        <time>2021-08-28T08:06:07Z</time>
      </trkpt>
      <trkpt lat="44.55619" lon="2.81082">
        <ele>776</ele>
        <time>2021-08-28T08:06:12Z</time>
      </trkpt>
      <trkpt lat="44.55604" lon="2.81068">
        <ele>774</ele>
        <time>2021-08-28T08:06:18Z</time>
      </trkpt>
      <trkpt lat="44.55593" lon="2.81061">
        <ele>773</ele>
        <time>2021-08-28T08:06:24Z</time>
      </trkpt>
      <trkpt lat="44.55589" lon="2.81058">
        <ele>773</ele>
        <time>2021-08-28T08:06:34Z</time>
      </trkpt>
      <trkpt lat="44.55583" lon="2.81058">
        <ele>773</ele>
        <time>2021-08-28T08:08:28Z</time>
      </trkpt>
      <trkpt lat="44.55379" lon="2.81051">
        <ele>753</ele>
        <time>2021-08-28T08:08:59Z</time>
      </trkpt>
      <trkpt lat="44.55098" lon="2.81012">
        <ele>735</ele>
        <time>2021-08-28T08:09:29Z</time>
      </trkpt>
      <trkpt lat="44.54972" lon="2.80968">
        <ele>726</ele>
        <time>2021-08-28T08:09:43Z</time>
      </trkpt>
      <trkpt lat="44.54966" lon="2.80964">
        <ele>726</ele>
        <time>2021-08-28T08:09:44Z</time>
      </trkpt>
      <trkpt lat="44.54954" lon="2.80952">
        <ele>725</ele>
        <time>2021-08-28T08:09:46Z</time>
      </trkpt>
      <trkpt lat="44.54951" lon="2.80945">
        <ele>725</ele>
        <time>2021-08-28T08:09:47Z</time>
      </trkpt>
      <trkpt lat="44.54948" lon="2.80927">
        <ele>724</ele>
        <time>2021-08-28T08:09:49Z</time>
      </trkpt>
      <trkpt lat="44.54949" lon="2.80894">
        <ele>721</ele>
        <time>2021-08-28T08:09:54Z</time>
      </trkpt>
      <trkpt lat="44.54947" lon="2.80871">
        <ele>719</ele>
        <time>2021-08-28T08:09:58Z</time>
      </trkpt>
      <trkpt lat="44.54938" lon="2.80858">
        <ele>716</ele>
        <time>2021-08-28T08:10:00Z</time>
      </trkpt>
      <trkpt lat="44.54909" lon="2.80841">
        <ele>712</ele>
        <time>2021-08-28T08:10:04Z</time>
      </trkpt>
      <trkpt lat="44.54878" lon="2.80831">
        <ele>708</ele>
        <time>2021-08-28T08:10:08Z</time>
      </trkpt>
      <trkpt lat="44.54836" lon="2.80825">
        <ele>703</ele>
        <time>2021-08-28T08:10:11Z</time>
      </trkpt>
      <trkpt lat="44.54775" lon="2.80799">
        <ele>692</ele>
        <time>2021-08-28T08:10:20Z</time>
      </trkpt>
      <trkpt lat="44.54765" lon="2.80794">
        <ele>688</ele>
        <time>2021-08-28T08:10:22Z</time>
      </trkpt>
      <trkpt lat="44.54759" lon="2.80792">
        <ele>686</ele>
        <time>2021-08-28T08:10:23Z</time>
      </trkpt>
      <trkpt lat="44.54745" lon="2.80791">
        <ele>684</ele>
        <time>2021-08-28T08:10:28Z</time>
      </trkpt>
      <trkpt lat="44.54725" lon="2.80793">
        <ele>676</ele>
        <time>2021-08-28T08:10:31Z</time>
      </trkpt>
      <trkpt lat="44.54701" lon="2.80798">
        <ele>675</ele>
        <time>2021-08-28T08:10:34Z</time>
      </trkpt>
      <trkpt lat="44.54689" lon="2.80806">
        <ele>673</ele>
        <time>2021-08-28T08:10:36Z</time>
      </trkpt>
      <trkpt lat="44.54677" lon="2.80825">
        <ele>670</ele>
        <time>2021-08-28T08:10:40Z</time>
      </trkpt>
      <trkpt lat="44.54673" lon="2.80833">
        <ele>670</ele>
        <time>2021-08-28T08:10:42Z</time>
      </trkpt>
      <trkpt lat="44.54658" lon="2.80851">
        <ele>669</ele>
        <time>2021-08-28T08:10:47Z</time>
      </trkpt>
      <trkpt lat="44.54644" lon="2.80862">
        <ele>668</ele>
        <time>2021-08-28T08:10:50Z</time>
      </trkpt>
      <trkpt lat="44.54632" lon="2.80868">
        <ele>668</ele>
        <time>2021-08-28T08:10:52Z</time>
      </trkpt>
      <trkpt lat="44.54617" lon="2.80868">
        <ele>669</ele>
        <time>2021-08-28T08:10:55Z</time>
      </trkpt>
      <trkpt lat="44.54611" lon="2.80864">
        <ele>669</ele>
        <time>2021-08-28T08:10:56Z</time>
      </trkpt>
      <trkpt lat="44.54592" lon="2.80836">
        <ele>671</ele>
        <time>2021-08-28T08:11:00Z</time>
      </trkpt>
      <trkpt lat="44.54577" lon="2.80812">
        <ele>670</ele>
        <time>2021-08-28T08:11:03Z</time>
      </trkpt>
      <trkpt lat="44.54509" lon="2.80734">
        <ele>660</ele>
        <time>2021-08-28T08:11:16Z</time>
      </trkpt>
      <trkpt lat="44.54472" lon="2.80671">
        <ele>659</ele>
        <time>2021-08-28T08:11:23Z</time>
      </trkpt>
      <trkpt lat="44.54421" lon="2.80597">
        <ele>652</ele>
        <time>2021-08-28T08:11:33Z</time>
      </trkpt>
      <trkpt lat="44.54415" lon="2.80593">
        <ele>651</ele>
        <time>2021-08-28T08:11:34Z</time>
      </trkpt>
      <trkpt lat="44.54391" lon="2.80587">
        <ele>646</ele>
        <time>2021-08-28T08:11:38Z</time>
      </trkpt>
      <trkpt lat="44.54373" lon="2.80586">
        <ele>649</ele>
        <time>2021-08-28T08:11:42Z</time>
      </trkpt>
      <trkpt lat="44.54318" lon="2.80617">
        <ele>651</ele>
        <time>2021-08-28T08:11:51Z</time>
      </trkpt>
      <trkpt lat="44.54261" lon="2.80631">
        <ele>649</ele>
        <time>2021-08-28T08:11:59Z</time>
      </trkpt>
      <trkpt lat="44.54242" lon="2.80644">
        <ele>646</ele>
        <time>2021-08-28T08:12:03Z</time>
      </trkpt>
      <trkpt lat="44.54229" lon="2.80664">
        <ele>645</ele>
        <time>2021-08-28T08:12:07Z</time>
      </trkpt>
      <trkpt lat="44.54217" lon="2.80693">
        <ele>647</ele>
        <time>2021-08-28T08:12:12Z</time>
      </trkpt>
      <trkpt lat="44.54204" lon="2.8074">
        <ele>647</ele>
        <time>2021-08-28T08:12:19Z</time>
      </trkpt>
      <trkpt lat="44.542" lon="2.80749">
        <ele>647</ele>
        <time>2021-08-28T08:12:21Z</time>
      </trkpt>
      <trkpt lat="44.54195" lon="2.80754">
        <ele>647</ele>
        <time>2021-08-28T08:12:23Z</time>
      </trkpt>
      <trkpt lat="44.54189" lon="2.80754">
        <ele>647</ele>
        <time>2021-08-28T08:12:25Z</time>
      </trkpt>
      <trkpt lat="44.54183" lon="2.80752">
        <ele>646</ele>
        <time>2021-08-28T08:12:28Z</time>
      </trkpt>
      <trkpt lat="44.54176" lon="2.80747">
        <ele>645</ele>
        <time>2021-08-28T08:12:30Z</time>
      </trkpt>
      <trkpt lat="44.54168" lon="2.80736">
        <ele>644</ele>
        <time>2021-08-28T08:12:32Z</time>
      </trkpt>
      <trkpt lat="44.54164" lon="2.80723">
        <ele>643</ele>
        <time>2021-08-28T08:12:34Z</time>
      </trkpt>
      <trkpt lat="44.54161" lon="2.807">
        <ele>643</ele>
        <time>2021-08-28T08:12:37Z</time>
      </trkpt>
      <trkpt lat="44.5417" lon="2.80585">
        <ele>636</ele>
        <time>2021-08-28T08:12:49Z</time>
      </trkpt>
      <trkpt lat="44.54175" lon="2.80566">
        <ele>635</ele>
        <time>2021-08-28T08:12:51Z</time>
      </trkpt>
      <trkpt lat="44.54198" lon="2.80533">
        <ele>631</ele>
        <time>2021-08-28T08:12:56Z</time>
      </trkpt>
      <trkpt lat="44.54202" lon="2.80524">
        <ele>630</ele>
        <time>2021-08-28T08:12:57Z</time>
      </trkpt>
      <trkpt lat="44.54204" lon="2.80516">
        <ele>630</ele>
        <time>2021-08-28T08:12:58Z</time>
      </trkpt>
      <trkpt lat="44.54204" lon="2.80507">
        <ele>630</ele>
        <time>2021-08-28T08:12:59Z</time>
      </trkpt>
      <trkpt lat="44.54202" lon="2.80499">
        <ele>629</ele>
        <time>2021-08-28T08:13:00Z</time>
      </trkpt>
      <trkpt lat="44.54198" lon="2.80491">
        <ele>628</ele>
        <time>2021-08-28T08:13:01Z</time>
      </trkpt>
      <trkpt lat="44.54188" lon="2.80478">
        <ele>627</ele>
        <time>2021-08-28T08:13:03Z</time>
      </trkpt>
      <trkpt lat="44.54146" lon="2.80449">
        <ele>623</ele>
        <time>2021-08-28T08:13:09Z</time>
      </trkpt>
      <trkpt lat="44.5414" lon="2.80442">
        <ele>623</ele>
        <time>2021-08-28T08:13:10Z</time>
      </trkpt>
      <trkpt lat="44.5413" lon="2.80429">
        <ele>622</ele>
        <time>2021-08-28T08:13:12Z</time>
      </trkpt>
      <trkpt lat="44.5412" lon="2.8038">
        <ele>622</ele>
        <time>2021-08-28T08:13:18Z</time>
      </trkpt>
      <trkpt lat="44.54116" lon="2.80372">
        <ele>622</ele>
        <time>2021-08-28T08:13:19Z</time>
      </trkpt>
      <trkpt lat="44.54024" lon="2.80254">
        <ele>609</ele>
        <time>2021-08-28T08:13:37Z</time>
      </trkpt>
      <trkpt lat="44.54014" lon="2.80245">
        <ele>607</ele>
        <time>2021-08-28T08:13:39Z</time>
      </trkpt>
      <trkpt lat="44.54003" lon="2.80241">
        <ele>606</ele>
        <time>2021-08-28T08:13:41Z</time>
      </trkpt>
      <trkpt lat="44.53992" lon="2.8024">
        <ele>606</ele>
        <time>2021-08-28T08:13:43Z</time>
      </trkpt>
      <trkpt lat="44.5398" lon="2.80243">
        <ele>605</ele>
        <time>2021-08-28T08:13:45Z</time>
      </trkpt>
      <trkpt lat="44.53939" lon="2.80276">
        <ele>603</ele>
        <time>2021-08-28T08:13:53Z</time>
      </trkpt>
      <trkpt lat="44.5392" lon="2.80311">
        <ele>601</ele>
        <time>2021-08-28T08:14:01Z</time>
      </trkpt>
      <trkpt lat="44.53919" lon="2.80318">
        <ele>600</ele>
        <time>2021-08-28T08:14:04Z</time>
      </trkpt>
      <trkpt lat="44.53916" lon="2.80325">
        <ele>599</ele>
        <time>2021-08-28T08:14:07Z</time>
      </trkpt>
      <trkpt lat="44.53906" lon="2.80352">
        <ele>597</ele>
        <time>2021-08-28T08:14:16Z</time>
      </trkpt>
      <trkpt lat="44.53878" lon="2.80426">
        <ele>591</ele>
        <time>2021-08-28T08:14:33Z</time>
      </trkpt>
      <trkpt lat="44.53875" lon="2.80437">
        <ele>591</ele>
        <time>2021-08-28T08:14:35Z</time>
      </trkpt>
      <trkpt lat="44.53873" lon="2.80455">
        <ele>589</ele>
        <time>2021-08-28T08:14:38Z</time>
      </trkpt>
      <trkpt lat="44.53882" lon="2.80483">
        <ele>587</ele>
        <time>2021-08-28T08:14:43Z</time>
      </trkpt>
      <trkpt lat="44.53905" lon="2.80511">
        <ele>584</ele>
        <time>2021-08-28T08:14:48Z</time>
      </trkpt>
      <trkpt lat="44.53927" lon="2.80529">
        <ele>582</ele>
        <time>2021-08-28T08:14:52Z</time>
      </trkpt>
      <trkpt lat="44.53938" lon="2.80535">
        <ele>581</ele>
        <time>2021-08-28T08:14:54Z</time>
      </trkpt>
      <trkpt lat="44.53943" lon="2.80539">
        <ele>580</ele>
        <time>2021-08-28T08:14:55Z</time>
      </trkpt>
      <trkpt lat="44.53948" lon="2.80549">
        <ele>579</ele>
        <time>2021-08-28T08:14:57Z</time>
      </trkpt>
      <trkpt lat="44.53946" lon="2.80562">
        <ele>579</ele>
        <time>2021-08-28T08:14:59Z</time>
      </trkpt>
      <trkpt lat="44.53943" lon="2.80568">
        <ele>579</ele>
        <time>2021-08-28T08:15:00Z</time>
      </trkpt>
      <trkpt lat="44.53727" lon="2.80622">
        <ele>564</ele>
        <time>2021-08-28T08:15:30Z</time>
      </trkpt>
      <trkpt lat="44.53639" lon="2.80645">
        <ele>557</ele>
        <time>2021-08-28T08:15:41Z</time>
      </trkpt>
      <trkpt lat="44.53633" lon="2.8065">
        <ele>557</ele>
        <time>2021-08-28T08:15:42Z</time>
      </trkpt>
      <trkpt lat="44.53616" lon="2.80677">
        <ele>555</ele>
        <time>2021-08-28T08:15:46Z</time>
      </trkpt>
      <trkpt lat="44.53607" lon="2.80678">
        <ele>555</ele>
        <time>2021-08-28T08:15:48Z</time>
      </trkpt>
      <trkpt lat="44.53603" lon="2.80674">
        <ele>554</ele>
        <time>2021-08-28T08:15:49Z</time>
      </trkpt>
      <trkpt lat="44.536" lon="2.80668">
        <ele>554</ele>
        <time>2021-08-28T08:15:50Z</time>
      </trkpt>
      <trkpt lat="44.53599" lon="2.80662">
        <ele>553</ele>
        <time>2021-08-28T08:15:51Z</time>
      </trkpt>
      <trkpt lat="44.53602" lon="2.80654">
        <ele>553</ele>
        <time>2021-08-28T08:15:52Z</time>
      </trkpt>
      <trkpt lat="44.53623" lon="2.80628">
        <ele>549</ele>
        <time>2021-08-28T08:15:56Z</time>
      </trkpt>
      <trkpt lat="44.537" lon="2.80558">
        <ele>540</ele>
        <time>2021-08-28T08:16:09Z</time>
      </trkpt>
      <trkpt lat="44.53705" lon="2.80553">
        <ele>539</ele>
        <time>2021-08-28T08:16:10Z</time>
      </trkpt>
      <trkpt lat="44.53708" lon="2.80546">
        <ele>539</ele>
        <time>2021-08-28T08:16:11Z</time>
      </trkpt>
      <trkpt lat="44.53709" lon="2.80537">
        <ele>539</ele>
        <time>2021-08-28T08:16:12Z</time>
      </trkpt>
      <trkpt lat="44.53709" lon="2.80531">
        <ele>538</ele>
        <time>2021-08-28T08:16:13Z</time>
      </trkpt>
      <trkpt lat="44.53702" lon="2.80522">
        <ele>538</ele>
        <time>2021-08-28T08:16:15Z</time>
      </trkpt>
      <trkpt lat="44.53555" lon="2.80524">
        <ele>525</ele>
        <time>2021-08-28T08:16:36Z</time>
      </trkpt>
      <trkpt lat="44.53481" lon="2.80542">
        <ele>519</ele>
        <time>2021-08-28T08:16:46Z</time>
      </trkpt>
      <trkpt lat="44.53468" lon="2.80542">
        <ele>519</ele>
        <time>2021-08-28T08:16:48Z</time>
      </trkpt>
      <trkpt lat="44.53457" lon="2.80539">
        <ele>519</ele>
        <time>2021-08-28T08:16:50Z</time>
      </trkpt>
      <trkpt lat="44.5344" lon="2.80527">
        <ele>517</ele>
        <time>2021-08-28T08:16:53Z</time>
      </trkpt>
      <trkpt lat="44.53422" lon="2.80496">
        <ele>513</ele>
        <time>2021-08-28T08:16:57Z</time>
      </trkpt>
      <trkpt lat="44.53417" lon="2.80479">
        <ele>511</ele>
        <time>2021-08-28T08:16:59Z</time>
      </trkpt>
      <trkpt lat="44.53407" lon="2.80408">
        <ele>508</ele>
        <time>2021-08-28T08:17:06Z</time>
      </trkpt>
      <trkpt lat="44.53406" lon="2.80375">
        <ele>506</ele>
        <time>2021-08-28T08:17:09Z</time>
      </trkpt>
      <trkpt lat="44.53418" lon="2.80283">
        <ele>501</ele>
        <time>2021-08-28T08:17:18Z</time>
      </trkpt>
      <trkpt lat="44.53419" lon="2.80275">
        <ele>499</ele>
        <time>2021-08-28T08:17:19Z</time>
      </trkpt>
      <trkpt lat="44.53418" lon="2.80267">
        <ele>499</ele>
        <time>2021-08-28T08:17:20Z</time>
      </trkpt>
      <trkpt lat="44.53416" lon="2.8026">
        <ele>498</ele>
        <time>2021-08-28T08:17:21Z</time>
      </trkpt>
      <trkpt lat="44.53407" lon="2.80246">
        <ele>497</ele>
        <time>2021-08-28T08:17:23Z</time>
      </trkpt>
      <trkpt lat="44.53356" lon="2.80195">
        <ele>492</ele>
        <time>2021-08-28T08:17:34Z</time>
      </trkpt>
      <trkpt lat="44.5335" lon="2.80184">
        <ele>491</ele>
        <time>2021-08-28T08:17:36Z</time>
      </trkpt>
      <trkpt lat="44.53338" lon="2.80139">
        <ele>489</ele>
        <time>2021-08-28T08:17:42Z</time>
      </trkpt>
      <trkpt lat="44.53313" lon="2.80099">
        <ele>486</ele>
        <time>2021-08-28T08:17:49Z</time>
      </trkpt>
      <trkpt lat="44.53286" lon="2.80067">
        <ele>484</ele>
        <time>2021-08-28T08:17:55Z</time>
      </trkpt>
      <trkpt lat="44.53256" lon="2.80043">
        <ele>482</ele>
        <time>2021-08-28T08:18:01Z</time>
      </trkpt>
      <trkpt lat="44.53227" lon="2.80028">
        <ele>482</ele>
        <time>2021-08-28T08:18:07Z</time>
      </trkpt>
      <trkpt lat="44.53206" lon="2.80025">
        <ele>483</ele>
        <time>2021-08-28T08:18:11Z</time>
      </trkpt>
      <trkpt lat="44.53184" lon="2.80031">
        <ele>483</ele>
        <time>2021-08-28T08:18:16Z</time>
      </trkpt>
      <trkpt lat="44.53179" lon="2.80033">
        <ele>483</ele>
        <time>2021-08-28T08:18:18Z</time>
      </trkpt>
      <trkpt lat="44.53175" lon="2.80034">
        <ele>484</ele>
        <time>2021-08-28T08:18:21Z</time>
      </trkpt>
      <trkpt lat="44.53169" lon="2.80037">
        <ele>484</ele>
        <time>2021-08-28T08:18:25Z</time>
      </trkpt>
      <trkpt lat="44.53165" lon="2.80043">
        <ele>484</ele>
        <time>2021-08-28T08:19:27Z</time>
      </trkpt>
      <trkpt lat="44.53099" lon="2.80106">
        <ele>482</ele>
        <time>2021-08-28T08:19:45Z</time>
      </trkpt>
      <trkpt lat="44.53088" lon="2.80111">
        <ele>481</ele>
        <time>2021-08-28T08:19:47Z</time>
      </trkpt>
      <trkpt lat="44.53075" lon="2.8011">
        <ele>480</ele>
        <time>2021-08-28T08:19:49Z</time>
      </trkpt>
      <trkpt lat="44.53049" lon="2.80098">
        <ele>479</ele>
        <time>2021-08-28T08:19:53Z</time>
      </trkpt>
      <trkpt lat="44.53038" lon="2.80089">
        <ele>479</ele>
        <time>2021-08-28T08:19:55Z</time>
      </trkpt>
      <trkpt lat="44.53029" lon="2.80075">
        <ele>479</ele>
        <time>2021-08-28T08:19:57Z</time>
      </trkpt>
      <trkpt lat="44.53014" lon="2.80044">
        <ele>479</ele>
        <time>2021-08-28T08:20:02Z</time>
      </trkpt>
      <trkpt lat="44.53004" lon="2.80031">
        <ele>480</ele>
        <time>2021-08-28T08:20:05Z</time>
      </trkpt>
      <trkpt lat="44.53001" lon="2.80027">
        <ele>480</ele>
        <time>2021-08-28T08:20:06Z</time>
      </trkpt>
      <trkpt lat="44.52909" lon="2.7998">
        <ele>480</ele>
        <time>2021-08-28T08:20:28Z</time>
      </trkpt>
      <trkpt lat="44.52892" lon="2.79966">
        <ele>479</ele>
        <time>2021-08-28T08:20:32Z</time>
      </trkpt>
      <trkpt lat="44.5288" lon="2.79948">
        <ele>479</ele>
        <time>2021-08-28T08:20:36Z</time>
      </trkpt>
      <trkpt lat="44.52786" lon="2.79886">
        <ele>470</ele>
        <time>2021-08-28T08:20:53Z</time>
      </trkpt>
      <trkpt lat="44.52773" lon="2.79866">
        <ele>469</ele>
        <time>2021-08-28T08:20:56Z</time>
      </trkpt>
      <trkpt lat="44.52764" lon="2.79843">
        <ele>467</ele>
        <time>2021-08-28T08:20:59Z</time>
      </trkpt>
      <trkpt lat="44.52761" lon="2.79836">
        <ele>466</ele>
        <time>2021-08-28T08:21:00Z</time>
      </trkpt>
      <trkpt lat="44.52756" lon="2.79831">
        <ele>465</ele>
        <time>2021-08-28T08:21:01Z</time>
      </trkpt>
      <trkpt lat="44.52751" lon="2.79829">
        <ele>464</ele>
        <time>2021-08-28T08:21:02Z</time>
      </trkpt>
      <trkpt lat="44.52737" lon="2.79827">
        <ele>463</ele>
        <time>2021-08-28T08:21:04Z</time>
      </trkpt>
      <trkpt lat="44.52717" lon="2.79836">
        <ele>463</ele>
        <time>2021-08-28T08:21:09Z</time>
      </trkpt>
      <trkpt lat="44.52709" lon="2.79836">
        <ele>463</ele>
        <time>2021-08-28T08:21:11Z</time>
      </trkpt>
      <trkpt lat="44.52657" lon="2.79807">
        <ele>458</ele>
        <time>2021-08-28T08:21:22Z</time>
      </trkpt>
      <trkpt lat="44.52573" lon="2.79743">
        <ele>451</ele>
        <time>2021-08-28T08:21:34Z</time>
      </trkpt>
      <trkpt lat="44.52559" lon="2.7974">
        <ele>451</ele>
        <time>2021-08-28T08:21:36Z</time>
      </trkpt>
      <trkpt lat="44.52519" lon="2.79745">
        <ele>450</ele>
        <time>2021-08-28T08:21:42Z</time>
      </trkpt>
      <trkpt lat="44.52507" lon="2.79742">
        <ele>449</ele>
        <time>2021-08-28T08:21:44Z</time>
      </trkpt>
      <trkpt lat="44.52496" lon="2.79735">
        <ele>449</ele>
        <time>2021-08-28T08:21:46Z</time>
      </trkpt>
      <trkpt lat="44.52422" lon="2.79663">
        <ele>440</ele>
        <time>2021-08-28T08:21:59Z</time>
      </trkpt>
      <trkpt lat="44.52415" lon="2.79658">
        <ele>440</ele>
        <time>2021-08-28T08:22:00Z</time>
      </trkpt>
      <trkpt lat="44.52392" lon="2.79654">
        <ele>441</ele>
        <time>2021-08-28T08:22:03Z</time>
      </trkpt>
      <trkpt lat="44.52372" lon="2.79658">
        <ele>441</ele>
        <time>2021-08-28T08:22:06Z</time>
      </trkpt>
      <trkpt lat="44.52353" lon="2.79654">
        <ele>439</ele>
        <time>2021-08-28T08:22:09Z</time>
      </trkpt>
      <trkpt lat="44.52347" lon="2.79651">
        <ele>438</ele>
        <time>2021-08-28T08:22:10Z</time>
      </trkpt>
      <trkpt lat="44.52332" lon="2.79635">
        <ele>436</ele>
        <time>2021-08-28T08:22:13Z</time>
      </trkpt>
      <trkpt lat="44.52284" lon="2.79527">
        <ele>427</ele>
        <time>2021-08-28T08:22:26Z</time>
      </trkpt>
      <trkpt lat="44.52264" lon="2.79478">
        <ele>423</ele>
        <time>2021-08-28T08:22:31Z</time>
      </trkpt>
      <trkpt lat="44.52253" lon="2.79461">
        <ele>422</ele>
        <time>2021-08-28T08:22:33Z</time>
      </trkpt>
      <trkpt lat="44.52219" lon="2.79431">
        <ele>420</ele>
        <time>2021-08-28T08:22:38Z</time>
      </trkpt>
      <trkpt lat="44.52206" lon="2.79422">
        <ele>420</ele>
        <time>2021-08-28T08:22:40Z</time>
      </trkpt>
      <trkpt lat="44.52193" lon="2.7942">
        <ele>421</ele>
        <time>2021-08-28T08:22:42Z</time>
      </trkpt>
      <trkpt lat="44.52144" lon="2.79436">
        <ele>420</ele>
        <time>2021-08-28T08:22:50Z</time>
      </trkpt>
      <trkpt lat="44.52139" lon="2.79439">
        <ele>420</ele>
        <time>2021-08-28T08:22:51Z</time>
      </trkpt>
      <trkpt lat="44.52115" lon="2.79445">
        <ele>418</ele>
        <time>2021-08-28T08:22:55Z</time>
      </trkpt>
      <trkpt lat="44.52102" lon="2.79445">
        <ele>418</ele>
        <time>2021-08-28T08:22:57Z</time>
      </trkpt>
      <trkpt lat="44.52013" lon="2.79386">
        <ele>411</ele>
        <time>2021-08-28T08:23:10Z</time>
      </trkpt>
      <trkpt lat="44.52008" lon="2.79381">
        <ele>410</ele>
        <time>2021-08-28T08:23:11Z</time>
      </trkpt>
      <trkpt lat="44.52" lon="2.79368">
        <ele>408</ele>
        <time>2021-08-28T08:23:13Z</time>
      </trkpt>
      <trkpt lat="44.51998" lon="2.79361">
        <ele>408</ele>
        <time>2021-08-28T08:23:14Z</time>
      </trkpt>
      <trkpt lat="44.51996" lon="2.79329">
        <ele>407</ele>
        <time>2021-08-28T08:23:18Z</time>
      </trkpt>
      <trkpt lat="44.51994" lon="2.79323">
        <ele>407</ele>
        <time>2021-08-28T08:23:19Z</time>
      </trkpt>
      <trkpt lat="44.5199" lon="2.79318">
        <ele>407</ele>
        <time>2021-08-28T08:23:21Z</time>
      </trkpt>
      <trkpt lat="44.51979" lon="2.79319">
        <ele>407</ele>
        <time>2021-08-28T08:23:26Z</time>
      </trkpt>
      <trkpt lat="44.51975" lon="2.79325">
        <ele>407</ele>
        <time>2021-08-28T08:23:29Z</time>
      </trkpt>
      <trkpt lat="44.51974" lon="2.79332">
        <ele>410</ele>
        <time>2021-08-28T08:24:17Z</time>
      </trkpt>
      <trkpt lat="44.51973" lon="2.79346">
        <ele>409</ele>
        <time>2021-08-28T08:24:21Z</time>
      </trkpt>
      <trkpt lat="44.51973" lon="2.79355">
        <ele>409</ele>
        <time>2021-08-28T08:24:23Z</time>
      </trkpt>
      <trkpt lat="44.51978" lon="2.79372">
        <ele>408</ele>
        <time>2021-08-28T08:24:27Z</time>
      </trkpt>
      <trkpt lat="44.51982" lon="2.7938">
        <ele>405</ele>
        <time>2021-08-28T08:24:29Z</time>
      </trkpt>
      <trkpt lat="44.51996" lon="2.79409">
        <ele>399</ele>
        <time>2021-08-28T08:24:34Z</time>
      </trkpt>
      <trkpt lat="44.52013" lon="2.79438">
        <ele>393</ele>
        <time>2021-08-28T08:24:39Z</time>
      </trkpt>
      <trkpt lat="44.52017" lon="2.79443">
        <ele>392</ele>
        <time>2021-08-28T08:24:40Z</time>
      </trkpt>
      <trkpt lat="44.52026" lon="2.79462">
        <ele>387</ele>
        <time>2021-08-28T08:24:43Z</time>
      </trkpt>
      <trkpt lat="44.5204" lon="2.79489">
        <ele>380</ele>
        <time>2021-08-28T08:24:47Z</time>
      </trkpt>
      <trkpt lat="44.52065" lon="2.79516">
        <ele>375</ele>
        <time>2021-08-28T08:24:51Z</time>
      </trkpt>
      <trkpt lat="44.52134" lon="2.79562">
        <ele>369</ele>
        <time>2021-08-28T08:25:01Z</time>
      </trkpt>
      <trkpt lat="44.52155" lon="2.79586">
        <ele>371</ele>
        <time>2021-08-28T08:25:04Z</time>
      </trkpt>
      <trkpt lat="44.52172" lon="2.79613">
        <ele>371</ele>
        <time>2021-08-28T08:25:07Z</time>
      </trkpt>
      <trkpt lat="44.52207" lon="2.79754">
        <ele>368</ele>
        <time>2021-08-28T08:25:20Z</time>
      </trkpt>
      <trkpt lat="44.52217" lon="2.79854">
        <ele>363</ele>
        <time>2021-08-28T08:25:29Z</time>
      </trkpt>
      <trkpt lat="44.52228" lon="2.79896">
        <ele>361</ele>
        <time>2021-08-28T08:25:33Z</time>
      </trkpt>
      <trkpt lat="44.52233" lon="2.79944">
        <ele>359</ele>
        <time>2021-08-28T08:25:37Z</time>
      </trkpt>
      <trkpt lat="44.52232" lon="2.79966">
        <ele>359</ele>
        <time>2021-08-28T08:25:39Z</time>
      </trkpt>
      <trkpt lat="44.52228" lon="2.79987">
        <ele>359</ele>
        <time>2021-08-28T08:25:41Z</time>
      </trkpt>
      <trkpt lat="44.52224" lon="2.79994">
        <ele>359</ele>
        <time>2021-08-28T08:25:42Z</time>
      </trkpt>
      <trkpt lat="44.52214" lon="2.8">
        <ele>359</ele>
        <time>2021-08-28T08:25:44Z</time>
      </trkpt>
      <trkpt lat="44.52114" lon="2.80007">
        <ele>369</ele>
        <time>2021-08-28T08:26:16Z</time>
      </trkpt>
      <trkpt lat="44.52088" lon="2.8001">
        <ele>371</ele>
        <time>2021-08-28T08:26:24Z</time>
      </trkpt>
      <trkpt lat="44.52043" lon="2.80004">
        <ele>371</ele>
        <time>2021-08-28T08:26:32Z</time>
      </trkpt>
      <trkpt lat="44.51989" lon="2.79981">
        <ele>370</ele>
        <time>2021-08-28T08:26:42Z</time>
      </trkpt>
      <trkpt lat="44.51977" lon="2.79982">
        <ele>370</ele>
        <time>2021-08-28T08:26:45Z</time>
      </trkpt>
      <trkpt lat="44.51962" lon="2.79985">
        <ele>370</ele>
        <time>2021-08-28T08:26:49Z</time>
      </trkpt>
      <trkpt lat="44.51955" lon="2.79985">
        <ele>370</ele>
        <time>2021-08-28T08:26:51Z</time>
      </trkpt>
      <trkpt lat="44.51836" lon="2.79907">
        <ele>368</ele>
        <time>2021-08-28T08:27:16Z</time>
      </trkpt>
      <trkpt lat="44.5166" lon="2.79812">
        <ele>364</ele>
        <time>2021-08-28T08:27:46Z</time>
      </trkpt>
      <trkpt lat="44.51616" lon="2.79808">
        <ele>362</ele>
        <time>2021-08-28T08:27:58Z</time>
      </trkpt>
      <trkpt lat="44.51612" lon="2.79804">
        <ele>361</ele>
        <time>2021-08-28T08:29:00Z</time>
      </trkpt>
      <trkpt lat="44.51608" lon="2.79809">
        <ele>361</ele>
        <time>2021-08-28T08:29:08Z</time>
      </trkpt>
      <trkpt lat="44.51604" lon="2.79813">
        <ele>360</ele>
        <time>2021-08-28T08:31:23Z</time>
      </trkpt>
      <trkpt lat="44.516" lon="2.79817">
        <ele>360</ele>
        <time>2021-08-28T08:31:26Z</time>
      </trkpt>
      <trkpt lat="44.51603" lon="2.79949">
        <ele>359</ele>
        <time>2021-08-28T08:31:52Z</time>
      </trkpt>
      <trkpt lat="44.5157" lon="2.80142">
        <ele>358</ele>
        <time>2021-08-28T08:32:22Z</time>
      </trkpt>
      <trkpt lat="44.51561" lon="2.80216">
        <ele>358</ele>
        <time>2021-08-28T08:32:33Z</time>
      </trkpt>
      <trkpt lat="44.51561" lon="2.80293">
        <ele>357</ele>
        <time>2021-08-28T08:32:44Z</time>
      </trkpt>
      <trkpt lat="44.5157" lon="2.80347">
        <ele>357</ele>
        <time>2021-08-28T08:32:52Z</time>
      </trkpt>
      <trkpt lat="44.51641" lon="2.80542">
        <ele>359</ele>
        <time>2021-08-28T08:33:22Z</time>
      </trkpt>
      <trkpt lat="44.51664" lon="2.80634">
        <ele>360</ele>
        <time>2021-08-28T08:33:36Z</time>
      </trkpt>
      <trkpt lat="44.51671" lon="2.80725">
        <ele>360</ele>
        <time>2021-08-28T08:33:49Z</time>
      </trkpt>
      <trkpt lat="44.51665" lon="2.80829">
        <ele>361</ele>
        <time>2021-08-28T08:34:04Z</time>
      </trkpt>
      <trkpt lat="44.51632" lon="2.81036">
        <ele>364</ele>
        <time>2021-08-28T08:34:35Z</time>
      </trkpt>
      <trkpt lat="44.51601" lon="2.81227">
        <ele>364</ele>
        <time>2021-08-28T08:35:05Z</time>
      </trkpt>
      <trkpt lat="44.51571" lon="2.81388">
        <ele>360</ele>
        <time>2021-08-28T08:35:32Z</time>
      </trkpt>
      <trkpt lat="44.51569" lon="2.81396">
        <ele>358</ele>
        <time>2021-08-28T08:35:34Z</time>
      </trkpt>
      <trkpt lat="44.51568" lon="2.81403">
        <ele>358</ele>
        <time>2021-08-28T08:35:36Z</time>
      </trkpt>
      <trkpt lat="44.51566" lon="2.81408">
        <ele>357</ele>
        <time>2021-08-28T08:35:40Z</time>
      </trkpt>
      <trkpt lat="44.51561" lon="2.81411">
        <ele>356</ele>
        <time>2021-08-28T08:35:45Z</time>
      </trkpt>
      <trkpt lat="44.51559" lon="2.81418">
        <ele>357</ele>
        <time>2021-08-28T08:36:32Z</time>
      </trkpt>
      <trkpt lat="44.51546" lon="2.81421">
        <ele>361</ele>
        <time>2021-08-28T08:36:40Z</time>
      </trkpt>
      <trkpt lat="44.51539" lon="2.8142">
        <ele>364</ele>
        <time>2021-08-28T08:36:44Z</time>
      </trkpt>
      <trkpt lat="44.51523" lon="2.81414">
        <ele>368</ele>
        <time>2021-08-28T08:36:52Z</time>
      </trkpt>
      <trkpt lat="44.51518" lon="2.81412">
        <ele>368</ele>
        <time>2021-08-28T08:36:54Z</time>
      </trkpt>
      <trkpt lat="44.51513" lon="2.81411">
        <ele>369</ele>
        <time>2021-08-28T08:36:57Z</time>
      </trkpt>
      <trkpt lat="44.51508" lon="2.81413">
        <ele>370</ele>
        <time>2021-08-28T08:37:05Z</time>
      </trkpt>
      <trkpt lat="44.51504" lon="2.81419">
        <ele>369</ele>
        <time>2021-08-28T08:37:08Z</time>
      </trkpt>
      <trkpt lat="44.51511" lon="2.81421">
        <ele>370</ele>
        <time>2021-08-28T08:37:14Z</time>
      </trkpt>
      <trkpt lat="44.51514" lon="2.81446">
        <ele>368</ele>
        <time>2021-08-28T08:37:46Z</time>
      </trkpt>
      <trkpt lat="44.51513" lon="2.8146">
        <ele>368</ele>
        <time>2021-08-28T08:37:55Z</time>
      </trkpt>
      <trkpt lat="44.51512" lon="2.81469">
        <ele>367</ele>
        <time>2021-08-28T08:38:05Z</time>
      </trkpt>
      <trkpt lat="44.51512" lon="2.81476">
        <ele>369</ele>
        <time>2021-08-28T08:38:15Z</time>
      </trkpt>
      <trkpt lat="44.51516" lon="2.81481">
        <ele>370</ele>
        <time>2021-08-28T08:38:24Z</time>
      </trkpt>
      <trkpt lat="44.51517" lon="2.81487">
        <ele>372</ele>
        <time>2021-08-28T08:38:30Z</time>
      </trkpt>
      <trkpt lat="44.51519" lon="2.81494">
        <ele>372</ele>
        <time>2021-08-28T08:38:34Z</time>
      </trkpt>
      <trkpt lat="44.51519" lon="2.81503">
        <ele>372</ele>
        <time>2021-08-28T08:39:30Z</time>
      </trkpt>
      <trkpt lat="44.51516" lon="2.81499">
        <ele>375</ele>
        <time>2021-08-28T08:44:07Z</time>
      </trkpt>
      <trkpt lat="44.51514" lon="2.81493">
        <ele>375</ele>
        <time>2021-08-28T08:44:12Z</time>
      </trkpt>
      <trkpt lat="44.5151" lon="2.81491">
        <ele>375</ele>
        <time>2021-08-28T08:44:25Z</time>
      </trkpt>
      <trkpt lat="44.515" lon="2.81494">
        <ele>376</ele>
        <time>2021-08-28T08:44:42Z</time>
      </trkpt>
      <trkpt lat="44.51495" lon="2.81497">
        <ele>375</ele>
        <time>2021-08-28T08:44:47Z</time>
      </trkpt>
      <trkpt lat="44.51493" lon="2.81506">
        <ele>372</ele>
        <time>2021-08-28T08:44:54Z</time>
      </trkpt>
      <trkpt lat="44.51488" lon="2.81506">
        <ele>370</ele>
        <time>2021-08-28T08:45:28Z</time>
      </trkpt>
      <trkpt lat="44.51483" lon="2.81503">
        <ele>369</ele>
        <time>2021-08-28T08:45:36Z</time>
      </trkpt>
      <trkpt lat="44.51479" lon="2.81506">
        <ele>369</ele>
        <time>2021-08-28T08:45:45Z</time>
      </trkpt>
      <trkpt lat="44.51472" lon="2.81508">
        <ele>366</ele>
        <time>2021-08-28T08:45:53Z</time>
      </trkpt>
      <trkpt lat="44.51466" lon="2.81507">
        <ele>364</ele>
        <time>2021-08-28T08:46:00Z</time>
      </trkpt>
      <trkpt lat="44.51464" lon="2.81513">
        <ele>364</ele>
        <time>2021-08-28T08:46:20Z</time>
      </trkpt>
      <trkpt lat="44.51459" lon="2.81514">
        <ele>368</ele>
        <time>2021-08-28T08:46:31Z</time>
      </trkpt>
      <trkpt lat="44.51456" lon="2.8151">
        <ele>370</ele>
        <time>2021-08-28T08:47:16Z</time>
      </trkpt>
      <trkpt lat="44.51453" lon="2.81522">
        <ele>370</ele>
        <time>2021-08-28T08:47:53Z</time>
      </trkpt>
      <trkpt lat="44.51452" lon="2.81537">
        <ele>372</ele>
        <time>2021-08-28T08:47:59Z</time>
      </trkpt>
      <trkpt lat="44.51435" lon="2.81565">
        <ele>373</ele>
        <time>2021-08-28T08:48:11Z</time>
      </trkpt>
      <trkpt lat="44.5143" lon="2.81571">
        <ele>372</ele>
        <time>2021-08-28T08:48:13Z</time>
      </trkpt>
      <trkpt lat="44.51418" lon="2.81596">
        <ele>370</ele>
        <time>2021-08-28T08:48:20Z</time>
      </trkpt>
      <trkpt lat="44.51413" lon="2.81612">
        <ele>367</ele>
        <time>2021-08-28T08:48:24Z</time>
      </trkpt>
      <trkpt lat="44.51408" lon="2.81639">
        <ele>364</ele>
        <time>2021-08-28T08:48:32Z</time>
      </trkpt>
      <trkpt lat="44.51403" lon="2.81651">
        <ele>363</ele>
        <time>2021-08-28T08:48:37Z</time>
      </trkpt>
      <trkpt lat="44.51392" lon="2.81653">
        <ele>362</ele>
        <time>2021-08-28T08:48:41Z</time>
      </trkpt>
      <trkpt lat="44.51379" lon="2.81658">
        <ele>361</ele>
        <time>2021-08-28T08:48:48Z</time>
      </trkpt>
      <trkpt lat="44.51368" lon="2.81663">
        <ele>361</ele>
        <time>2021-08-28T08:48:51Z</time>
      </trkpt>
      <trkpt lat="44.51358" lon="2.81663">
        <ele>361</ele>
        <time>2021-08-28T08:48:53Z</time>
      </trkpt>
      <trkpt lat="44.51222" lon="2.81613">
        <ele>353</ele>
        <time>2021-08-28T08:49:24Z</time>
      </trkpt>
      <trkpt lat="44.51213" lon="2.81609">
        <ele>352</ele>
        <time>2021-08-28T08:49:27Z</time>
      </trkpt>
      <trkpt lat="44.51215" lon="2.81605">
        <ele>351</ele>
        <time>2021-08-28T08:50:42Z</time>
      </trkpt>
      <trkpt lat="44.51215" lon="2.81607">
        <ele>348</ele>
        <time>2021-08-28T08:52:39Z</time>
      </trkpt>
      <trkpt lat="44.51217" lon="2.816">
        <ele>347</ele>
        <time>2021-08-28T08:53:12Z</time>
      </trkpt>
      <trkpt lat="44.5121" lon="2.81572">
        <ele>344</ele>
        <time>2021-08-28T08:53:21Z</time>
      </trkpt>
      <trkpt lat="44.51178" lon="2.81443">
        <ele>342</ele>
        <time>2021-08-28T08:53:51Z</time>
      </trkpt>
      <trkpt lat="44.51141" lon="2.81321">
        <ele>338</ele>
        <time>2021-08-28T08:54:17Z</time>
      </trkpt>
      <trkpt lat="44.5114" lon="2.81315">
        <ele>338</ele>
        <time>2021-08-28T08:54:58Z</time>
      </trkpt>
      <trkpt lat="44.51096" lon="2.81185">
        <ele>337</ele>
        <time>2021-08-28T08:55:28Z</time>
      </trkpt>
      <trkpt lat="44.51065" lon="2.81101">
        <ele>336</ele>
        <time>2021-08-28T08:55:48Z</time>
      </trkpt>
      <trkpt lat="44.51057" lon="2.81073">
        <ele>334</ele>
        <time>2021-08-28T08:55:56Z</time>
      </trkpt>
      <trkpt lat="44.51033" lon="2.80991">
        <ele>330</ele>
        <time>2021-08-28T08:56:11Z</time>
      </trkpt>
      <trkpt lat="44.51019" lon="2.80968">
        <ele>330</ele>
        <time>2021-08-28T08:56:15Z</time>
      </trkpt>
      <trkpt lat="44.50913" lon="2.80866">
        <ele>336</ele>
        <time>2021-08-28T08:56:46Z</time>
      </trkpt>
      <trkpt lat="44.50878" lon="2.80836">
        <ele>336</ele>
        <time>2021-08-28T08:56:58Z</time>
      </trkpt>
      <trkpt lat="44.50836" lon="2.80782">
        <ele>337</ele>
        <time>2021-08-28T08:57:14Z</time>
      </trkpt>
      <trkpt lat="44.50818" lon="2.80742">
        <ele>336</ele>
        <time>2021-08-28T08:57:24Z</time>
      </trkpt>
      <trkpt lat="44.50814" lon="2.80733">
        <ele>336</ele>
        <time>2021-08-28T08:57:26Z</time>
      </trkpt>
      <trkpt lat="44.50791" lon="2.80685">
        <ele>333</ele>
        <time>2021-08-28T08:57:35Z</time>
      </trkpt>
      <trkpt lat="44.5077" lon="2.80639">
        <ele>330</ele>
        <time>2021-08-28T08:57:45Z</time>
      </trkpt>
      <trkpt lat="44.50768" lon="2.80633">
        <ele>331</ele>
        <time>2021-08-28T08:57:47Z</time>
      </trkpt>
      <trkpt lat="44.5076" lon="2.80618">
        <ele>330</ele>
        <time>2021-08-28T08:57:51Z</time>
      </trkpt>
      <trkpt lat="44.50759" lon="2.80609">
        <ele>330</ele>
        <time>2021-08-28T08:57:53Z</time>
      </trkpt>
      <trkpt lat="44.50757" lon="2.80601">
        <ele>329</ele>
        <time>2021-08-28T08:57:55Z</time>
      </trkpt>
      <trkpt lat="44.50756" lon="2.80594">
        <ele>327</ele>
        <time>2021-08-28T08:57:57Z</time>
      </trkpt>
      <trkpt lat="44.50746" lon="2.80555">
        <ele>323</ele>
        <time>2021-08-28T08:58:05Z</time>
      </trkpt>
      <trkpt lat="44.50736" lon="2.80502">
        <ele>324</ele>
        <time>2021-08-28T08:58:15Z</time>
      </trkpt>
      <trkpt lat="44.50734" lon="2.8049">
        <ele>324</ele>
        <time>2021-08-28T08:58:17Z</time>
      </trkpt>
      <trkpt lat="44.50734" lon="2.80463">
        <ele>323</ele>
        <time>2021-08-28T08:58:21Z</time>
      </trkpt>
      <trkpt lat="44.50734" lon="2.80409">
        <ele>318</ele>
        <time>2021-08-28T08:58:28Z</time>
      </trkpt>
      <trkpt lat="44.50733" lon="2.80393">
        <ele>317</ele>
        <time>2021-08-28T08:58:30Z</time>
      </trkpt>
      <trkpt lat="44.50725" lon="2.80358">
        <ele>322</ele>
        <time>2021-08-28T08:58:34Z</time>
      </trkpt>
      <trkpt lat="44.50691" lon="2.80294">
        <ele>332</ele>
        <time>2021-08-28T08:58:47Z</time>
      </trkpt>
      <trkpt lat="44.50686" lon="2.80288">
        <ele>332</ele>
        <time>2021-08-28T08:58:49Z</time>
      </trkpt>
      <trkpt lat="44.50679" lon="2.80273">
        <ele>333</ele>
        <time>2021-08-28T08:58:53Z</time>
      </trkpt>
      <trkpt lat="44.50676" lon="2.80262">
        <ele>334</ele>
        <time>2021-08-28T08:58:56Z</time>
      </trkpt>
      <trkpt lat="44.50678" lon="2.80219">
        <ele>340</ele>
        <time>2021-08-28T08:59:06Z</time>
      </trkpt>
      <trkpt lat="44.50701" lon="2.80173">
        <ele>346</ele>
        <time>2021-08-28T08:59:18Z</time>
      </trkpt>
      <trkpt lat="44.50709" lon="2.80135">
        <ele>346</ele>
        <time>2021-08-28T08:59:26Z</time>
      </trkpt>
      <trkpt lat="44.50714" lon="2.80088">
        <ele>341</ele>
        <time>2021-08-28T08:59:36Z</time>
      </trkpt>
      <trkpt lat="44.50714" lon="2.80061">
        <ele>338</ele>
        <time>2021-08-28T08:59:42Z</time>
      </trkpt>
      <trkpt lat="44.50712" lon="2.79978">
        <ele>339</ele>
        <time>2021-08-28T08:59:56Z</time>
      </trkpt>
      <trkpt lat="44.50713" lon="2.79854">
        <ele>343</ele>
        <time>2021-08-28T09:00:20Z</time>
      </trkpt>
      <trkpt lat="44.50737" lon="2.79738">
        <ele>340</ele>
        <time>2021-08-28T09:00:46Z</time>
      </trkpt>
      <trkpt lat="44.50737" lon="2.79729">
        <ele>340</ele>
        <time>2021-08-28T09:00:48Z</time>
      </trkpt>
      <trkpt lat="44.50737" lon="2.7972">
        <ele>338</ele>
        <time>2021-08-28T09:00:50Z</time>
      </trkpt>
      <trkpt lat="44.50744" lon="2.7969">
        <ele>335</ele>
        <time>2021-08-28T09:00:56Z</time>
      </trkpt>
      <trkpt lat="44.50758" lon="2.79659">
        <ele>332</ele>
        <time>2021-08-28T09:01:02Z</time>
      </trkpt>
      <trkpt lat="44.50761" lon="2.79651">
        <ele>331</ele>
        <time>2021-08-28T09:01:04Z</time>
      </trkpt>
      <trkpt lat="44.5077" lon="2.79633">
        <ele>331</ele>
        <time>2021-08-28T09:01:08Z</time>
      </trkpt>
      <trkpt lat="44.50775" lon="2.79622">
        <ele>330</ele>
        <time>2021-08-28T09:01:10Z</time>
      </trkpt>
      <trkpt lat="44.5078" lon="2.79586">
        <ele>328</ele>
        <time>2021-08-28T09:01:16Z</time>
      </trkpt>
      <trkpt lat="44.50829" lon="2.79468">
        <ele>333</ele>
        <time>2021-08-28T09:01:35Z</time>
      </trkpt>
      <trkpt lat="44.50831" lon="2.7946">
        <ele>334</ele>
        <time>2021-08-28T09:01:37Z</time>
      </trkpt>
      <trkpt lat="44.50837" lon="2.79442">
        <ele>336</ele>
        <time>2021-08-28T09:01:41Z</time>
      </trkpt>
      <trkpt lat="44.50846" lon="2.79373">
        <ele>337</ele>
        <time>2021-08-28T09:01:57Z</time>
      </trkpt>
      <trkpt lat="44.50856" lon="2.79329">
        <ele>337</ele>
        <time>2021-08-28T09:02:07Z</time>
      </trkpt>
      <trkpt lat="44.50882" lon="2.79283">
        <ele>337</ele>
        <time>2021-08-28T09:02:17Z</time>
      </trkpt>
      <trkpt lat="44.50931" lon="2.79233">
        <ele>339</ele>
        <time>2021-08-28T09:02:28Z</time>
      </trkpt>
      <trkpt lat="44.50974" lon="2.79181">
        <ele>337</ele>
        <time>2021-08-28T09:02:37Z</time>
      </trkpt>
      <trkpt lat="44.51037" lon="2.79128">
        <ele>344</ele>
        <time>2021-08-28T09:02:49Z</time>
      </trkpt>
      <trkpt lat="44.51099" lon="2.79019">
        <ele>349</ele>
        <time>2021-08-28T09:03:05Z</time>
      </trkpt>
      <trkpt lat="44.51116" lon="2.78964">
        <ele>344</ele>
        <time>2021-08-28T09:03:11Z</time>
      </trkpt>
      <trkpt lat="44.51125" lon="2.78949">
        <ele>345</ele>
        <time>2021-08-28T09:03:13Z</time>
      </trkpt>
      <trkpt lat="44.51136" lon="2.78936">
        <ele>344</ele>
        <time>2021-08-28T09:03:15Z</time>
      </trkpt>
      <trkpt lat="44.5115" lon="2.78928">
        <ele>345</ele>
        <time>2021-08-28T09:03:17Z</time>
      </trkpt>
      <trkpt lat="44.51203" lon="2.78923">
        <ele>349</ele>
        <time>2021-08-28T09:03:24Z</time>
      </trkpt>
      <trkpt lat="44.51226" lon="2.78911">
        <ele>349</ele>
        <time>2021-08-28T09:03:28Z</time>
      </trkpt>
      <trkpt lat="44.51262" lon="2.78881">
        <ele>348</ele>
        <time>2021-08-28T09:03:35Z</time>
      </trkpt>
      <trkpt lat="44.51342" lon="2.78791">
        <ele>345</ele>
        <time>2021-08-28T09:03:54Z</time>
      </trkpt>
      <trkpt lat="44.51371" lon="2.78774">
        <ele>344</ele>
        <time>2021-08-28T09:04:01Z</time>
      </trkpt>
      <trkpt lat="44.51414" lon="2.78763">
        <ele>343</ele>
        <time>2021-08-28T09:04:10Z</time>
      </trkpt>
      <trkpt lat="44.51422" lon="2.78764">
        <ele>343</ele>
        <time>2021-08-28T09:04:12Z</time>
      </trkpt>
      <trkpt lat="44.51539" lon="2.78723">
        <ele>342</ele>
        <time>2021-08-28T09:04:42Z</time>
      </trkpt>
      <trkpt lat="44.51567" lon="2.78707">
        <ele>341</ele>
        <time>2021-08-28T09:05:51Z</time>
      </trkpt>
      <trkpt lat="44.51653" lon="2.78642">
        <ele>340</ele>
        <time>2021-08-28T09:06:22Z</time>
      </trkpt>
      <trkpt lat="44.51658" lon="2.78637">
        <ele>340</ele>
        <time>2021-08-28T09:06:24Z</time>
      </trkpt>
      <trkpt lat="44.51676" lon="2.7859">
        <ele>340</ele>
        <time>2021-08-28T09:06:34Z</time>
      </trkpt>
      <trkpt lat="44.51686" lon="2.78548">
        <ele>338</ele>
        <time>2021-08-28T09:06:42Z</time>
      </trkpt>
      <trkpt lat="44.51709" lon="2.78409">
        <ele>329</ele>
        <time>2021-08-28T09:07:07Z</time>
      </trkpt>
      <trkpt lat="44.51711" lon="2.784">
        <ele>327</ele>
        <time>2021-08-28T09:07:09Z</time>
      </trkpt>
      <trkpt lat="44.51713" lon="2.78392">
        <ele>326</ele>
        <time>2021-08-28T09:07:11Z</time>
      </trkpt>
      <trkpt lat="44.51712" lon="2.78382">
        <ele>324</ele>
        <time>2021-08-28T09:07:13Z</time>
      </trkpt>
      <trkpt lat="44.51712" lon="2.78373">
        <ele>323</ele>
        <time>2021-08-28T09:07:15Z</time>
      </trkpt>
      <trkpt lat="44.51713" lon="2.78363">
        <ele>322</ele>
        <time>2021-08-28T09:07:17Z</time>
      </trkpt>
      <trkpt lat="44.51723" lon="2.78334">
        <ele>322</ele>
        <time>2021-08-28T09:07:23Z</time>
      </trkpt>
      <trkpt lat="44.51724" lon="2.78324">
        <ele>321</ele>
        <time>2021-08-28T09:07:25Z</time>
      </trkpt>
      <trkpt lat="44.51733" lon="2.78296">
        <ele>320</ele>
        <time>2021-08-28T09:07:31Z</time>
      </trkpt>
      <trkpt lat="44.51741" lon="2.78276">
        <ele>319</ele>
        <time>2021-08-28T09:07:35Z</time>
      </trkpt>
      <trkpt lat="44.51743" lon="2.78267">
        <ele>318</ele>
        <time>2021-08-28T09:07:37Z</time>
      </trkpt>
      <trkpt lat="44.51747" lon="2.78257">
        <ele>317</ele>
        <time>2021-08-28T09:07:39Z</time>
      </trkpt>
      <trkpt lat="44.51754" lon="2.78238">
        <ele>316</ele>
        <time>2021-08-28T09:07:43Z</time>
      </trkpt>
      <trkpt lat="44.51756" lon="2.78229">
        <ele>315</ele>
        <time>2021-08-28T09:07:45Z</time>
      </trkpt>
      <trkpt lat="44.51756" lon="2.7822">
        <ele>314</ele>
        <time>2021-08-28T09:07:47Z</time>
      </trkpt>
      <trkpt lat="44.51759" lon="2.78211">
        <ele>313</ele>
        <time>2021-08-28T09:07:49Z</time>
      </trkpt>
      <trkpt lat="44.51763" lon="2.78201">
        <ele>311</ele>
        <time>2021-08-28T09:07:51Z</time>
      </trkpt>
      <trkpt lat="44.51769" lon="2.78167">
        <ele>309</ele>
        <time>2021-08-28T09:07:57Z</time>
      </trkpt>
      <trkpt lat="44.51772" lon="2.78156">
        <ele>310</ele>
        <time>2021-08-28T09:07:59Z</time>
      </trkpt>
      <trkpt lat="44.51788" lon="2.78129">
        <ele>309</ele>
        <time>2021-08-28T09:08:04Z</time>
      </trkpt>
      <trkpt lat="44.51792" lon="2.78119">
        <ele>310</ele>
        <time>2021-08-28T09:08:06Z</time>
      </trkpt>
      <trkpt lat="44.51796" lon="2.78108">
        <ele>312</ele>
        <time>2021-08-28T09:08:08Z</time>
      </trkpt>
      <trkpt lat="44.51805" lon="2.78095">
        <ele>312</ele>
        <time>2021-08-28T09:08:11Z</time>
      </trkpt>
      <trkpt lat="44.51808" lon="2.78084">
        <ele>311</ele>
        <time>2021-08-28T09:08:13Z</time>
      </trkpt>
      <trkpt lat="44.5183" lon="2.78029">
        <ele>306</ele>
        <time>2021-08-28T09:08:23Z</time>
      </trkpt>
      <trkpt lat="44.51839" lon="2.78011">
        <ele>303</ele>
        <time>2021-08-28T09:08:27Z</time>
      </trkpt>
      <trkpt lat="44.5189" lon="2.77899">
        <ele>298</ele>
        <time>2021-08-28T09:08:57Z</time>
      </trkpt>
      <trkpt lat="44.51892" lon="2.7789">
        <ele>298</ele>
        <time>2021-08-28T09:09:00Z</time>
      </trkpt>
      <trkpt lat="44.5191" lon="2.77844">
        <ele>295</ele>
        <time>2021-08-28T09:09:13Z</time>
      </trkpt>
      <trkpt lat="44.51948" lon="2.7774">
        <ele>302</ele>
        <time>2021-08-28T09:09:35Z</time>
      </trkpt>
      <trkpt lat="44.5197" lon="2.77692">
        <ele>303</ele>
        <time>2021-08-28T09:09:45Z</time>
      </trkpt>
      <trkpt lat="44.52006" lon="2.77604">
        <ele>304</ele>
        <time>2021-08-28T09:10:03Z</time>
      </trkpt>
      <trkpt lat="44.52089" lon="2.77454">
        <ele>310</ele>
        <time>2021-08-28T09:10:35Z</time>
      </trkpt>
      <trkpt lat="44.52116" lon="2.77376">
        <ele>315</ele>
        <time>2021-08-28T09:10:51Z</time>
      </trkpt>
      <trkpt lat="44.5213" lon="2.77326">
        <ele>316</ele>
        <time>2021-08-28T09:11:03Z</time>
      </trkpt>
      <trkpt lat="44.5213" lon="2.77319">
        <ele>317</ele>
        <time>2021-08-28T09:11:06Z</time>
      </trkpt>
      <trkpt lat="44.52132" lon="2.77313">
        <ele>319</ele>
        <time>2021-08-28T09:11:13Z</time>
      </trkpt>
      <trkpt lat="44.52136" lon="2.7731">
        <ele>320</ele>
        <time>2021-08-28T09:11:17Z</time>
      </trkpt>
      <trkpt lat="44.52139" lon="2.77316">
        <ele>321</ele>
        <time>2021-08-28T09:11:24Z</time>
      </trkpt>
      <trkpt lat="44.52144" lon="2.77318">
        <ele>324</ele>
        <time>2021-08-28T09:11:27Z</time>
      </trkpt>
      <trkpt lat="44.52182" lon="2.77305">
        <ele>324</ele>
        <time>2021-08-28T09:11:39Z</time>
      </trkpt>
      <trkpt lat="44.52188" lon="2.77301">
        <ele>324</ele>
        <time>2021-08-28T09:11:41Z</time>
      </trkpt>
      <trkpt lat="44.52194" lon="2.77296">
        <ele>323</ele>
        <time>2021-08-28T09:11:43Z</time>
      </trkpt>
      <trkpt lat="44.52205" lon="2.77278">
        <ele>325</ele>
        <time>2021-08-28T09:11:49Z</time>
      </trkpt>
      <trkpt lat="44.52256" lon="2.77214">
        <ele>324</ele>
        <time>2021-08-28T09:12:11Z</time>
      </trkpt>
      <trkpt lat="44.52266" lon="2.77188">
        <ele>323</ele>
        <time>2021-08-28T09:12:16Z</time>
      </trkpt>
      <trkpt lat="44.52269" lon="2.77178">
        <ele>322</ele>
        <time>2021-08-28T09:12:18Z</time>
      </trkpt>
      <trkpt lat="44.52272" lon="2.77168">
        <ele>319</ele>
        <time>2021-08-28T09:12:20Z</time>
      </trkpt>
      <trkpt lat="44.52275" lon="2.7715">
        <ele>317</ele>
        <time>2021-08-28T09:12:24Z</time>
      </trkpt>
      <trkpt lat="44.52278" lon="2.77142">
        <ele>314</ele>
        <time>2021-08-28T09:12:26Z</time>
      </trkpt>
      <trkpt lat="44.52281" lon="2.77134">
        <ele>313</ele>
        <time>2021-08-28T09:12:28Z</time>
      </trkpt>
      <trkpt lat="44.52281" lon="2.77123">
        <ele>313</ele>
        <time>2021-08-28T09:12:30Z</time>
      </trkpt>
      <trkpt lat="44.5228" lon="2.77111">
        <ele>313</ele>
        <time>2021-08-28T09:12:32Z</time>
      </trkpt>
      <trkpt lat="44.52265" lon="2.76976">
        <ele>317</ele>
        <time>2021-08-28T09:13:00Z</time>
      </trkpt>
      <trkpt lat="44.52261" lon="2.7695">
        <ele>315</ele>
        <time>2021-08-28T09:13:07Z</time>
      </trkpt>
      <trkpt lat="44.52259" lon="2.76944">
        <ele>316</ele>
        <time>2021-08-28T09:13:09Z</time>
      </trkpt>
      <trkpt lat="44.52257" lon="2.76937">
        <ele>315</ele>
        <time>2021-08-28T09:13:11Z</time>
      </trkpt>
      <trkpt lat="44.52251" lon="2.76915">
        <ele>317</ele>
        <time>2021-08-28T09:13:17Z</time>
      </trkpt>
      <trkpt lat="44.52245" lon="2.769">
        <ele>318</ele>
        <time>2021-08-28T09:13:22Z</time>
      </trkpt>
      <trkpt lat="44.52227" lon="2.76845">
        <ele>322</ele>
        <time>2021-08-28T09:13:36Z</time>
      </trkpt>
      <trkpt lat="44.52225" lon="2.76838">
        <ele>322</ele>
        <time>2021-08-28T09:13:38Z</time>
      </trkpt>
      <trkpt lat="44.52221" lon="2.7683">
        <ele>322</ele>
        <time>2021-08-28T09:13:40Z</time>
      </trkpt>
      <trkpt lat="44.52216" lon="2.76822">
        <ele>323</ele>
        <time>2021-08-28T09:13:42Z</time>
      </trkpt>
      <trkpt lat="44.52208" lon="2.76809">
        <ele>325</ele>
        <time>2021-08-28T09:13:46Z</time>
      </trkpt>
      <trkpt lat="44.52207" lon="2.76803">
        <ele>326</ele>
        <time>2021-08-28T09:13:48Z</time>
      </trkpt>
      <trkpt lat="44.52203" lon="2.76798">
        <ele>326</ele>
        <time>2021-08-28T09:13:51Z</time>
      </trkpt>
      <trkpt lat="44.522" lon="2.76793">
        <ele>327</ele>
        <time>2021-08-28T09:13:53Z</time>
      </trkpt>
      <trkpt lat="44.52196" lon="2.76787">
        <ele>327</ele>
        <time>2021-08-28T09:13:55Z</time>
      </trkpt>
      <trkpt lat="44.52193" lon="2.7678">
        <ele>327</ele>
        <time>2021-08-28T09:13:57Z</time>
      </trkpt>
      <trkpt lat="44.52189" lon="2.76774">
        <ele>327</ele>
        <time>2021-08-28T09:13:59Z</time>
      </trkpt>
      <trkpt lat="44.52184" lon="2.76769">
        <ele>327</ele>
        <time>2021-08-28T09:14:01Z</time>
      </trkpt>
      <trkpt lat="44.52179" lon="2.76764">
        <ele>327</ele>
        <time>2021-08-28T09:14:04Z</time>
      </trkpt>
      <trkpt lat="44.5217" lon="2.76744">
        <ele>326</ele>
        <time>2021-08-28T09:14:11Z</time>
      </trkpt>
      <trkpt lat="44.52168" lon="2.76738">
        <ele>326</ele>
        <time>2021-08-28T09:14:13Z</time>
      </trkpt>
      <trkpt lat="44.52164" lon="2.76724">
        <ele>326</ele>
        <time>2021-08-28T09:14:17Z</time>
      </trkpt>
      <trkpt lat="44.52163" lon="2.76718">
        <ele>326</ele>
        <time>2021-08-28T09:14:19Z</time>
      </trkpt>
      <trkpt lat="44.52159" lon="2.76698">
        <ele>325</ele>
        <time>2021-08-28T09:14:25Z</time>
      </trkpt>
      <trkpt lat="44.52153" lon="2.76667">
        <ele>324</ele>
        <time>2021-08-28T09:14:33Z</time>
      </trkpt>
      <trkpt lat="44.5213" lon="2.7656">
        <ele>333</ele>
        <time>2021-08-28T09:14:57Z</time>
      </trkpt>
      <trkpt lat="44.52128" lon="2.76553">
        <ele>334</ele>
        <time>2021-08-28T09:14:59Z</time>
      </trkpt>
      <trkpt lat="44.5212" lon="2.76523">
        <ele>334</ele>
        <time>2021-08-28T09:15:07Z</time>
      </trkpt>
      <trkpt lat="44.5212" lon="2.76508">
        <ele>333</ele>
        <time>2021-08-28T09:15:11Z</time>
      </trkpt>
      <trkpt lat="44.52119" lon="2.765">
        <ele>332</ele>
        <time>2021-08-28T09:15:13Z</time>
      </trkpt>
      <trkpt lat="44.52118" lon="2.76486">
        <ele>331</ele>
        <time>2021-08-28T09:15:17Z</time>
      </trkpt>
      <trkpt lat="44.52118" lon="2.76478">
        <ele>331</ele>
        <time>2021-08-28T09:15:19Z</time>
      </trkpt>
      <trkpt lat="44.52122" lon="2.76472">
        <ele>332</ele>
        <time>2021-08-28T09:15:22Z</time>
      </trkpt>
      <trkpt lat="44.52122" lon="2.76465">
        <ele>333</ele>
        <time>2021-08-28T09:15:59Z</time>
      </trkpt>
      <trkpt lat="44.52112" lon="2.76461">
        <ele>334</ele>
        <time>2021-08-28T09:16:08Z</time>
      </trkpt>
      <trkpt lat="44.52111" lon="2.76454">
        <ele>333</ele>
        <time>2021-08-28T09:16:11Z</time>
      </trkpt>
      <trkpt lat="44.52113" lon="2.76446">
        <ele>332</ele>
        <time>2021-08-28T09:16:14Z</time>
      </trkpt>
      <trkpt lat="44.52114" lon="2.76432">
        <ele>331</ele>
        <time>2021-08-28T09:16:20Z</time>
      </trkpt>
      <trkpt lat="44.52114" lon="2.76426">
        <ele>330</ele>
        <time>2021-08-28T09:16:23Z</time>
      </trkpt>
      <trkpt lat="44.5212" lon="2.76415">
        <ele>329</ele>
        <time>2021-08-28T09:16:32Z</time>
      </trkpt>
      <trkpt lat="44.52126" lon="2.76408">
        <ele>328</ele>
        <time>2021-08-28T09:16:37Z</time>
      </trkpt>
      <trkpt lat="44.52141" lon="2.76379">
        <ele>323</ele>
        <time>2021-08-28T09:16:52Z</time>
      </trkpt>
      <trkpt lat="44.52144" lon="2.76374">
        <ele>321</ele>
        <time>2021-08-28T09:16:56Z</time>
      </trkpt>
      <trkpt lat="44.52149" lon="2.76376">
        <ele>320</ele>
        <time>2021-08-28T09:17:18Z</time>
      </trkpt>
      <trkpt lat="44.52162" lon="2.76365">
        <ele>321</ele>
        <time>2021-08-28T09:17:40Z</time>
      </trkpt>
      <trkpt lat="44.52165" lon="2.76359">
        <ele>320</ele>
        <time>2021-08-28T09:17:45Z</time>
      </trkpt>
      <trkpt lat="44.5217" lon="2.76355">
        <ele>318</ele>
        <time>2021-08-28T09:17:53Z</time>
      </trkpt>
      <trkpt lat="44.52175" lon="2.76355">
        <ele>318</ele>
        <time>2021-08-28T09:17:55Z</time>
      </trkpt>
      <trkpt lat="44.5218" lon="2.76355">
        <ele>319</ele>
        <time>2021-08-28T09:17:57Z</time>
      </trkpt>
      <trkpt lat="44.52185" lon="2.76356">
        <ele>321</ele>
        <time>2021-08-28T09:18:01Z</time>
      </trkpt>
      <trkpt lat="44.52189" lon="2.76351">
        <ele>322</ele>
        <time>2021-08-28T09:18:06Z</time>
      </trkpt>
      <trkpt lat="44.52193" lon="2.76347">
        <ele>324</ele>
        <time>2021-08-28T09:18:13Z</time>
      </trkpt>
      <trkpt lat="44.52198" lon="2.76343">
        <ele>323</ele>
        <time>2021-08-28T09:18:18Z</time>
      </trkpt>
      <trkpt lat="44.52204" lon="2.7633">
        <ele>317</ele>
        <time>2021-08-28T09:18:43Z</time>
      </trkpt>
      <trkpt lat="44.52218" lon="2.76343">
        <ele>328</ele>
        <time>2021-08-28T09:19:06Z</time>
      </trkpt>
      <trkpt lat="44.52222" lon="2.76348">
        <ele>331</ele>
        <time>2021-08-28T09:19:12Z</time>
      </trkpt>
      <trkpt lat="44.52229" lon="2.76356">
        <ele>334</ele>
        <time>2021-08-28T09:19:21Z</time>
      </trkpt>
      <trkpt lat="44.5223" lon="2.76353">
        <ele>335</ele>
        <time>2021-08-28T09:36:19Z</time>
      </trkpt>
      <trkpt lat="44.52219" lon="2.7634">
        <ele>337</ele>
        <time>2021-08-28T09:36:43Z</time>
      </trkpt>
      <trkpt lat="44.52213" lon="2.76338">
        <ele>337</ele>
        <time>2021-08-28T09:36:51Z</time>
      </trkpt>
      <trkpt lat="44.52201" lon="2.76325">
        <ele>335</ele>
        <time>2021-08-28T09:37:06Z</time>
      </trkpt>
      <trkpt lat="44.52196" lon="2.76323">
        <ele>336</ele>
        <time>2021-08-28T09:37:13Z</time>
      </trkpt>
      <trkpt lat="44.52168" lon="2.763">
        <ele>336</ele>
        <time>2021-08-28T09:37:44Z</time>
      </trkpt>
      <trkpt lat="44.52165" lon="2.76296">
        <ele>338</ele>
        <time>2021-08-28T09:37:50Z</time>
      </trkpt>
      <trkpt lat="44.52161" lon="2.76291">
        <ele>338</ele>
        <time>2021-08-28T09:37:56Z</time>
      </trkpt>
      <trkpt lat="44.52157" lon="2.76289">
        <ele>336</ele>
        <time>2021-08-28T09:38:02Z</time>
      </trkpt>
      <trkpt lat="44.52163" lon="2.76277">
        <ele>336</ele>
        <time>2021-08-28T09:38:31Z</time>
      </trkpt>
      <trkpt lat="44.52178" lon="2.76256">
        <ele>336</ele>
        <time>2021-08-28T09:38:41Z</time>
      </trkpt>
      <trkpt lat="44.52181" lon="2.7625">
        <ele>335</ele>
        <time>2021-08-28T09:38:44Z</time>
      </trkpt>
      <trkpt lat="44.52181" lon="2.7624">
        <ele>335</ele>
        <time>2021-08-28T09:38:48Z</time>
      </trkpt>
      <trkpt lat="44.52182" lon="2.76234">
        <ele>336</ele>
        <time>2021-08-28T09:38:52Z</time>
      </trkpt>
      <trkpt lat="44.52185" lon="2.76227">
        <ele>337</ele>
        <time>2021-08-28T09:39:09Z</time>
      </trkpt>
      <trkpt lat="44.52181" lon="2.7622">
        <ele>336</ele>
        <time>2021-08-28T09:39:13Z</time>
      </trkpt>
      <trkpt lat="44.52167" lon="2.7621">
        <ele>337</ele>
        <time>2021-08-28T09:39:25Z</time>
      </trkpt>
      <trkpt lat="44.52162" lon="2.76205">
        <ele>337</ele>
        <time>2021-08-28T09:39:27Z</time>
      </trkpt>
      <trkpt lat="44.5216" lon="2.76199">
        <ele>338</ele>
        <time>2021-08-28T09:39:30Z</time>
      </trkpt>
      <trkpt lat="44.52161" lon="2.76204">
        <ele>338</ele>
        <time>2021-08-28T09:40:47Z</time>
      </trkpt>
      <trkpt lat="44.52159" lon="2.76211">
        <ele>338</ele>
        <time>2021-08-28T09:40:52Z</time>
      </trkpt>
      <trkpt lat="44.52139" lon="2.76203">
        <ele>338</ele>
        <time>2021-08-28T09:41:14Z</time>
      </trkpt>
      <trkpt lat="44.52136" lon="2.76209">
        <ele>339</ele>
        <time>2021-08-28T09:41:23Z</time>
      </trkpt>
      <trkpt lat="44.52136" lon="2.76216">
        <ele>339</ele>
        <time>2021-08-28T09:41:27Z</time>
      </trkpt>
      <trkpt lat="44.52134" lon="2.76222">
        <ele>339</ele>
        <time>2021-08-28T09:41:30Z</time>
      </trkpt>
      <trkpt lat="44.52128" lon="2.76222">
        <ele>341</ele>
        <time>2021-08-28T09:41:34Z</time>
      </trkpt>
      <trkpt lat="44.52124" lon="2.76232">
        <ele>342</ele>
        <time>2021-08-28T09:41:44Z</time>
      </trkpt>
      <trkpt lat="44.52118" lon="2.76234">
        <ele>342</ele>
        <time>2021-08-28T09:41:49Z</time>
      </trkpt>
      <trkpt lat="44.52116" lon="2.76243">
        <ele>341</ele>
        <time>2021-08-28T09:41:54Z</time>
      </trkpt>
      <trkpt lat="44.52111" lon="2.76244">
        <ele>333</ele>
        <time>2021-08-28T09:42:00Z</time>
      </trkpt>
      <trkpt lat="44.52106" lon="2.76242">
        <ele>330</ele>
        <time>2021-08-28T09:42:10Z</time>
      </trkpt>
      <trkpt lat="44.52102" lon="2.76238">
        <ele>326</ele>
        <time>2021-08-28T09:42:16Z</time>
      </trkpt>
      <trkpt lat="44.52097" lon="2.76236">
        <ele>327</ele>
        <time>2021-08-28T09:42:21Z</time>
      </trkpt>
      <trkpt lat="44.52089" lon="2.76229">
        <ele>329</ele>
        <time>2021-08-28T09:42:31Z</time>
      </trkpt>
      <trkpt lat="44.52085" lon="2.76226">
        <ele>329</ele>
        <time>2021-08-28T09:42:38Z</time>
      </trkpt>
      <trkpt lat="44.52081" lon="2.76222">
        <ele>330</ele>
        <time>2021-08-28T09:42:44Z</time>
      </trkpt>
      <trkpt lat="44.52074" lon="2.76221">
        <ele>329</ele>
        <time>2021-08-28T09:42:55Z</time>
      </trkpt>
      <trkpt lat="44.5207" lon="2.76217">
        <ele>328</ele>
        <time>2021-08-28T09:42:59Z</time>
      </trkpt>
      <trkpt lat="44.52057" lon="2.76202">
        <ele>331</ele>
        <time>2021-08-28T09:43:21Z</time>
      </trkpt>
      <trkpt lat="44.52052" lon="2.76202">
        <ele>331</ele>
        <time>2021-08-28T09:43:26Z</time>
      </trkpt>
      <trkpt lat="44.52048" lon="2.76208">
        <ele>333</ele>
        <time>2021-08-28T09:43:30Z</time>
      </trkpt>
      <trkpt lat="44.52048" lon="2.76214">
        <ele>335</ele>
        <time>2021-08-28T09:44:23Z</time>
      </trkpt>
      <trkpt lat="44.52049" lon="2.76212">
        <ele>338</ele>
        <time>2021-08-28T09:47:30Z</time>
      </trkpt>
      <trkpt lat="44.52047" lon="2.76203">
        <ele>341</ele>
        <time>2021-08-28T09:47:36Z</time>
      </trkpt>
      <trkpt lat="44.52048" lon="2.76195">
        <ele>343</ele>
        <time>2021-08-28T09:47:39Z</time>
      </trkpt>
      <trkpt lat="44.52069" lon="2.76163">
        <ele>348</ele>
        <time>2021-08-28T09:47:50Z</time>
      </trkpt>
      <trkpt lat="44.52074" lon="2.76158">
        <ele>349</ele>
        <time>2021-08-28T09:47:52Z</time>
      </trkpt>
      <trkpt lat="44.52076" lon="2.76153">
        <ele>350</ele>
        <time>2021-08-28T09:47:54Z</time>
      </trkpt>
      <trkpt lat="44.52079" lon="2.76145">
        <ele>348</ele>
        <time>2021-08-28T09:47:58Z</time>
      </trkpt>
      <trkpt lat="44.52074" lon="2.76138">
        <ele>345</ele>
        <time>2021-08-28T09:48:04Z</time>
      </trkpt>
      <trkpt lat="44.52073" lon="2.76138">
        <ele>337</ele>
        <time>2021-08-28T09:49:07Z</time>
      </trkpt>
      <trkpt lat="44.52072" lon="2.76131">
        <ele>337</ele>
        <time>2021-08-28T09:49:53Z</time>
      </trkpt>
      <trkpt lat="44.5207" lon="2.76124">
        <ele>338</ele>
        <time>2021-08-28T09:49:56Z</time>
      </trkpt>
      <trkpt lat="44.52068" lon="2.76118">
        <ele>338</ele>
        <time>2021-08-28T09:49:58Z</time>
      </trkpt>
      <trkpt lat="44.52014" lon="2.76075">
        <ele>337</ele>
        <time>2021-08-28T09:50:30Z</time>
      </trkpt>
      <trkpt lat="44.5201" lon="2.76071">
        <ele>337</ele>
        <time>2021-08-28T09:50:32Z</time>
      </trkpt>
      <trkpt lat="44.5199" lon="2.76048">
        <ele>337</ele>
        <time>2021-08-28T09:50:44Z</time>
      </trkpt>
      <trkpt lat="44.51986" lon="2.76041">
        <ele>337</ele>
        <time>2021-08-28T09:50:47Z</time>
      </trkpt>
      <trkpt lat="44.51982" lon="2.76034">
        <ele>336</ele>
        <time>2021-08-28T09:50:50Z</time>
      </trkpt>
      <trkpt lat="44.5198" lon="2.76028">
        <ele>336</ele>
        <time>2021-08-28T09:50:52Z</time>
      </trkpt>
      <trkpt lat="44.51981" lon="2.76021">
        <ele>336</ele>
        <time>2021-08-28T09:50:54Z</time>
      </trkpt>
      <trkpt lat="44.51982" lon="2.76014">
        <ele>337</ele>
        <time>2021-08-28T09:50:56Z</time>
      </trkpt>
      <trkpt lat="44.51992" lon="2.75954">
        <ele>339</ele>
        <time>2021-08-28T09:51:10Z</time>
      </trkpt>
      <trkpt lat="44.51994" lon="2.75946">
        <ele>340</ele>
        <time>2021-08-28T09:51:12Z</time>
      </trkpt>
      <trkpt lat="44.52004" lon="2.75907">
        <ele>341</ele>
        <time>2021-08-28T09:51:20Z</time>
      </trkpt>
      <trkpt lat="44.52021" lon="2.75865">
        <ele>344</ele>
        <time>2021-08-28T09:51:30Z</time>
      </trkpt>
      <trkpt lat="44.52089" lon="2.75773">
        <ele>339</ele>
        <time>2021-08-28T09:51:58Z</time>
      </trkpt>
      <trkpt lat="44.52168" lon="2.75724">
        <ele>341</ele>
        <time>2021-08-28T09:52:28Z</time>
      </trkpt>
      <trkpt lat="44.52215" lon="2.75684">
        <ele>345</ele>
        <time>2021-08-28T09:52:48Z</time>
      </trkpt>
      <trkpt lat="44.52233" lon="2.75656">
        <ele>347</ele>
        <time>2021-08-28T09:52:58Z</time>
      </trkpt>
      <trkpt lat="44.52251" lon="2.75605">
        <ele>349</ele>
        <time>2021-08-28T09:53:13Z</time>
      </trkpt>
      <trkpt lat="44.52272" lon="2.75522">
        <ele>352</ele>
        <time>2021-08-28T09:53:34Z</time>
      </trkpt>
      <trkpt lat="44.523" lon="2.75423">
        <ele>350</ele>
        <time>2021-08-28T09:53:56Z</time>
      </trkpt>
      <trkpt lat="44.52302" lon="2.75412">
        <ele>349</ele>
        <time>2021-08-28T09:53:58Z</time>
      </trkpt>
      <trkpt lat="44.52326" lon="2.7532">
        <ele>347</ele>
        <time>2021-08-28T09:54:18Z</time>
      </trkpt>
      <trkpt lat="44.52338" lon="2.75254">
        <ele>347</ele>
        <time>2021-08-28T09:54:32Z</time>
      </trkpt>
      <trkpt lat="44.52334" lon="2.75109">
        <ele>351</ele>
        <time>2021-08-28T09:55:00Z</time>
      </trkpt>
      <trkpt lat="44.52346" lon="2.75017">
        <ele>351</ele>
        <time>2021-08-28T09:55:18Z</time>
      </trkpt>
      <trkpt lat="44.524" lon="2.74828">
        <ele>349</ele>
        <time>2021-08-28T09:55:49Z</time>
      </trkpt>
      <trkpt lat="44.52434" lon="2.74688">
        <ele>349</ele>
        <time>2021-08-28T09:56:15Z</time>
      </trkpt>
      <trkpt lat="44.52457" lon="2.74488">
        <ele>347</ele>
        <time>2021-08-28T09:56:46Z</time>
      </trkpt>
      <trkpt lat="44.52475" lon="2.74389">
        <ele>347</ele>
        <time>2021-08-28T09:56:58Z</time>
      </trkpt>
      <trkpt lat="44.52486" lon="2.74351">
        <ele>346</ele>
        <time>2021-08-28T09:57:04Z</time>
      </trkpt>
      <trkpt lat="44.52539" lon="2.74266">
        <ele>346</ele>
        <time>2021-08-28T09:57:22Z</time>
      </trkpt>
      <trkpt lat="44.52637" lon="2.74144">
        <ele>340</ele>
        <time>2021-08-28T09:57:45Z</time>
      </trkpt>
      <trkpt lat="44.52753" lon="2.73853">
        <ele>331</ele>
        <time>2021-08-28T09:58:15Z</time>
      </trkpt>
      <trkpt lat="44.52824" lon="2.73607">
        <ele>328</ele>
        <time>2021-08-28T09:58:37Z</time>
      </trkpt>
      <trkpt lat="44.52832" lon="2.73571">
        <ele>329</ele>
        <time>2021-08-28T09:58:43Z</time>
      </trkpt>
      <trkpt lat="44.52834" lon="2.73561">
        <ele>329</ele>
        <time>2021-08-28T09:58:54Z</time>
      </trkpt>
      <trkpt lat="44.52835" lon="2.73554">
        <ele>328</ele>
        <time>2021-08-28T09:59:58Z</time>
      </trkpt>
      <trkpt lat="44.52833" lon="2.73547">
        <ele>329</ele>
        <time>2021-08-28T10:00:01Z</time>
      </trkpt>
      <trkpt lat="44.52829" lon="2.73543">
        <ele>330</ele>
        <time>2021-08-28T10:00:04Z</time>
      </trkpt>
      <trkpt lat="44.52824" lon="2.7354">
        <ele>331</ele>
        <time>2021-08-28T10:00:07Z</time>
      </trkpt>
      <trkpt lat="44.52823" lon="2.73533">
        <ele>331</ele>
        <time>2021-08-28T10:00:10Z</time>
      </trkpt>
      <trkpt lat="44.52788" lon="2.73469">
        <ele>334</ele>
        <time>2021-08-28T10:00:34Z</time>
      </trkpt>
      <trkpt lat="44.52784" lon="2.73464">
        <ele>334</ele>
        <time>2021-08-28T10:00:36Z</time>
      </trkpt>
      <trkpt lat="44.52778" lon="2.7346">
        <ele>334</ele>
        <time>2021-08-28T10:00:39Z</time>
      </trkpt>
      <trkpt lat="44.52775" lon="2.73456">
        <ele>334</ele>
        <time>2021-08-28T10:01:52Z</time>
      </trkpt>
      <trkpt lat="44.52746" lon="2.73338">
        <ele>339</ele>
        <time>2021-08-28T10:02:19Z</time>
      </trkpt>
      <trkpt lat="44.5273" lon="2.73262">
        <ele>339</ele>
        <time>2021-08-28T10:02:35Z</time>
      </trkpt>
      <trkpt lat="44.52708" lon="2.73214">
        <ele>340</ele>
        <time>2021-08-28T10:02:47Z</time>
      </trkpt>
      <trkpt lat="44.52704" lon="2.73208">
        <ele>340</ele>
        <time>2021-08-28T10:02:49Z</time>
      </trkpt>
      <trkpt lat="44.5269" lon="2.73179">
        <ele>340</ele>
        <time>2021-08-28T10:02:57Z</time>
      </trkpt>
      <trkpt lat="44.52688" lon="2.73172">
        <ele>339</ele>
        <time>2021-08-28T10:02:59Z</time>
      </trkpt>
      <trkpt lat="44.52675" lon="2.73137">
        <ele>339</ele>
        <time>2021-08-28T10:03:12Z</time>
      </trkpt>
      <trkpt lat="44.52626" lon="2.73058">
        <ele>334</ele>
        <time>2021-08-28T10:03:40Z</time>
      </trkpt>
      <trkpt lat="44.52613" lon="2.73011">
        <ele>331</ele>
        <time>2021-08-28T10:03:49Z</time>
      </trkpt>
      <trkpt lat="44.52613" lon="2.72992">
        <ele>329</ele>
        <time>2021-08-28T10:03:53Z</time>
      </trkpt>
      <trkpt lat="44.52612" lon="2.72976">
        <ele>329</ele>
        <time>2021-08-28T10:03:58Z</time>
      </trkpt>
      <trkpt lat="44.52607" lon="2.72954">
        <ele>327</ele>
        <time>2021-08-28T10:04:04Z</time>
      </trkpt>
      <trkpt lat="44.52605" lon="2.72934">
        <ele>326</ele>
        <time>2021-08-28T10:04:08Z</time>
      </trkpt>
      <trkpt lat="44.52581" lon="2.72818">
        <ele>327</ele>
        <time>2021-08-28T10:04:39Z</time>
      </trkpt>
      <trkpt lat="44.52583" lon="2.72805">
        <ele>327</ele>
        <time>2021-08-28T10:04:44Z</time>
      </trkpt>
      <trkpt lat="44.52589" lon="2.72795">
        <ele>329</ele>
        <time>2021-08-28T10:05:15Z</time>
      </trkpt>
      <trkpt lat="44.5259" lon="2.72789">
        <ele>329</ele>
        <time>2021-08-28T10:05:24Z</time>
      </trkpt>
      <trkpt lat="44.52587" lon="2.72784">
        <ele>329</ele>
        <time>2021-08-28T10:06:48Z</time>
      </trkpt>
      <trkpt lat="44.52583" lon="2.72779">
        <ele>329</ele>
        <time>2021-08-28T10:06:53Z</time>
      </trkpt>
      <trkpt lat="44.52578" lon="2.72769">
        <ele>328</ele>
        <time>2021-08-28T10:07:06Z</time>
      </trkpt>
      <trkpt lat="44.5258" lon="2.72766">
        <ele>327</ele>
        <time>2021-08-28T10:07:39Z</time>
      </trkpt>
      <trkpt lat="44.52583" lon="2.72772">
        <ele>327</ele>
        <time>2021-08-28T10:07:42Z</time>
      </trkpt>
      <trkpt lat="44.52586" lon="2.72776">
        <ele>324</ele>
        <time>2021-08-28T10:08:01Z</time>
      </trkpt>
      <trkpt lat="44.52588" lon="2.72783">
        <ele>322</ele>
        <time>2021-08-28T10:08:06Z</time>
      </trkpt>
      <trkpt lat="44.52591" lon="2.72789">
        <ele>319</ele>
        <time>2021-08-28T10:08:11Z</time>
      </trkpt>
      <trkpt lat="44.52587" lon="2.7279">
        <ele>317</ele>
        <time>2021-08-28T10:08:35Z</time>
      </trkpt>
      <trkpt lat="44.52583" lon="2.72786">
        <ele>322</ele>
        <time>2021-08-28T10:11:04Z</time>
      </trkpt>
      <trkpt lat="44.52582" lon="2.72797">
        <ele>356</ele>
        <time>2021-08-28T10:20:22Z</time>
      </trkpt>
      <trkpt lat="44.52591" lon="2.72798">
        <ele>355</ele>
        <time>2021-08-28T10:22:08Z</time>
      </trkpt>
      <trkpt lat="44.52587" lon="2.72803">
        <ele>340</ele>
        <time>2021-08-28T10:23:01Z</time>
      </trkpt>
      <trkpt lat="44.5259" lon="2.72805">
        <ele>340</ele>
        <time>2021-08-28T10:23:25Z</time>
      </trkpt>
      <trkpt lat="44.52592" lon="2.72794">
        <ele>339</ele>
        <time>2021-08-28T10:25:57Z</time>
      </trkpt>
      <trkpt lat="44.52575" lon="2.72807">
        <ele>341</ele>
        <time>2021-08-28T10:29:09Z</time>
      </trkpt>
      <trkpt lat="44.52583" lon="2.728">
        <ele>341</ele>
        <time>2021-08-28T10:29:11Z</time>
      </trkpt>
      <trkpt lat="44.52587" lon="2.728">
        <ele>341</ele>
        <time>2021-08-28T10:29:57Z</time>
      </trkpt>
      <trkpt lat="44.5259" lon="2.72792">
        <ele>341</ele>
        <time>2021-08-28T10:30:30Z</time>
      </trkpt>
      <trkpt lat="44.52589" lon="2.72791">
        <ele>335</ele>
        <time>2021-08-28T10:49:02Z</time>
      </trkpt>
      <trkpt lat="44.52595" lon="2.72792">
        <ele>335</ele>
        <time>2021-08-28T10:51:31Z</time>
      </trkpt>
      <trkpt lat="44.52606" lon="2.72802">
        <ele>335</ele>
        <time>2021-08-28T10:51:37Z</time>
      </trkpt>
      <trkpt lat="44.52623" lon="2.72814">
        <ele>335</ele>
        <time>2021-08-28T10:51:46Z</time>
      </trkpt>
      <trkpt lat="44.5268" lon="2.72876">
        <ele>330</ele>
        <time>2021-08-28T10:52:10Z</time>
      </trkpt>
      <trkpt lat="44.52686" lon="2.72879">
        <ele>327</ele>
        <time>2021-08-28T10:52:12Z</time>
      </trkpt>
      <trkpt lat="44.52693" lon="2.72882">
        <ele>325</ele>
        <time>2021-08-28T10:52:14Z</time>
      </trkpt>
      <trkpt lat="44.52712" lon="2.72887">
        <ele>320</ele>
        <time>2021-08-28T10:52:18Z</time>
      </trkpt>
      <trkpt lat="44.52723" lon="2.72893">
        <ele>319</ele>
        <time>2021-08-28T10:52:20Z</time>
      </trkpt>
      <trkpt lat="44.52728" lon="2.72898">
        <ele>318</ele>
        <time>2021-08-28T10:52:21Z</time>
      </trkpt>
      <trkpt lat="44.52763" lon="2.72954">
        <ele>312</ele>
        <time>2021-08-28T10:52:30Z</time>
      </trkpt>
      <trkpt lat="44.52826" lon="2.73031">
        <ele>315</ele>
        <time>2021-08-28T10:52:52Z</time>
      </trkpt>
      <trkpt lat="44.52831" lon="2.73039">
        <ele>316</ele>
        <time>2021-08-28T10:52:54Z</time>
      </trkpt>
      <trkpt lat="44.52836" lon="2.73059">
        <ele>317</ele>
        <time>2021-08-28T10:52:58Z</time>
      </trkpt>
      <trkpt lat="44.5284" lon="2.73065">
        <ele>318</ele>
        <time>2021-08-28T10:53:01Z</time>
      </trkpt>
      <trkpt lat="44.52846" lon="2.73067">
        <ele>318</ele>
        <time>2021-08-28T10:53:03Z</time>
      </trkpt>
      <trkpt lat="44.52883" lon="2.73069">
        <ele>324</ele>
        <time>2021-08-28T10:53:17Z</time>
      </trkpt>
      <trkpt lat="44.52957" lon="2.73049">
        <ele>329</ele>
        <time>2021-08-28T10:53:48Z</time>
      </trkpt>
      <trkpt lat="44.53009" lon="2.72978">
        <ele>331</ele>
        <time>2021-08-28T10:54:19Z</time>
      </trkpt>
      <trkpt lat="44.53031" lon="2.72942">
        <ele>335</ele>
        <time>2021-08-28T10:54:32Z</time>
      </trkpt>
      <trkpt lat="44.53105" lon="2.72844">
        <ele>346</ele>
        <time>2021-08-28T10:55:04Z</time>
      </trkpt>
      <trkpt lat="44.53128" lon="2.72825">
        <ele>346</ele>
        <time>2021-08-28T10:55:09Z</time>
      </trkpt>
      <trkpt lat="44.53237" lon="2.7278">
        <ele>338</ele>
        <time>2021-08-28T10:55:25Z</time>
      </trkpt>
      <trkpt lat="44.53399" lon="2.72638">
        <ele>327</ele>
        <time>2021-08-28T10:55:51Z</time>
      </trkpt>
      <trkpt lat="44.53421" lon="2.72604">
        <ele>327</ele>
        <time>2021-08-28T10:55:57Z</time>
      </trkpt>
      <trkpt lat="44.53476" lon="2.72505">
        <ele>332</ele>
        <time>2021-08-28T10:56:16Z</time>
      </trkpt>
      <trkpt lat="44.53482" lon="2.72486">
        <ele>332</ele>
        <time>2021-08-28T10:56:20Z</time>
      </trkpt>
      <trkpt lat="44.53493" lon="2.72388">
        <ele>336</ele>
        <time>2021-08-28T10:56:38Z</time>
      </trkpt>
      <trkpt lat="44.5351" lon="2.72351">
        <ele>336</ele>
        <time>2021-08-28T10:56:46Z</time>
      </trkpt>
      <trkpt lat="44.53594" lon="2.72209">
        <ele>337</ele>
        <time>2021-08-28T10:57:14Z</time>
      </trkpt>
      <trkpt lat="44.53643" lon="2.72143">
        <ele>336</ele>
        <time>2021-08-28T10:57:26Z</time>
      </trkpt>
      <trkpt lat="44.53653" lon="2.72124">
        <ele>336</ele>
        <time>2021-08-28T10:57:29Z</time>
      </trkpt>
      <trkpt lat="44.53695" lon="2.71949">
        <ele>339</ele>
        <time>2021-08-28T10:57:58Z</time>
      </trkpt>
      <trkpt lat="44.53702" lon="2.7193">
        <ele>340</ele>
        <time>2021-08-28T10:58:02Z</time>
      </trkpt>
      <trkpt lat="44.53734" lon="2.71785">
        <ele>343</ele>
        <time>2021-08-28T10:58:33Z</time>
      </trkpt>
      <trkpt lat="44.53749" lon="2.71747">
        <ele>343</ele>
        <time>2021-08-28T10:58:41Z</time>
      </trkpt>
      <trkpt lat="44.53768" lon="2.71715">
        <ele>343</ele>
        <time>2021-08-28T10:58:49Z</time>
      </trkpt>
      <trkpt lat="44.53779" lon="2.71703">
        <ele>343</ele>
        <time>2021-08-28T10:58:53Z</time>
      </trkpt>
      <trkpt lat="44.53786" lon="2.71698">
        <ele>344</ele>
        <time>2021-08-28T10:58:55Z</time>
      </trkpt>
      <trkpt lat="44.53803" lon="2.71692">
        <ele>344</ele>
        <time>2021-08-28T10:58:59Z</time>
      </trkpt>
      <trkpt lat="44.53848" lon="2.7169">
        <ele>340</ele>
        <time>2021-08-28T10:59:07Z</time>
      </trkpt>
      <trkpt lat="44.53883" lon="2.71674">
        <ele>339</ele>
        <time>2021-08-28T10:59:12Z</time>
      </trkpt>
      <trkpt lat="44.53951" lon="2.71626">
        <ele>335</ele>
        <time>2021-08-28T10:59:24Z</time>
      </trkpt>
      <trkpt lat="44.54045" lon="2.7152">
        <ele>326</ele>
        <time>2021-08-28T10:59:45Z</time>
      </trkpt>
      <trkpt lat="44.54078" lon="2.71442">
        <ele>335</ele>
        <time>2021-08-28T11:00:11Z</time>
      </trkpt>
      <trkpt lat="44.54099" lon="2.71366">
        <ele>341</ele>
        <time>2021-08-28T11:00:42Z</time>
      </trkpt>
      <trkpt lat="44.54107" lon="2.71345">
        <ele>342</ele>
        <time>2021-08-28T11:00:50Z</time>
      </trkpt>
      <trkpt lat="44.54108" lon="2.71339">
        <ele>343</ele>
        <time>2021-08-28T11:00:52Z</time>
      </trkpt>
      <trkpt lat="44.54119" lon="2.71314">
        <ele>346</ele>
        <time>2021-08-28T11:01:02Z</time>
      </trkpt>
      <trkpt lat="44.54145" lon="2.71243">
        <ele>356</ele>
        <time>2021-08-28T11:01:32Z</time>
      </trkpt>
      <trkpt lat="44.5415" lon="2.71204">
        <ele>359</ele>
        <time>2021-08-28T11:01:47Z</time>
      </trkpt>
      <trkpt lat="44.54151" lon="2.71195">
        <ele>360</ele>
        <time>2021-08-28T11:01:50Z</time>
      </trkpt>
      <trkpt lat="44.54156" lon="2.71141">
        <ele>366</ele>
        <time>2021-08-28T11:02:11Z</time>
      </trkpt>
      <trkpt lat="44.54157" lon="2.71133">
        <ele>366</ele>
        <time>2021-08-28T11:02:14Z</time>
      </trkpt>
      <trkpt lat="44.5416" lon="2.71119">
        <ele>366</ele>
        <time>2021-08-28T11:02:21Z</time>
      </trkpt>
      <trkpt lat="44.54161" lon="2.71105">
        <ele>367</ele>
        <time>2021-08-28T11:02:27Z</time>
      </trkpt>
      <trkpt lat="44.54164" lon="2.71088">
        <ele>368</ele>
        <time>2021-08-28T11:02:33Z</time>
      </trkpt>
      <trkpt lat="44.54167" lon="2.71072">
        <ele>369</ele>
        <time>2021-08-28T11:02:39Z</time>
      </trkpt>
      <trkpt lat="44.54166" lon="2.71063">
        <ele>369</ele>
        <time>2021-08-28T11:02:42Z</time>
      </trkpt>
      <trkpt lat="44.54166" lon="2.71056">
        <ele>370</ele>
        <time>2021-08-28T11:02:44Z</time>
      </trkpt>
      <trkpt lat="44.54168" lon="2.71038">
        <ele>372</ele>
        <time>2021-08-28T11:02:50Z</time>
      </trkpt>
      <trkpt lat="44.54169" lon="2.71029">
        <ele>373</ele>
        <time>2021-08-28T11:02:53Z</time>
      </trkpt>
      <trkpt lat="44.54172" lon="2.71005">
        <ele>376</ele>
        <time>2021-08-28T11:03:01Z</time>
      </trkpt>
      <trkpt lat="44.54172" lon="2.70998">
        <ele>376</ele>
        <time>2021-08-28T11:03:03Z</time>
      </trkpt>
      <trkpt lat="44.54172" lon="2.7099">
        <ele>377</ele>
        <time>2021-08-28T11:03:06Z</time>
      </trkpt>
      <trkpt lat="44.54186" lon="2.70939">
        <ele>378</ele>
        <time>2021-08-28T11:03:24Z</time>
      </trkpt>
      <trkpt lat="44.54188" lon="2.7091">
        <ele>378</ele>
        <time>2021-08-28T11:03:35Z</time>
      </trkpt>
      <trkpt lat="44.54194" lon="2.70875">
        <ele>377</ele>
        <time>2021-08-28T11:03:47Z</time>
      </trkpt>
      <trkpt lat="44.54195" lon="2.70866">
        <ele>377</ele>
        <time>2021-08-28T11:03:50Z</time>
      </trkpt>
      <trkpt lat="44.54195" lon="2.70858">
        <ele>377</ele>
        <time>2021-08-28T11:03:53Z</time>
      </trkpt>
      <trkpt lat="44.54195" lon="2.70826">
        <ele>381</ele>
        <time>2021-08-28T11:04:05Z</time>
      </trkpt>
      <trkpt lat="44.54194" lon="2.70817">
        <ele>381</ele>
        <time>2021-08-28T11:04:08Z</time>
      </trkpt>
      <trkpt lat="44.54194" lon="2.70808">
        <ele>381</ele>
        <time>2021-08-28T11:04:11Z</time>
      </trkpt>
      <trkpt lat="44.54197" lon="2.70767">
        <ele>381</ele>
        <time>2021-08-28T11:04:24Z</time>
      </trkpt>
      <trkpt lat="44.54199" lon="2.7076">
        <ele>382</ele>
        <time>2021-08-28T11:04:26Z</time>
      </trkpt>
      <trkpt lat="44.54201" lon="2.70745">
        <ele>382</ele>
        <time>2021-08-28T11:04:30Z</time>
      </trkpt>
      <trkpt lat="44.54226" lon="2.70598">
        <ele>386</ele>
        <time>2021-08-28T11:05:02Z</time>
      </trkpt>
      <trkpt lat="44.54232" lon="2.70554">
        <ele>384</ele>
        <time>2021-08-28T11:05:08Z</time>
      </trkpt>
      <trkpt lat="44.54253" lon="2.70465">
        <ele>379</ele>
        <time>2021-08-28T11:05:16Z</time>
      </trkpt>
      <trkpt lat="44.54266" lon="2.70141">
        <ele>367</ele>
        <time>2021-08-28T11:05:45Z</time>
      </trkpt>
      <trkpt lat="44.54231" lon="2.69992">
        <ele>358</ele>
        <time>2021-08-28T11:05:56Z</time>
      </trkpt>
      <trkpt lat="44.54221" lon="2.69971">
        <ele>357</ele>
        <time>2021-08-28T11:05:58Z</time>
      </trkpt>
      <trkpt lat="44.54206" lon="2.6995">
        <ele>356</ele>
        <time>2021-08-28T11:06:00Z</time>
      </trkpt>
      <trkpt lat="44.54162" lon="2.69916">
        <ele>354</ele>
        <time>2021-08-28T11:06:05Z</time>
      </trkpt>
      <trkpt lat="44.54145" lon="2.6991">
        <ele>352</ele>
        <time>2021-08-28T11:06:07Z</time>
      </trkpt>
      <trkpt lat="44.54138" lon="2.69906">
        <ele>351</ele>
        <time>2021-08-28T11:06:08Z</time>
      </trkpt>
      <trkpt lat="44.54133" lon="2.69898">
        <ele>351</ele>
        <time>2021-08-28T11:06:09Z</time>
      </trkpt>
      <trkpt lat="44.5413" lon="2.69886">
        <ele>350</ele>
        <time>2021-08-28T11:06:10Z</time>
      </trkpt>
      <trkpt lat="44.54128" lon="2.69862">
        <ele>349</ele>
        <time>2021-08-28T11:06:12Z</time>
      </trkpt>
      <trkpt lat="44.54131" lon="2.69843">
        <ele>351</ele>
        <time>2021-08-28T11:06:14Z</time>
      </trkpt>
      <trkpt lat="44.54133" lon="2.69835">
        <ele>352</ele>
        <time>2021-08-28T11:06:15Z</time>
      </trkpt>
      <trkpt lat="44.54191" lon="2.69727">
        <ele>350</ele>
        <time>2021-08-28T11:06:46Z</time>
      </trkpt>
      <trkpt lat="44.54211" lon="2.69682">
        <ele>350</ele>
        <time>2021-08-28T11:07:00Z</time>
      </trkpt>
      <trkpt lat="44.54226" lon="2.69606">
        <ele>350</ele>
        <time>2021-08-28T11:07:18Z</time>
      </trkpt>
      <trkpt lat="44.54248" lon="2.6947">
        <ele>354</ele>
        <time>2021-08-28T11:07:50Z</time>
      </trkpt>
      <trkpt lat="44.54251" lon="2.69443">
        <ele>354</ele>
        <time>2021-08-28T11:07:56Z</time>
      </trkpt>
      <trkpt lat="44.5425" lon="2.69415">
        <ele>355</ele>
        <time>2021-08-28T11:08:02Z</time>
      </trkpt>
      <trkpt lat="44.54213" lon="2.69227">
        <ele>353</ele>
        <time>2021-08-28T11:08:33Z</time>
      </trkpt>
      <trkpt lat="44.5421" lon="2.69203">
        <ele>353</ele>
        <time>2021-08-28T11:08:36Z</time>
      </trkpt>
      <trkpt lat="44.54208" lon="2.68947">
        <ele>347</ele>
        <time>2021-08-28T11:09:06Z</time>
      </trkpt>
      <trkpt lat="44.54194" lon="2.68852">
        <ele>343</ele>
        <time>2021-08-28T11:09:15Z</time>
      </trkpt>
      <trkpt lat="44.54194" lon="2.68808">
        <ele>341</ele>
        <time>2021-08-28T11:09:18Z</time>
      </trkpt>
      <trkpt lat="44.54199" lon="2.68779">
        <ele>340</ele>
        <time>2021-08-28T11:09:20Z</time>
      </trkpt>
      <trkpt lat="44.54204" lon="2.68766">
        <ele>339</ele>
        <time>2021-08-28T11:09:21Z</time>
      </trkpt>
      <trkpt lat="44.54224" lon="2.68739">
        <ele>339</ele>
        <time>2021-08-28T11:09:24Z</time>
      </trkpt>
      <trkpt lat="44.5424" lon="2.68723">
        <ele>340</ele>
        <time>2021-08-28T11:09:27Z</time>
      </trkpt>
      <trkpt lat="44.54251" lon="2.68703">
        <ele>339</ele>
        <time>2021-08-28T11:09:31Z</time>
      </trkpt>
      <trkpt lat="44.54258" lon="2.68684">
        <ele>337</ele>
        <time>2021-08-28T11:09:35Z</time>
      </trkpt>
      <trkpt lat="44.54264" lon="2.68655">
        <ele>336</ele>
        <time>2021-08-28T11:09:40Z</time>
      </trkpt>
      <trkpt lat="44.54261" lon="2.68522">
        <ele>337</ele>
        <time>2021-08-28T11:10:07Z</time>
      </trkpt>
      <trkpt lat="44.54263" lon="2.68514">
        <ele>337</ele>
        <time>2021-08-28T11:10:19Z</time>
      </trkpt>
      <trkpt lat="44.54267" lon="2.68508">
        <ele>337</ele>
        <time>2021-08-28T11:11:11Z</time>
      </trkpt>
      <trkpt lat="44.54325" lon="2.68408">
        <ele>337</ele>
        <time>2021-08-28T11:11:32Z</time>
      </trkpt>
      <trkpt lat="44.54363" lon="2.68303">
        <ele>333</ele>
        <time>2021-08-28T11:11:42Z</time>
      </trkpt>
      <trkpt lat="44.54371" lon="2.6825">
        <ele>332</ele>
        <time>2021-08-28T11:11:46Z</time>
      </trkpt>
      <trkpt lat="44.54386" lon="2.68213">
        <ele>330</ele>
        <time>2021-08-28T11:11:49Z</time>
      </trkpt>
      <trkpt lat="44.54405" lon="2.68185">
        <ele>332</ele>
        <time>2021-08-28T11:11:52Z</time>
      </trkpt>
      <trkpt lat="44.5442" lon="2.68174">
        <ele>332</ele>
        <time>2021-08-28T11:11:54Z</time>
      </trkpt>
      <trkpt lat="44.54434" lon="2.68169">
        <ele>332</ele>
        <time>2021-08-28T11:11:56Z</time>
      </trkpt>
      <trkpt lat="44.54463" lon="2.68168">
        <ele>334</ele>
        <time>2021-08-28T11:12:02Z</time>
      </trkpt>
      <trkpt lat="44.5447" lon="2.68159">
        <ele>333</ele>
        <time>2021-08-28T11:12:51Z</time>
      </trkpt>
      <trkpt lat="44.54506" lon="2.68145">
        <ele>335</ele>
        <time>2021-08-28T11:13:07Z</time>
      </trkpt>
      <trkpt lat="44.54546" lon="2.68146">
        <ele>342</ele>
        <time>2021-08-28T11:13:21Z</time>
      </trkpt>
      <trkpt lat="44.54558" lon="2.68152">
        <ele>345</ele>
        <time>2021-08-28T11:13:25Z</time>
      </trkpt>
      <trkpt lat="44.54598" lon="2.68168">
        <ele>357</ele>
        <time>2021-08-28T11:13:37Z</time>
      </trkpt>
      <trkpt lat="44.54607" lon="2.68175">
        <ele>356</ele>
        <time>2021-08-28T11:13:39Z</time>
      </trkpt>
      <trkpt lat="44.54616" lon="2.68184">
        <ele>352</ele>
        <time>2021-08-28T11:13:41Z</time>
      </trkpt>
      <trkpt lat="44.54622" lon="2.68195">
        <ele>349</ele>
        <time>2021-08-28T11:13:43Z</time>
      </trkpt>
      <trkpt lat="44.54628" lon="2.68206">
        <ele>347</ele>
        <time>2021-08-28T11:13:45Z</time>
      </trkpt>
      <trkpt lat="44.54634" lon="2.68216">
        <ele>343</ele>
        <time>2021-08-28T11:13:47Z</time>
      </trkpt>
      <trkpt lat="44.54643" lon="2.68235">
        <ele>339</ele>
        <time>2021-08-28T11:13:51Z</time>
      </trkpt>
      <trkpt lat="44.54665" lon="2.68286">
        <ele>331</ele>
        <time>2021-08-28T11:14:03Z</time>
      </trkpt>
      <trkpt lat="44.54707" lon="2.68348">
        <ele>323</ele>
        <time>2021-08-28T11:14:17Z</time>
      </trkpt>
      <trkpt lat="44.54772" lon="2.6855">
        <ele>295</ele>
        <time>2021-08-28T11:14:48Z</time>
      </trkpt>
      <trkpt lat="44.54777" lon="2.68564">
        <ele>294</ele>
        <time>2021-08-28T11:14:50Z</time>
      </trkpt>
      <trkpt lat="44.54824" lon="2.68667">
        <ele>283</ele>
        <time>2021-08-28T11:15:06Z</time>
      </trkpt>
      <trkpt lat="44.5483" lon="2.68678">
        <ele>281</ele>
        <time>2021-08-28T11:15:08Z</time>
      </trkpt>
      <trkpt lat="44.54862" lon="2.68722">
        <ele>281</ele>
        <time>2021-08-28T11:15:16Z</time>
      </trkpt>
      <trkpt lat="44.54866" lon="2.68729">
        <ele>282</ele>
        <time>2021-08-28T11:15:17Z</time>
      </trkpt>
      <trkpt lat="44.54894" lon="2.68761">
        <ele>291</ele>
        <time>2021-08-28T11:15:23Z</time>
      </trkpt>
      <trkpt lat="44.54904" lon="2.68768">
        <ele>293</ele>
        <time>2021-08-28T11:15:25Z</time>
      </trkpt>
      <trkpt lat="44.54909" lon="2.68769">
        <ele>294</ele>
        <time>2021-08-28T11:15:26Z</time>
      </trkpt>
      <trkpt lat="44.54921" lon="2.68768">
        <ele>295</ele>
        <time>2021-08-28T11:15:28Z</time>
      </trkpt>
      <trkpt lat="44.54926" lon="2.68765">
        <ele>295</ele>
        <time>2021-08-28T11:15:29Z</time>
      </trkpt>
      <trkpt lat="44.54934" lon="2.68755">
        <ele>297</ele>
        <time>2021-08-28T11:15:31Z</time>
      </trkpt>
      <trkpt lat="44.54943" lon="2.68719">
        <ele>303</ele>
        <time>2021-08-28T11:15:36Z</time>
      </trkpt>
      <trkpt lat="44.54944" lon="2.68711">
        <ele>304</ele>
        <time>2021-08-28T11:15:37Z</time>
      </trkpt>
      <trkpt lat="44.54942" lon="2.68687">
        <ele>305</ele>
        <time>2021-08-28T11:15:40Z</time>
      </trkpt>
      <trkpt lat="44.5493" lon="2.68644">
        <ele>305</ele>
        <time>2021-08-28T11:15:47Z</time>
      </trkpt>
      <trkpt lat="44.5493" lon="2.68617">
        <ele>303</ele>
        <time>2021-08-28T11:15:50Z</time>
      </trkpt>
      <trkpt lat="44.54933" lon="2.68577">
        <ele>301</ele>
        <time>2021-08-28T11:15:55Z</time>
      </trkpt>
      <trkpt lat="44.54931" lon="2.68564">
        <ele>299</ele>
        <time>2021-08-28T11:15:57Z</time>
      </trkpt>
      <trkpt lat="44.54926" lon="2.68553">
        <ele>299</ele>
        <time>2021-08-28T11:15:59Z</time>
      </trkpt>
      <trkpt lat="44.5492" lon="2.68542">
        <ele>298</ele>
        <time>2021-08-28T11:16:01Z</time>
      </trkpt>
      <trkpt lat="44.54914" lon="2.68532">
        <ele>297</ele>
        <time>2021-08-28T11:16:03Z</time>
      </trkpt>
      <trkpt lat="44.54909" lon="2.6852">
        <ele>296</ele>
        <time>2021-08-28T11:16:05Z</time>
      </trkpt>
      <trkpt lat="44.54901" lon="2.68472">
        <ele>295</ele>
        <time>2021-08-28T11:16:11Z</time>
      </trkpt>
      <trkpt lat="44.54899" lon="2.68458">
        <ele>294</ele>
        <time>2021-08-28T11:16:13Z</time>
      </trkpt>
      <trkpt lat="44.54896" lon="2.68447">
        <ele>293</ele>
        <time>2021-08-28T11:16:15Z</time>
      </trkpt>
      <trkpt lat="44.54898" lon="2.68385">
        <ele>291</ele>
        <time>2021-08-28T11:16:23Z</time>
      </trkpt>
      <trkpt lat="44.54894" lon="2.68369">
        <ele>290</ele>
        <time>2021-08-28T11:16:25Z</time>
      </trkpt>
      <trkpt lat="44.5489" lon="2.68354">
        <ele>289</ele>
        <time>2021-08-28T11:16:27Z</time>
      </trkpt>
      <trkpt lat="44.54892" lon="2.68305">
        <ele>290</ele>
        <time>2021-08-28T11:16:33Z</time>
      </trkpt>
      <trkpt lat="44.54881" lon="2.68275">
        <ele>292</ele>
        <time>2021-08-28T11:16:37Z</time>
      </trkpt>
      <trkpt lat="44.54857" lon="2.68203">
        <ele>289</ele>
        <time>2021-08-28T11:16:47Z</time>
      </trkpt>
      <trkpt lat="44.54853" lon="2.68195">
        <ele>289</ele>
        <time>2021-08-28T11:16:49Z</time>
      </trkpt>
      <trkpt lat="44.5485" lon="2.68177">
        <ele>289</ele>
        <time>2021-08-28T11:16:53Z</time>
      </trkpt>
      <trkpt lat="44.54848" lon="2.68171">
        <ele>290</ele>
        <time>2021-08-28T11:16:55Z</time>
      </trkpt>
      <trkpt lat="44.5485" lon="2.68164">
        <ele>291</ele>
        <time>2021-08-28T11:17:38Z</time>
      </trkpt>
      <trkpt lat="44.54834" lon="2.68118">
        <ele>298</ele>
        <time>2021-08-28T11:17:50Z</time>
      </trkpt>
      <trkpt lat="44.54831" lon="2.68107">
        <ele>300</ele>
        <time>2021-08-28T11:17:52Z</time>
      </trkpt>
      <trkpt lat="44.54832" lon="2.6801">
        <ele>299</ele>
        <time>2021-08-28T11:18:07Z</time>
      </trkpt>
      <trkpt lat="44.54837" lon="2.67983">
        <ele>301</ele>
        <time>2021-08-28T11:18:11Z</time>
      </trkpt>
      <trkpt lat="44.54846" lon="2.67957">
        <ele>302</ele>
        <time>2021-08-28T11:18:16Z</time>
      </trkpt>
      <trkpt lat="44.5487" lon="2.67909">
        <ele>305</ele>
        <time>2021-08-28T11:18:24Z</time>
      </trkpt>
      <trkpt lat="44.55006" lon="2.67767">
        <ele>308</ele>
        <time>2021-08-28T11:18:48Z</time>
      </trkpt>
      <trkpt lat="44.55064" lon="2.67674">
        <ele>307</ele>
        <time>2021-08-28T11:19:07Z</time>
      </trkpt>
      <trkpt lat="44.55073" lon="2.67646">
        <ele>307</ele>
        <time>2021-08-28T11:19:13Z</time>
      </trkpt>
      <trkpt lat="44.55075" lon="2.67636">
        <ele>306</ele>
        <time>2021-08-28T11:19:15Z</time>
      </trkpt>
      <trkpt lat="44.55074" lon="2.67605">
        <ele>305</ele>
        <time>2021-08-28T11:19:23Z</time>
      </trkpt>
      <trkpt lat="44.55083" lon="2.67582">
        <ele>305</ele>
        <time>2021-08-28T11:19:27Z</time>
      </trkpt>
      <trkpt lat="44.55094" lon="2.67554">
        <ele>306</ele>
        <time>2021-08-28T11:19:34Z</time>
      </trkpt>
      <trkpt lat="44.5516" lon="2.67466">
        <ele>306</ele>
        <time>2021-08-28T11:19:56Z</time>
      </trkpt>
      <trkpt lat="44.55187" lon="2.67442">
        <ele>304</ele>
        <time>2021-08-28T11:20:10Z</time>
      </trkpt>
      <trkpt lat="44.55198" lon="2.67427">
        <ele>305</ele>
        <time>2021-08-28T11:21:21Z</time>
      </trkpt>
      <trkpt lat="44.55201" lon="2.67421">
        <ele>306</ele>
        <time>2021-08-28T11:21:27Z</time>
      </trkpt>
      <trkpt lat="44.55208" lon="2.67413">
        <ele>307</ele>
        <time>2021-08-28T11:21:35Z</time>
      </trkpt>
      <trkpt lat="44.55216" lon="2.674">
        <ele>308</ele>
        <time>2021-08-28T11:22:01Z</time>
      </trkpt>
      <trkpt lat="44.55219" lon="2.67396">
        <ele>309</ele>
        <time>2021-08-28T11:22:03Z</time>
      </trkpt>
      <trkpt lat="44.55223" lon="2.67387">
        <ele>309</ele>
        <time>2021-08-28T11:22:06Z</time>
      </trkpt>
      <trkpt lat="44.55226" lon="2.67381">
        <ele>309</ele>
        <time>2021-08-28T11:22:09Z</time>
      </trkpt>
      <trkpt lat="44.55226" lon="2.67374">
        <ele>310</ele>
        <time>2021-08-28T11:22:14Z</time>
      </trkpt>
      <trkpt lat="44.55228" lon="2.67367">
        <ele>312</ele>
        <time>2021-08-28T11:23:09Z</time>
      </trkpt>
      <trkpt lat="44.55229" lon="2.67357">
        <ele>313</ele>
        <time>2021-08-28T11:23:17Z</time>
      </trkpt>
      <trkpt lat="44.55228" lon="2.67259">
        <ele>312</ele>
        <time>2021-08-28T11:23:39Z</time>
      </trkpt>
      <trkpt lat="44.55228" lon="2.67242">
        <ele>312</ele>
        <time>2021-08-28T11:23:44Z</time>
      </trkpt>
      <trkpt lat="44.55224" lon="2.67222">
        <ele>311</ele>
        <time>2021-08-28T11:23:53Z</time>
      </trkpt>
      <trkpt lat="44.55227" lon="2.67214">
        <ele>311</ele>
        <time>2021-08-28T11:23:56Z</time>
      </trkpt>
      <trkpt lat="44.5523" lon="2.67209">
        <ele>311</ele>
        <time>2021-08-28T11:23:58Z</time>
      </trkpt>
      <trkpt lat="44.55242" lon="2.67205">
        <ele>311</ele>
        <time>2021-08-28T11:24:02Z</time>
      </trkpt>
      <trkpt lat="44.55248" lon="2.67201">
        <ele>311</ele>
        <time>2021-08-28T11:24:04Z</time>
      </trkpt>
      <trkpt lat="44.55272" lon="2.67195">
        <ele>314</ele>
        <time>2021-08-28T11:24:35Z</time>
      </trkpt>
      <trkpt lat="44.55322" lon="2.67178">
        <ele>317</ele>
        <time>2021-08-28T11:24:56Z</time>
      </trkpt>
      <trkpt lat="44.55333" lon="2.67176">
        <ele>314</ele>
        <time>2021-08-28T11:25:04Z</time>
      </trkpt>
      <trkpt lat="44.55344" lon="2.672">
        <ele>319</ele>
        <time>2021-08-28T11:25:28Z</time>
      </trkpt>
      <trkpt lat="44.55341" lon="2.67194">
        <ele>320</ele>
        <time>2021-08-28T11:25:56Z</time>
      </trkpt>
      <trkpt lat="44.5534" lon="2.67196">
        <ele>323</ele>
        <time>2021-08-28T11:30:31Z</time>
      </trkpt>
      <trkpt lat="44.55347" lon="2.67199">
        <ele>323</ele>
        <time>2021-08-28T11:30:38Z</time>
      </trkpt>
      <trkpt lat="44.55356" lon="2.67208">
        <ele>323</ele>
        <time>2021-08-28T11:30:50Z</time>
      </trkpt>
      <trkpt lat="44.5536" lon="2.67203">
        <ele>322</ele>
        <time>2021-08-28T11:31:11Z</time>
      </trkpt>
      <trkpt lat="44.55364" lon="2.67199">
        <ele>322</ele>
        <time>2021-08-28T11:31:17Z</time>
      </trkpt>
      <trkpt lat="44.55369" lon="2.67197">
        <ele>325</ele>
        <time>2021-08-28T11:31:55Z</time>
      </trkpt>
      <trkpt lat="44.55382" lon="2.67195">
        <ele>328</ele>
        <time>2021-08-28T11:32:32Z</time>
      </trkpt>
      <trkpt lat="44.55388" lon="2.67195">
        <ele>334</ele>
        <time>2021-08-28T11:32:41Z</time>
      </trkpt>
      <trkpt lat="44.55393" lon="2.67199">
        <ele>335</ele>
        <time>2021-08-28T11:32:46Z</time>
      </trkpt>
      <trkpt lat="44.55395" lon="2.67209">
        <ele>335</ele>
        <time>2021-08-28T11:32:59Z</time>
      </trkpt>
      <trkpt lat="44.55397" lon="2.67223">
        <ele>333</ele>
        <time>2021-08-28T11:33:21Z</time>
      </trkpt>
      <trkpt lat="44.55402" lon="2.67238">
        <ele>323</ele>
        <time>2021-08-28T11:33:30Z</time>
      </trkpt>
      <trkpt lat="44.55396" lon="2.67243">
        <ele>319</ele>
        <time>2021-08-28T11:34:06Z</time>
      </trkpt>
      <trkpt lat="44.554" lon="2.67249">
        <ele>319</ele>
        <time>2021-08-28T11:35:16Z</time>
      </trkpt>
      <trkpt lat="44.55405" lon="2.67253">
        <ele>321</ele>
        <time>2021-08-28T11:35:50Z</time>
      </trkpt>
      <trkpt lat="44.55409" lon="2.67259">
        <ele>321</ele>
        <time>2021-08-28T11:36:02Z</time>
      </trkpt>
      <trkpt lat="44.55417" lon="2.6727">
        <ele>318</ele>
        <time>2021-08-28T11:36:16Z</time>
      </trkpt>
      <trkpt lat="44.55425" lon="2.67276">
        <ele>317</ele>
        <time>2021-08-28T11:36:22Z</time>
      </trkpt>
      <trkpt lat="44.55443" lon="2.6729">
        <ele>312</ele>
        <time>2021-08-28T11:36:44Z</time>
      </trkpt>
      <trkpt lat="44.55448" lon="2.67293">
        <ele>314</ele>
        <time>2021-08-28T11:36:53Z</time>
      </trkpt>
      <trkpt lat="44.55449" lon="2.673">
        <ele>313</ele>
        <time>2021-08-28T11:36:59Z</time>
      </trkpt>
      <trkpt lat="44.55453" lon="2.67304">
        <ele>310</ele>
        <time>2021-08-28T11:37:05Z</time>
      </trkpt>
      <trkpt lat="44.55454" lon="2.6731">
        <ele>309</ele>
        <time>2021-08-28T11:37:11Z</time>
      </trkpt>
      <trkpt lat="44.55457" lon="2.67316">
        <ele>310</ele>
        <time>2021-08-28T11:37:16Z</time>
      </trkpt>
      <trkpt lat="44.55461" lon="2.6732">
        <ele>313</ele>
        <time>2021-08-28T11:37:22Z</time>
      </trkpt>
      <trkpt lat="44.55463" lon="2.67331">
        <ele>315</ele>
        <time>2021-08-28T11:37:38Z</time>
      </trkpt>
      <trkpt lat="44.55466" lon="2.67337">
        <ele>315</ele>
        <time>2021-08-28T11:38:03Z</time>
      </trkpt>
      <trkpt lat="44.55465" lon="2.67336">
        <ele>316</ele>
        <time>2021-08-28T11:39:32Z</time>
      </trkpt>
      <trkpt lat="44.55468" lon="2.67331">
        <ele>316</ele>
        <time>2021-08-28T11:39:45Z</time>
      </trkpt>
      <trkpt lat="44.55482" lon="2.67334">
        <ele>315</ele>
        <time>2021-08-28T11:40:10Z</time>
      </trkpt>
      <trkpt lat="44.55495" lon="2.67335">
        <ele>312</ele>
        <time>2021-08-28T11:40:19Z</time>
      </trkpt>
      <trkpt lat="44.55498" lon="2.67331">
        <ele>314</ele>
        <time>2021-08-28T11:40:28Z</time>
      </trkpt>
      <trkpt lat="44.55494" lon="2.67327">
        <ele>315</ele>
        <time>2021-08-28T11:40:37Z</time>
      </trkpt>
      <trkpt lat="44.5549" lon="2.67322">
        <ele>315</ele>
        <time>2021-08-28T11:40:43Z</time>
      </trkpt>
      <trkpt lat="44.5549" lon="2.67315">
        <ele>316</ele>
        <time>2021-08-28T11:40:48Z</time>
      </trkpt>
      <trkpt lat="44.55487" lon="2.67308">
        <ele>319</ele>
        <time>2021-08-28T11:41:01Z</time>
      </trkpt>
      <trkpt lat="44.55484" lon="2.67304">
        <ele>324</ele>
        <time>2021-08-28T11:41:23Z</time>
      </trkpt>
      <trkpt lat="44.5548" lon="2.67298">
        <ele>324</ele>
        <time>2021-08-28T11:41:54Z</time>
      </trkpt>
      <trkpt lat="44.55474" lon="2.67284">
        <ele>326</ele>
        <time>2021-08-28T11:42:23Z</time>
      </trkpt>
      <trkpt lat="44.55461" lon="2.67269">
        <ele>326</ele>
        <time>2021-08-28T11:42:49Z</time>
      </trkpt>
      <trkpt lat="44.55463" lon="2.67263">
        <ele>327</ele>
        <time>2021-08-28T11:43:08Z</time>
      </trkpt>
      <trkpt lat="44.55471" lon="2.67253">
        <ele>327</ele>
        <time>2021-08-28T11:43:18Z</time>
      </trkpt>
      <trkpt lat="44.55473" lon="2.67246">
        <ele>327</ele>
        <time>2021-08-28T11:43:22Z</time>
      </trkpt>
      <trkpt lat="44.55475" lon="2.67241">
        <ele>324</ele>
        <time>2021-08-28T11:43:37Z</time>
      </trkpt>
      <trkpt lat="44.55475" lon="2.67234">
        <ele>324</ele>
        <time>2021-08-28T11:43:43Z</time>
      </trkpt>
      <trkpt lat="44.55483" lon="2.67232">
        <ele>326</ele>
        <time>2021-08-28T11:44:45Z</time>
      </trkpt>
      <trkpt lat="44.55473" lon="2.67222">
        <ele>326</ele>
        <time>2021-08-28T11:45:00Z</time>
      </trkpt>
      <trkpt lat="44.55466" lon="2.6722">
        <ele>332</ele>
        <time>2021-08-28T11:45:03Z</time>
      </trkpt>
      <trkpt lat="44.55464" lon="2.67215">
        <ele>335</ele>
        <time>2021-08-28T11:45:09Z</time>
      </trkpt>
      <trkpt lat="44.5548" lon="2.67211">
        <ele>336</ele>
        <time>2021-08-28T11:45:26Z</time>
      </trkpt>
      <trkpt lat="44.55501" lon="2.67216">
        <ele>344</ele>
        <time>2021-08-28T11:45:53Z</time>
      </trkpt>
      <trkpt lat="44.55506" lon="2.67219">
        <ele>344</ele>
        <time>2021-08-28T11:45:55Z</time>
      </trkpt>
      <trkpt lat="44.55511" lon="2.67209">
        <ele>343</ele>
        <time>2021-08-28T11:46:18Z</time>
      </trkpt>
      <trkpt lat="44.55511" lon="2.67201">
        <ele>343</ele>
        <time>2021-08-28T11:46:22Z</time>
      </trkpt>
      <trkpt lat="44.55507" lon="2.67191">
        <ele>343</ele>
        <time>2021-08-28T11:46:28Z</time>
      </trkpt>
      <trkpt lat="44.55509" lon="2.67179">
        <ele>338</ele>
        <time>2021-08-28T11:46:38Z</time>
      </trkpt>
      <trkpt lat="44.55515" lon="2.67167">
        <ele>336</ele>
        <time>2021-08-28T11:46:48Z</time>
      </trkpt>
      <trkpt lat="44.55518" lon="2.67162">
        <ele>332</ele>
        <time>2021-08-28T11:46:53Z</time>
      </trkpt>
      <trkpt lat="44.55511" lon="2.6716">
        <ele>330</ele>
        <time>2021-08-28T11:47:00Z</time>
      </trkpt>
      <trkpt lat="44.55506" lon="2.67153">
        <ele>329</ele>
        <time>2021-08-28T11:47:13Z</time>
      </trkpt>
      <trkpt lat="44.555" lon="2.67155">
        <ele>329</ele>
        <time>2021-08-28T11:47:18Z</time>
      </trkpt>
      <trkpt lat="44.55494" lon="2.67156">
        <ele>329</ele>
        <time>2021-08-28T11:47:25Z</time>
      </trkpt>
      <trkpt lat="44.55491" lon="2.67162">
        <ele>329</ele>
        <time>2021-08-28T11:47:31Z</time>
      </trkpt>
      <trkpt lat="44.55486" lon="2.67162">
        <ele>330</ele>
        <time>2021-08-28T11:47:37Z</time>
      </trkpt>
      <trkpt lat="44.55482" lon="2.67165">
        <ele>330</ele>
        <time>2021-08-28T11:47:44Z</time>
      </trkpt>
      <trkpt lat="44.55477" lon="2.67171">
        <ele>330</ele>
        <time>2021-08-28T11:47:55Z</time>
      </trkpt>
      <trkpt lat="44.55475" lon="2.67178">
        <ele>331</ele>
        <time>2021-08-28T11:47:59Z</time>
      </trkpt>
      <trkpt lat="44.55469" lon="2.67185">
        <ele>331</ele>
        <time>2021-08-28T11:48:05Z</time>
      </trkpt>
      <trkpt lat="44.55463" lon="2.67188">
        <ele>331</ele>
        <time>2021-08-28T11:48:09Z</time>
      </trkpt>
      <trkpt lat="44.55458" lon="2.67194">
        <ele>328</ele>
        <time>2021-08-28T11:48:14Z</time>
      </trkpt>
      <trkpt lat="44.55449" lon="2.67191">
        <ele>330</ele>
        <time>2021-08-28T11:48:32Z</time>
      </trkpt>
      <trkpt lat="44.55444" lon="2.67194">
        <ele>331</ele>
        <time>2021-08-28T11:48:56Z</time>
      </trkpt>
      <trkpt lat="44.5544" lon="2.67198">
        <ele>329</ele>
        <time>2021-08-28T11:49:01Z</time>
      </trkpt>
      <trkpt lat="44.55432" lon="2.67195">
        <ele>326</ele>
        <time>2021-08-28T11:49:12Z</time>
      </trkpt>
      <trkpt lat="44.55427" lon="2.67198">
        <ele>324</ele>
        <time>2021-08-28T11:49:19Z</time>
      </trkpt>
      <trkpt lat="44.55419" lon="2.67203">
        <ele>324</ele>
        <time>2021-08-28T11:49:33Z</time>
      </trkpt>
      <trkpt lat="44.55408" lon="2.672">
        <ele>326</ele>
        <time>2021-08-28T11:49:52Z</time>
      </trkpt>
      <trkpt lat="44.55403" lon="2.67203">
        <ele>319</ele>
        <time>2021-08-28T11:50:10Z</time>
      </trkpt>
      <trkpt lat="44.55391" lon="2.67205">
        <ele>316</ele>
        <time>2021-08-28T11:50:27Z</time>
      </trkpt>
      <trkpt lat="44.55385" lon="2.67204">
        <ele>315</ele>
        <time>2021-08-28T11:50:33Z</time>
      </trkpt>
      <trkpt lat="44.55379" lon="2.67209">
        <ele>314</ele>
        <time>2021-08-28T11:50:40Z</time>
      </trkpt>
      <trkpt lat="44.55371" lon="2.67211">
        <ele>312</ele>
        <time>2021-08-28T11:50:51Z</time>
      </trkpt>
      <trkpt lat="44.55358" lon="2.67207">
        <ele>311</ele>
        <time>2021-08-28T11:51:04Z</time>
      </trkpt>
      <trkpt lat="44.55346" lon="2.67207">
        <ele>309</ele>
        <time>2021-08-28T11:51:26Z</time>
      </trkpt>
      <trkpt lat="44.55341" lon="2.67218">
        <ele>312</ele>
        <time>2021-08-28T11:52:06Z</time>
      </trkpt>
      <trkpt lat="44.55336" lon="2.67238">
        <ele>314</ele>
        <time>2021-08-28T11:52:40Z</time>
      </trkpt>
      <trkpt lat="44.55333" lon="2.67248">
        <ele>311</ele>
        <time>2021-08-28T11:52:49Z</time>
      </trkpt>
      <trkpt lat="44.55331" lon="2.67258">
        <ele>309</ele>
        <time>2021-08-28T11:52:56Z</time>
      </trkpt>
      <trkpt lat="44.55332" lon="2.67269">
        <ele>305</ele>
        <time>2021-08-28T11:53:04Z</time>
      </trkpt>
      <trkpt lat="44.55331" lon="2.67268">
        <ele>312</ele>
        <time>2021-08-28T11:54:09Z</time>
      </trkpt>
      <trkpt lat="44.55338" lon="2.67239">
        <ele>325</ele>
        <time>2021-08-28T11:54:42Z</time>
      </trkpt>
      <trkpt lat="44.55338" lon="2.67212">
        <ele>332</ele>
        <time>2021-08-28T11:55:13Z</time>
      </trkpt>
      <trkpt lat="44.55335" lon="2.67203">
        <ele>333</ele>
        <time>2021-08-28T12:00:02Z</time>
      </trkpt>
      <trkpt lat="44.55338" lon="2.67189">
        <ele>332</ele>
        <time>2021-08-28T12:00:16Z</time>
      </trkpt>
      <trkpt lat="44.55333" lon="2.67183">
        <ele>332</ele>
        <time>2021-08-28T12:00:26Z</time>
      </trkpt>
      <trkpt lat="44.55329" lon="2.67181">
        <ele>331</ele>
        <time>2021-08-28T12:00:28Z</time>
      </trkpt>
      <trkpt lat="44.55291" lon="2.67186">
        <ele>333</ele>
        <time>2021-08-28T12:00:44Z</time>
      </trkpt>
      <trkpt lat="44.55287" lon="2.67189">
        <ele>331</ele>
        <time>2021-08-28T12:00:48Z</time>
      </trkpt>
      <trkpt lat="44.55282" lon="2.67191">
        <ele>330</ele>
        <time>2021-08-28T12:01:00Z</time>
      </trkpt>
      <trkpt lat="44.55256" lon="2.67199">
        <ele>328</ele>
        <time>2021-08-28T12:01:12Z</time>
      </trkpt>
      <trkpt lat="44.5524" lon="2.67205">
        <ele>324</ele>
        <time>2021-08-28T12:01:19Z</time>
      </trkpt>
      <trkpt lat="44.55235" lon="2.67206">
        <ele>324</ele>
        <time>2021-08-28T12:01:21Z</time>
      </trkpt>
      <trkpt lat="44.5522" lon="2.67205">
        <ele>323</ele>
        <time>2021-08-28T12:01:27Z</time>
      </trkpt>
      <trkpt lat="44.55155" lon="2.67204">
        <ele>320</ele>
        <time>2021-08-28T12:01:57Z</time>
      </trkpt>
      <trkpt lat="44.55107" lon="2.67196">
        <ele>320</ele>
        <time>2021-08-28T12:02:24Z</time>
      </trkpt>
      <trkpt lat="44.55102" lon="2.67194">
        <ele>320</ele>
        <time>2021-08-28T12:02:27Z</time>
      </trkpt>
      <trkpt lat="44.55085" lon="2.67188">
        <ele>321</ele>
        <time>2021-08-28T12:02:36Z</time>
      </trkpt>
      <trkpt lat="44.55051" lon="2.67183">
        <ele>328</ele>
        <time>2021-08-28T12:02:56Z</time>
      </trkpt>
      <trkpt lat="44.55046" lon="2.67184">
        <ele>328</ele>
        <time>2021-08-28T12:02:59Z</time>
      </trkpt>
      <trkpt lat="44.55041" lon="2.67181">
        <ele>329</ele>
        <time>2021-08-28T12:03:02Z</time>
      </trkpt>
      <trkpt lat="44.55037" lon="2.67175">
        <ele>331</ele>
        <time>2021-08-28T12:03:06Z</time>
      </trkpt>
      <trkpt lat="44.55036" lon="2.67168">
        <ele>334</ele>
        <time>2021-08-28T12:03:10Z</time>
      </trkpt>
      <trkpt lat="44.55032" lon="2.67162">
        <ele>336</ele>
        <time>2021-08-28T12:03:14Z</time>
      </trkpt>
      <trkpt lat="44.55029" lon="2.67155">
        <ele>338</ele>
        <time>2021-08-28T12:03:18Z</time>
      </trkpt>
      <trkpt lat="44.5501" lon="2.67147">
        <ele>342</ele>
        <time>2021-08-28T12:03:26Z</time>
      </trkpt>
      <trkpt lat="44.55004" lon="2.67148">
        <ele>342</ele>
        <time>2021-08-28T12:03:28Z</time>
      </trkpt>
      <trkpt lat="44.54997" lon="2.67147">
        <ele>342</ele>
        <time>2021-08-28T12:03:30Z</time>
      </trkpt>
      <trkpt lat="44.54992" lon="2.67148">
        <ele>343</ele>
        <time>2021-08-28T12:03:32Z</time>
      </trkpt>
      <trkpt lat="44.54939" lon="2.6719">
        <ele>352</ele>
        <time>2021-08-28T12:04:03Z</time>
      </trkpt>
      <trkpt lat="44.54935" lon="2.67195">
        <ele>351</ele>
        <time>2021-08-28T12:04:06Z</time>
      </trkpt>
      <trkpt lat="44.5493" lon="2.67199">
        <ele>351</ele>
        <time>2021-08-28T12:04:09Z</time>
      </trkpt>
      <trkpt lat="44.54926" lon="2.67203">
        <ele>351</ele>
        <time>2021-08-28T12:04:12Z</time>
      </trkpt>
      <trkpt lat="44.54922" lon="2.67207">
        <ele>352</ele>
        <time>2021-08-28T12:04:15Z</time>
      </trkpt>
      <trkpt lat="44.54899" lon="2.67226">
        <ele>353</ele>
        <time>2021-08-28T12:04:32Z</time>
      </trkpt>
      <trkpt lat="44.54893" lon="2.67227">
        <ele>353</ele>
        <time>2021-08-28T12:04:36Z</time>
      </trkpt>
      <trkpt lat="44.54888" lon="2.6723">
        <ele>353</ele>
        <time>2021-08-28T12:04:39Z</time>
      </trkpt>
      <trkpt lat="44.54848" lon="2.67245">
        <ele>355</ele>
        <time>2021-08-28T12:05:03Z</time>
      </trkpt>
      <trkpt lat="44.54842" lon="2.67247">
        <ele>355</ele>
        <time>2021-08-28T12:05:06Z</time>
      </trkpt>
      <trkpt lat="44.54792" lon="2.67257">
        <ele>358</ele>
        <time>2021-08-28T12:05:33Z</time>
      </trkpt>
      <trkpt lat="44.5474" lon="2.67238">
        <ele>368</ele>
        <time>2021-08-28T12:06:04Z</time>
      </trkpt>
      <trkpt lat="44.54712" lon="2.67216">
        <ele>378</ele>
        <time>2021-08-28T12:06:21Z</time>
      </trkpt>
      <trkpt lat="44.54706" lon="2.67213">
        <ele>379</ele>
        <time>2021-08-28T12:06:25Z</time>
      </trkpt>
      <trkpt lat="44.54703" lon="2.67208">
        <ele>381</ele>
        <time>2021-08-28T12:06:28Z</time>
      </trkpt>
      <trkpt lat="44.54698" lon="2.67202">
        <ele>381</ele>
        <time>2021-08-28T12:06:30Z</time>
      </trkpt>
      <trkpt lat="44.5468" lon="2.67173">
        <ele>382</ele>
        <time>2021-08-28T12:06:39Z</time>
      </trkpt>
      <trkpt lat="44.54674" lon="2.67161">
        <ele>383</ele>
        <time>2021-08-28T12:06:46Z</time>
      </trkpt>
      <trkpt lat="44.54672" lon="2.67153">
        <ele>385</ele>
        <time>2021-08-28T12:06:50Z</time>
      </trkpt>
      <trkpt lat="44.5467" lon="2.67146">
        <ele>386</ele>
        <time>2021-08-28T12:06:53Z</time>
      </trkpt>
      <trkpt lat="44.54668" lon="2.67138">
        <ele>387</ele>
        <time>2021-08-28T12:06:56Z</time>
      </trkpt>
      <trkpt lat="44.54663" lon="2.67124">
        <ele>387</ele>
        <time>2021-08-28T12:07:01Z</time>
      </trkpt>
      <trkpt lat="44.54657" lon="2.67103">
        <ele>389</ele>
        <time>2021-08-28T12:07:08Z</time>
      </trkpt>
      <trkpt lat="44.54655" lon="2.67097">
        <ele>390</ele>
        <time>2021-08-28T12:07:10Z</time>
      </trkpt>
      <trkpt lat="44.54653" lon="2.6709">
        <ele>391</ele>
        <time>2021-08-28T12:07:12Z</time>
      </trkpt>
      <trkpt lat="44.54654" lon="2.67067">
        <ele>392</ele>
        <time>2021-08-28T12:07:18Z</time>
      </trkpt>
      <trkpt lat="44.54653" lon="2.67052">
        <ele>392</ele>
        <time>2021-08-28T12:07:22Z</time>
      </trkpt>
      <trkpt lat="44.54651" lon="2.67045">
        <ele>391</ele>
        <time>2021-08-28T12:07:25Z</time>
      </trkpt>
      <trkpt lat="44.54647" lon="2.66993">
        <ele>387</ele>
        <time>2021-08-28T12:07:46Z</time>
      </trkpt>
      <trkpt lat="44.54646" lon="2.66986">
        <ele>387</ele>
        <time>2021-08-28T12:07:49Z</time>
      </trkpt>
      <trkpt lat="44.5464" lon="2.66964">
        <ele>388</ele>
        <time>2021-08-28T12:07:58Z</time>
      </trkpt>
      <trkpt lat="44.54633" lon="2.66945">
        <ele>386</ele>
        <time>2021-08-28T12:08:05Z</time>
      </trkpt>
      <trkpt lat="44.54634" lon="2.669">
        <ele>384</ele>
        <time>2021-08-28T12:08:20Z</time>
      </trkpt>
      <trkpt lat="44.54633" lon="2.66891">
        <ele>384</ele>
        <time>2021-08-28T12:08:23Z</time>
      </trkpt>
      <trkpt lat="44.54628" lon="2.66879">
        <ele>384</ele>
        <time>2021-08-28T12:08:30Z</time>
      </trkpt>
      <trkpt lat="44.5462" lon="2.66859">
        <ele>383</ele>
        <time>2021-08-28T12:08:39Z</time>
      </trkpt>
      <trkpt lat="44.54617" lon="2.66852">
        <ele>383</ele>
        <time>2021-08-28T12:08:42Z</time>
      </trkpt>
      <trkpt lat="44.54613" lon="2.66846">
        <ele>383</ele>
        <time>2021-08-28T12:08:45Z</time>
      </trkpt>
      <trkpt lat="44.54606" lon="2.66833">
        <ele>383</ele>
        <time>2021-08-28T12:08:51Z</time>
      </trkpt>
      <trkpt lat="44.54603" lon="2.66827">
        <ele>383</ele>
        <time>2021-08-28T12:08:54Z</time>
      </trkpt>
      <trkpt lat="44.54599" lon="2.66823">
        <ele>384</ele>
        <time>2021-08-28T12:08:57Z</time>
      </trkpt>
      <trkpt lat="44.54596" lon="2.66816">
        <ele>384</ele>
        <time>2021-08-28T12:09:00Z</time>
      </trkpt>
      <trkpt lat="44.54585" lon="2.66781">
        <ele>390</ele>
        <time>2021-08-28T12:09:14Z</time>
      </trkpt>
      <trkpt lat="44.54583" lon="2.66772">
        <ele>391</ele>
        <time>2021-08-28T12:09:17Z</time>
      </trkpt>
      <trkpt lat="44.54568" lon="2.66736">
        <ele>390</ele>
        <time>2021-08-28T12:09:29Z</time>
      </trkpt>
      <trkpt lat="44.54555" lon="2.66686">
        <ele>389</ele>
        <time>2021-08-28T12:09:44Z</time>
      </trkpt>
      <trkpt lat="44.54554" lon="2.6668">
        <ele>389</ele>
        <time>2021-08-28T12:09:46Z</time>
      </trkpt>
      <trkpt lat="44.54546" lon="2.66659">
        <ele>391</ele>
        <time>2021-08-28T12:09:56Z</time>
      </trkpt>
      <trkpt lat="44.54531" lon="2.6665">
        <ele>391</ele>
        <time>2021-08-28T12:10:04Z</time>
      </trkpt>
      <trkpt lat="44.54525" lon="2.66645">
        <ele>391</ele>
        <time>2021-08-28T12:10:07Z</time>
      </trkpt>
      <trkpt lat="44.54502" lon="2.66626">
        <ele>391</ele>
        <time>2021-08-28T12:10:19Z</time>
      </trkpt>
      <trkpt lat="44.54498" lon="2.6662">
        <ele>390</ele>
        <time>2021-08-28T12:10:22Z</time>
      </trkpt>
      <trkpt lat="44.54496" lon="2.66614">
        <ele>390</ele>
        <time>2021-08-28T12:10:24Z</time>
      </trkpt>
      <trkpt lat="44.54492" lon="2.66607">
        <ele>391</ele>
        <time>2021-08-28T12:10:26Z</time>
      </trkpt>
      <trkpt lat="44.54489" lon="2.6659">
        <ele>394</ele>
        <time>2021-08-28T12:10:30Z</time>
      </trkpt>
      <trkpt lat="44.54492" lon="2.66575">
        <ele>394</ele>
        <time>2021-08-28T12:10:34Z</time>
      </trkpt>
      <trkpt lat="44.54498" lon="2.66562">
        <ele>395</ele>
        <time>2021-08-28T12:10:39Z</time>
      </trkpt>
      <trkpt lat="44.54504" lon="2.66546">
        <ele>395</ele>
        <time>2021-08-28T12:10:45Z</time>
      </trkpt>
      <trkpt lat="44.54508" lon="2.66525">
        <ele>395</ele>
        <time>2021-08-28T12:10:52Z</time>
      </trkpt>
      <trkpt lat="44.54506" lon="2.66479">
        <ele>392</ele>
        <time>2021-08-28T12:11:07Z</time>
      </trkpt>
      <trkpt lat="44.545" lon="2.66445">
        <ele>390</ele>
        <time>2021-08-28T12:11:19Z</time>
      </trkpt>
      <trkpt lat="44.54497" lon="2.66432">
        <ele>390</ele>
        <time>2021-08-28T12:11:23Z</time>
      </trkpt>
      <trkpt lat="44.54496" lon="2.66418">
        <ele>391</ele>
        <time>2021-08-28T12:11:27Z</time>
      </trkpt>
      <trkpt lat="44.54493" lon="2.66388">
        <ele>389</ele>
        <time>2021-08-28T12:11:37Z</time>
      </trkpt>
      <trkpt lat="44.54481" lon="2.66328">
        <ele>390</ele>
        <time>2021-08-28T12:11:58Z</time>
      </trkpt>
      <trkpt lat="44.54475" lon="2.66296">
        <ele>394</ele>
        <time>2021-08-28T12:12:10Z</time>
      </trkpt>
      <trkpt lat="44.54472" lon="2.66289">
        <ele>394</ele>
        <time>2021-08-28T12:12:13Z</time>
      </trkpt>
      <trkpt lat="44.5447" lon="2.66283">
        <ele>395</ele>
        <time>2021-08-28T12:12:16Z</time>
      </trkpt>
      <trkpt lat="44.54465" lon="2.66269">
        <ele>396</ele>
        <time>2021-08-28T12:12:22Z</time>
      </trkpt>
      <trkpt lat="44.54462" lon="2.6626">
        <ele>398</ele>
        <time>2021-08-28T12:12:28Z</time>
      </trkpt>
      <trkpt lat="44.54457" lon="2.66251">
        <ele>399</ele>
        <time>2021-08-28T12:12:33Z</time>
      </trkpt>
      <trkpt lat="44.54455" lon="2.66244">
        <ele>401</ele>
        <time>2021-08-28T12:12:37Z</time>
      </trkpt>
      <trkpt lat="44.54448" lon="2.66233">
        <ele>402</ele>
        <time>2021-08-28T12:12:42Z</time>
      </trkpt>
      <trkpt lat="44.54446" lon="2.66227">
        <ele>403</ele>
        <time>2021-08-28T12:12:44Z</time>
      </trkpt>
      <trkpt lat="44.54438" lon="2.66215">
        <ele>403</ele>
        <time>2021-08-28T12:12:49Z</time>
      </trkpt>
      <trkpt lat="44.54435" lon="2.66211">
        <ele>404</ele>
        <time>2021-08-28T12:12:52Z</time>
      </trkpt>
      <trkpt lat="44.54407" lon="2.66163">
        <ele>412</ele>
        <time>2021-08-28T12:13:14Z</time>
      </trkpt>
      <trkpt lat="44.54396" lon="2.6615">
        <ele>413</ele>
        <time>2021-08-28T12:13:20Z</time>
      </trkpt>
      <trkpt lat="44.54373" lon="2.66113">
        <ele>418</ele>
        <time>2021-08-28T12:13:33Z</time>
      </trkpt>
      <trkpt lat="44.5435" lon="2.6607">
        <ele>422</ele>
        <time>2021-08-28T12:13:48Z</time>
      </trkpt>
      <trkpt lat="44.54323" lon="2.66013">
        <ele>424</ele>
        <time>2021-08-28T12:14:11Z</time>
      </trkpt>
      <trkpt lat="44.54321" lon="2.66006">
        <ele>425</ele>
        <time>2021-08-28T12:14:14Z</time>
      </trkpt>
      <trkpt lat="44.54318" lon="2.65998">
        <ele>425</ele>
        <time>2021-08-28T12:14:18Z</time>
      </trkpt>
      <trkpt lat="44.54284" lon="2.65922">
        <ele>432</ele>
        <time>2021-08-28T12:14:49Z</time>
      </trkpt>
      <trkpt lat="44.5428" lon="2.65905">
        <ele>434</ele>
        <time>2021-08-28T12:14:55Z</time>
      </trkpt>
      <trkpt lat="44.54276" lon="2.65864">
        <ele>439</ele>
        <time>2021-08-28T12:15:10Z</time>
      </trkpt>
      <trkpt lat="44.54279" lon="2.6584">
        <ele>441</ele>
        <time>2021-08-28T12:15:19Z</time>
      </trkpt>
      <trkpt lat="44.54281" lon="2.65832">
        <ele>441</ele>
        <time>2021-08-28T12:15:23Z</time>
      </trkpt>
      <trkpt lat="44.54285" lon="2.65818">
        <ele>442</ele>
        <time>2021-08-28T12:15:29Z</time>
      </trkpt>
      <trkpt lat="44.54294" lon="2.65791">
        <ele>444</ele>
        <time>2021-08-28T12:15:41Z</time>
      </trkpt>
      <trkpt lat="44.543" lon="2.65771">
        <ele>445</ele>
        <time>2021-08-28T12:15:50Z</time>
      </trkpt>
      <trkpt lat="44.54301" lon="2.65764">
        <ele>445</ele>
        <time>2021-08-28T12:15:53Z</time>
      </trkpt>
      <trkpt lat="44.54305" lon="2.65734">
        <ele>446</ele>
        <time>2021-08-28T12:16:05Z</time>
      </trkpt>
      <trkpt lat="44.54305" lon="2.65726">
        <ele>446</ele>
        <time>2021-08-28T12:16:08Z</time>
      </trkpt>
      <trkpt lat="44.54305" lon="2.65703">
        <ele>446</ele>
        <time>2021-08-28T12:16:17Z</time>
      </trkpt>
      <trkpt lat="44.54305" lon="2.65696">
        <ele>446</ele>
        <time>2021-08-28T12:16:20Z</time>
      </trkpt>
      <trkpt lat="44.54302" lon="2.65681">
        <ele>448</ele>
        <time>2021-08-28T12:16:27Z</time>
      </trkpt>
      <trkpt lat="44.54291" lon="2.65646">
        <ele>450</ele>
        <time>2021-08-28T12:16:42Z</time>
      </trkpt>
      <trkpt lat="44.54277" lon="2.65624">
        <ele>452</ele>
        <time>2021-08-28T12:16:54Z</time>
      </trkpt>
      <trkpt lat="44.54274" lon="2.65619">
        <ele>452</ele>
        <time>2021-08-28T12:16:57Z</time>
      </trkpt>
      <trkpt lat="44.5427" lon="2.65614">
        <ele>453</ele>
        <time>2021-08-28T12:17:00Z</time>
      </trkpt>
      <trkpt lat="44.54265" lon="2.65608">
        <ele>453</ele>
        <time>2021-08-28T12:17:03Z</time>
      </trkpt>
      <trkpt lat="44.54248" lon="2.65577">
        <ele>457</ele>
        <time>2021-08-28T12:17:18Z</time>
      </trkpt>
      <trkpt lat="44.54241" lon="2.65545">
        <ele>460</ele>
        <time>2021-08-28T12:17:30Z</time>
      </trkpt>
      <trkpt lat="44.54234" lon="2.65489">
        <ele>464</ele>
        <time>2021-08-28T12:17:51Z</time>
      </trkpt>
      <trkpt lat="44.54232" lon="2.6548">
        <ele>464</ele>
        <time>2021-08-28T12:17:54Z</time>
      </trkpt>
      <trkpt lat="44.54227" lon="2.65463">
        <ele>464</ele>
        <time>2021-08-28T12:18:00Z</time>
      </trkpt>
      <trkpt lat="44.54196" lon="2.65397">
        <ele>456</ele>
        <time>2021-08-28T12:18:30Z</time>
      </trkpt>
      <trkpt lat="44.54177" lon="2.6536">
        <ele>458</ele>
        <time>2021-08-28T12:18:45Z</time>
      </trkpt>
      <trkpt lat="44.54159" lon="2.65327">
        <ele>459</ele>
        <time>2021-08-28T12:18:59Z</time>
      </trkpt>
      <trkpt lat="44.54156" lon="2.65321">
        <ele>460</ele>
        <time>2021-08-28T12:19:02Z</time>
      </trkpt>
      <trkpt lat="44.5415" lon="2.65309">
        <ele>460</ele>
        <time>2021-08-28T12:19:08Z</time>
      </trkpt>
      <trkpt lat="44.54145" lon="2.65295">
        <ele>460</ele>
        <time>2021-08-28T12:19:13Z</time>
      </trkpt>
      <trkpt lat="44.54136" lon="2.65269">
        <ele>463</ele>
        <time>2021-08-28T12:19:21Z</time>
      </trkpt>
      <trkpt lat="44.54134" lon="2.65234">
        <ele>469</ele>
        <time>2021-08-28T12:19:34Z</time>
      </trkpt>
      <trkpt lat="44.54135" lon="2.65226">
        <ele>470</ele>
        <time>2021-08-28T12:19:37Z</time>
      </trkpt>
      <trkpt lat="44.5414" lon="2.65212">
        <ele>473</ele>
        <time>2021-08-28T12:19:42Z</time>
      </trkpt>
      <trkpt lat="44.54168" lon="2.65149">
        <ele>483</ele>
        <time>2021-08-28T12:20:09Z</time>
      </trkpt>
      <trkpt lat="44.54169" lon="2.65126">
        <ele>486</ele>
        <time>2021-08-28T12:20:18Z</time>
      </trkpt>
      <trkpt lat="44.54167" lon="2.65111">
        <ele>488</ele>
        <time>2021-08-28T12:20:23Z</time>
      </trkpt>
      <trkpt lat="44.54162" lon="2.65096">
        <ele>490</ele>
        <time>2021-08-28T12:20:29Z</time>
      </trkpt>
      <trkpt lat="44.54149" lon="2.65077">
        <ele>493</ele>
        <time>2021-08-28T12:20:39Z</time>
      </trkpt>
      <trkpt lat="44.54117" lon="2.65055">
        <ele>495</ele>
        <time>2021-08-28T12:20:57Z</time>
      </trkpt>
      <trkpt lat="44.54101" lon="2.65042">
        <ele>496</ele>
        <time>2021-08-28T12:21:05Z</time>
      </trkpt>
      <trkpt lat="44.54098" lon="2.65037">
        <ele>496</ele>
        <time>2021-08-28T12:21:07Z</time>
      </trkpt>
      <trkpt lat="44.54094" lon="2.65032">
        <ele>496</ele>
        <time>2021-08-28T12:21:09Z</time>
      </trkpt>
      <trkpt lat="44.54091" lon="2.65027">
        <ele>496</ele>
        <time>2021-08-28T12:21:11Z</time>
      </trkpt>
      <trkpt lat="44.54088" lon="2.65021">
        <ele>496</ele>
        <time>2021-08-28T12:21:13Z</time>
      </trkpt>
      <trkpt lat="44.54074" lon="2.64993">
        <ele>498</ele>
        <time>2021-08-28T12:21:23Z</time>
      </trkpt>
      <trkpt lat="44.54063" lon="2.64975">
        <ele>499</ele>
        <time>2021-08-28T12:21:29Z</time>
      </trkpt>
      <trkpt lat="44.54038" lon="2.64958">
        <ele>500</ele>
        <time>2021-08-28T12:21:39Z</time>
      </trkpt>
      <trkpt lat="44.54033" lon="2.64956">
        <ele>500</ele>
        <time>2021-08-28T12:21:41Z</time>
      </trkpt>
      <trkpt lat="44.54028" lon="2.64953">
        <ele>500</ele>
        <time>2021-08-28T12:21:43Z</time>
      </trkpt>
      <trkpt lat="44.54023" lon="2.64948">
        <ele>500</ele>
        <time>2021-08-28T12:21:46Z</time>
      </trkpt>
      <trkpt lat="44.53993" lon="2.6485">
        <ele>498</ele>
        <time>2021-08-28T12:22:09Z</time>
      </trkpt>
      <trkpt lat="44.53982" lon="2.64799">
        <ele>499</ele>
        <time>2021-08-28T12:22:17Z</time>
      </trkpt>
      <trkpt lat="44.53983" lon="2.64776">
        <ele>501</ele>
        <time>2021-08-28T12:22:21Z</time>
      </trkpt>
      <trkpt lat="44.53986" lon="2.64767">
        <ele>502</ele>
        <time>2021-08-28T12:22:23Z</time>
      </trkpt>
      <trkpt lat="44.53989" lon="2.6476">
        <ele>503</ele>
        <time>2021-08-28T12:22:25Z</time>
      </trkpt>
      <trkpt lat="44.53994" lon="2.64754">
        <ele>504</ele>
        <time>2021-08-28T12:22:27Z</time>
      </trkpt>
      <trkpt lat="44.54007" lon="2.6475">
        <ele>503</ele>
        <time>2021-08-28T12:22:31Z</time>
      </trkpt>
      <trkpt lat="44.54037" lon="2.64745">
        <ele>508</ele>
        <time>2021-08-28T12:22:39Z</time>
      </trkpt>
      <trkpt lat="44.54043" lon="2.64743">
        <ele>509</ele>
        <time>2021-08-28T12:22:41Z</time>
      </trkpt>
      <trkpt lat="44.54078" lon="2.64706">
        <ele>506</ele>
        <time>2021-08-28T12:22:55Z</time>
      </trkpt>
      <trkpt lat="44.54098" lon="2.64701">
        <ele>509</ele>
        <time>2021-08-28T12:23:01Z</time>
      </trkpt>
      <trkpt lat="44.54111" lon="2.64693">
        <ele>510</ele>
        <time>2021-08-28T12:23:05Z</time>
      </trkpt>
      <trkpt lat="44.54117" lon="2.64688">
        <ele>510</ele>
        <time>2021-08-28T12:23:07Z</time>
      </trkpt>
      <trkpt lat="44.54126" lon="2.64672">
        <ele>511</ele>
        <time>2021-08-28T12:23:11Z</time>
      </trkpt>
      <trkpt lat="44.54134" lon="2.64626">
        <ele>513</ele>
        <time>2021-08-28T12:23:21Z</time>
      </trkpt>
      <trkpt lat="44.54137" lon="2.64617">
        <ele>513</ele>
        <time>2021-08-28T12:23:23Z</time>
      </trkpt>
      <trkpt lat="44.54145" lon="2.64602">
        <ele>514</ele>
        <time>2021-08-28T12:23:27Z</time>
      </trkpt>
      <trkpt lat="44.54151" lon="2.64595">
        <ele>514</ele>
        <time>2021-08-28T12:23:29Z</time>
      </trkpt>
      <trkpt lat="44.54157" lon="2.64592">
        <ele>514</ele>
        <time>2021-08-28T12:23:31Z</time>
      </trkpt>
      <trkpt lat="44.54198" lon="2.64589">
        <ele>515</ele>
        <time>2021-08-28T12:23:43Z</time>
      </trkpt>
      <trkpt lat="44.54213" lon="2.64584">
        <ele>515</ele>
        <time>2021-08-28T12:23:47Z</time>
      </trkpt>
      <trkpt lat="44.5422" lon="2.6458">
        <ele>515</ele>
        <time>2021-08-28T12:23:49Z</time>
      </trkpt>
      <trkpt lat="44.54232" lon="2.64567">
        <ele>515</ele>
        <time>2021-08-28T12:23:53Z</time>
      </trkpt>
      <trkpt lat="44.54241" lon="2.6455">
        <ele>514</ele>
        <time>2021-08-28T12:23:57Z</time>
      </trkpt>
      <trkpt lat="44.54248" lon="2.64517">
        <ele>514</ele>
        <time>2021-08-28T12:24:03Z</time>
      </trkpt>
      <trkpt lat="44.54247" lon="2.64493">
        <ele>515</ele>
        <time>2021-08-28T12:24:07Z</time>
      </trkpt>
      <trkpt lat="44.54239" lon="2.64469">
        <ele>515</ele>
        <time>2021-08-28T12:24:11Z</time>
      </trkpt>
      <trkpt lat="44.5423" lon="2.64454">
        <ele>516</ele>
        <time>2021-08-28T12:24:14Z</time>
      </trkpt>
      <trkpt lat="44.54218" lon="2.64444">
        <ele>516</ele>
        <time>2021-08-28T12:24:17Z</time>
      </trkpt>
      <trkpt lat="44.54193" lon="2.64435">
        <ele>516</ele>
        <time>2021-08-28T12:24:22Z</time>
      </trkpt>
      <trkpt lat="44.54144" lon="2.64426">
        <ele>515</ele>
        <time>2021-08-28T12:24:31Z</time>
      </trkpt>
      <trkpt lat="44.54133" lon="2.64422">
        <ele>515</ele>
        <time>2021-08-28T12:24:33Z</time>
      </trkpt>
      <trkpt lat="44.54123" lon="2.64414">
        <ele>515</ele>
        <time>2021-08-28T12:24:35Z</time>
      </trkpt>
      <trkpt lat="44.54119" lon="2.64408">
        <ele>515</ele>
        <time>2021-08-28T12:24:36Z</time>
      </trkpt>
      <trkpt lat="44.54116" lon="2.64401">
        <ele>515</ele>
        <time>2021-08-28T12:24:37Z</time>
      </trkpt>
      <trkpt lat="44.54113" lon="2.64385">
        <ele>515</ele>
        <time>2021-08-28T12:24:39Z</time>
      </trkpt>
      <trkpt lat="44.54113" lon="2.64378">
        <ele>515</ele>
        <time>2021-08-28T12:24:40Z</time>
      </trkpt>
      <trkpt lat="44.54116" lon="2.64363">
        <ele>515</ele>
        <time>2021-08-28T12:24:42Z</time>
      </trkpt>
      <trkpt lat="44.5412" lon="2.6435">
        <ele>516</ele>
        <time>2021-08-28T12:24:44Z</time>
      </trkpt>
      <trkpt lat="44.54127" lon="2.64339">
        <ele>517</ele>
        <time>2021-08-28T12:24:46Z</time>
      </trkpt>
      <trkpt lat="44.54143" lon="2.64327">
        <ele>518</ele>
        <time>2021-08-28T12:24:50Z</time>
      </trkpt>
      <trkpt lat="44.5415" lon="2.64321">
        <ele>519</ele>
        <time>2021-08-28T12:24:52Z</time>
      </trkpt>
      <trkpt lat="44.54164" lon="2.64292">
        <ele>518</ele>
        <time>2021-08-28T12:24:58Z</time>
      </trkpt>
      <trkpt lat="44.54211" lon="2.64132">
        <ele>517</ele>
        <time>2021-08-28T12:25:28Z</time>
      </trkpt>
      <trkpt lat="44.54214" lon="2.64125">
        <ele>518</ele>
        <time>2021-08-28T12:25:30Z</time>
      </trkpt>
      <trkpt lat="44.54217" lon="2.64119">
        <ele>518</ele>
        <time>2021-08-28T12:25:32Z</time>
      </trkpt>
      <trkpt lat="44.54214" lon="2.64113">
        <ele>519</ele>
        <time>2021-08-28T12:26:42Z</time>
      </trkpt>
      <trkpt lat="44.54215" lon="2.64106">
        <ele>518</ele>
        <time>2021-08-28T12:26:45Z</time>
      </trkpt>
      <trkpt lat="44.5422" lon="2.64093">
        <ele>519</ele>
        <time>2021-08-28T12:26:50Z</time>
      </trkpt>
      <trkpt lat="44.54222" lon="2.64085">
        <ele>519</ele>
        <time>2021-08-28T12:26:52Z</time>
      </trkpt>
      <trkpt lat="44.54224" lon="2.64077">
        <ele>519</ele>
        <time>2021-08-28T12:26:54Z</time>
      </trkpt>
      <trkpt lat="44.54235" lon="2.64038">
        <ele>521</ele>
        <time>2021-08-28T12:27:02Z</time>
      </trkpt>
      <trkpt lat="44.54236" lon="2.64027">
        <ele>520</ele>
        <time>2021-08-28T12:27:04Z</time>
      </trkpt>
      <trkpt lat="44.54225" lon="2.63979">
        <ele>521</ele>
        <time>2021-08-28T12:27:12Z</time>
      </trkpt>
      <trkpt lat="44.54227" lon="2.63959">
        <ele>520</ele>
        <time>2021-08-28T12:27:15Z</time>
      </trkpt>
      <trkpt lat="44.54235" lon="2.63937">
        <ele>520</ele>
        <time>2021-08-28T12:27:19Z</time>
      </trkpt>
      <trkpt lat="44.54241" lon="2.63927">
        <ele>520</ele>
        <time>2021-08-28T12:27:21Z</time>
      </trkpt>
      <trkpt lat="44.54256" lon="2.63915">
        <ele>519</ele>
        <time>2021-08-28T12:27:25Z</time>
      </trkpt>
      <trkpt lat="44.54271" lon="2.63909">
        <ele>518</ele>
        <time>2021-08-28T12:27:29Z</time>
      </trkpt>
      <trkpt lat="44.54294" lon="2.63895">
        <ele>518</ele>
        <time>2021-08-28T12:27:35Z</time>
      </trkpt>
      <trkpt lat="44.54307" lon="2.63881">
        <ele>516</ele>
        <time>2021-08-28T12:27:39Z</time>
      </trkpt>
      <trkpt lat="44.54312" lon="2.63872">
        <ele>516</ele>
        <time>2021-08-28T12:27:41Z</time>
      </trkpt>
      <trkpt lat="44.54315" lon="2.63852">
        <ele>515</ele>
        <time>2021-08-28T12:27:45Z</time>
      </trkpt>
      <trkpt lat="44.54321" lon="2.63791">
        <ele>516</ele>
        <time>2021-08-28T12:27:54Z</time>
      </trkpt>
      <trkpt lat="44.54322" lon="2.63785">
        <ele>516</ele>
        <time>2021-08-28T12:27:55Z</time>
      </trkpt>
      <trkpt lat="44.54327" lon="2.63774">
        <ele>516</ele>
        <time>2021-08-28T12:27:57Z</time>
      </trkpt>
      <trkpt lat="44.5438" lon="2.63707">
        <ele>519</ele>
        <time>2021-08-28T12:28:13Z</time>
      </trkpt>
      <trkpt lat="44.54388" lon="2.63686">
        <ele>521</ele>
        <time>2021-08-28T12:28:17Z</time>
      </trkpt>
      <trkpt lat="44.54397" lon="2.63653">
        <ele>523</ele>
        <time>2021-08-28T12:28:23Z</time>
      </trkpt>
      <trkpt lat="44.54398" lon="2.63647">
        <ele>523</ele>
        <time>2021-08-28T12:28:24Z</time>
      </trkpt>
      <trkpt lat="44.54399" lon="2.63636">
        <ele>523</ele>
        <time>2021-08-28T12:28:26Z</time>
      </trkpt>
      <trkpt lat="44.54394" lon="2.63624">
        <ele>524</ele>
        <time>2021-08-28T12:28:28Z</time>
      </trkpt>
      <trkpt lat="44.54388" lon="2.63617">
        <ele>524</ele>
        <time>2021-08-28T12:28:30Z</time>
      </trkpt>
      <trkpt lat="44.5435" lon="2.63599">
        <ele>521</ele>
        <time>2021-08-28T12:28:40Z</time>
      </trkpt>
      <trkpt lat="44.54343" lon="2.6359">
        <ele>520</ele>
        <time>2021-08-28T12:28:42Z</time>
      </trkpt>
      <trkpt lat="44.5434" lon="2.63584">
        <ele>520</ele>
        <time>2021-08-28T12:28:43Z</time>
      </trkpt>
      <trkpt lat="44.54337" lon="2.63572">
        <ele>521</ele>
        <time>2021-08-28T12:28:45Z</time>
      </trkpt>
      <trkpt lat="44.54336" lon="2.63559">
        <ele>521</ele>
        <time>2021-08-28T12:28:47Z</time>
      </trkpt>
      <trkpt lat="44.54338" lon="2.63542">
        <ele>521</ele>
        <time>2021-08-28T12:28:50Z</time>
      </trkpt>
      <trkpt lat="44.54342" lon="2.63533">
        <ele>520</ele>
        <time>2021-08-28T12:28:52Z</time>
      </trkpt>
      <trkpt lat="44.54347" lon="2.63523">
        <ele>519</ele>
        <time>2021-08-28T12:28:54Z</time>
      </trkpt>
      <trkpt lat="44.54354" lon="2.63515">
        <ele>518</ele>
        <time>2021-08-28T12:28:56Z</time>
      </trkpt>
      <trkpt lat="44.54436" lon="2.63453">
        <ele>517</ele>
        <time>2021-08-28T12:29:17Z</time>
      </trkpt>
      <trkpt lat="44.54444" lon="2.63444">
        <ele>517</ele>
        <time>2021-08-28T12:29:19Z</time>
      </trkpt>
      <trkpt lat="44.54451" lon="2.63433">
        <ele>518</ele>
        <time>2021-08-28T12:29:21Z</time>
      </trkpt>
      <trkpt lat="44.54453" lon="2.63427">
        <ele>518</ele>
        <time>2021-08-28T12:29:22Z</time>
      </trkpt>
      <trkpt lat="44.54452" lon="2.63415">
        <ele>518</ele>
        <time>2021-08-28T12:29:24Z</time>
      </trkpt>
      <trkpt lat="44.54449" lon="2.63409">
        <ele>518</ele>
        <time>2021-08-28T12:29:25Z</time>
      </trkpt>
      <trkpt lat="44.54445" lon="2.63403">
        <ele>518</ele>
        <time>2021-08-28T12:29:26Z</time>
      </trkpt>
      <trkpt lat="44.54431" lon="2.63392">
        <ele>518</ele>
        <time>2021-08-28T12:29:29Z</time>
      </trkpt>
      <trkpt lat="44.54426" lon="2.63387">
        <ele>519</ele>
        <time>2021-08-28T12:29:30Z</time>
      </trkpt>
      <trkpt lat="44.54422" lon="2.63381">
        <ele>519</ele>
        <time>2021-08-28T12:29:31Z</time>
      </trkpt>
      <trkpt lat="44.54414" lon="2.63346">
        <ele>521</ele>
        <time>2021-08-28T12:29:36Z</time>
      </trkpt>
      <trkpt lat="44.54408" lon="2.63302">
        <ele>523</ele>
        <time>2021-08-28T12:29:42Z</time>
      </trkpt>
      <trkpt lat="44.54403" lon="2.63291">
        <ele>524</ele>
        <time>2021-08-28T12:29:44Z</time>
      </trkpt>
      <trkpt lat="44.54395" lon="2.63287">
        <ele>523</ele>
        <time>2021-08-28T12:29:46Z</time>
      </trkpt>
      <trkpt lat="44.54353" lon="2.63293">
        <ele>519</ele>
        <time>2021-08-28T12:29:55Z</time>
      </trkpt>
      <trkpt lat="44.54334" lon="2.63283">
        <ele>519</ele>
        <time>2021-08-28T12:29:59Z</time>
      </trkpt>
      <trkpt lat="44.54324" lon="2.63284">
        <ele>520</ele>
        <time>2021-08-28T12:30:01Z</time>
      </trkpt>
      <trkpt lat="44.54299" lon="2.63299">
        <ele>520</ele>
        <time>2021-08-28T12:30:07Z</time>
      </trkpt>
      <trkpt lat="44.54284" lon="2.63305">
        <ele>518</ele>
        <time>2021-08-28T12:30:10Z</time>
      </trkpt>
      <trkpt lat="44.54279" lon="2.63306">
        <ele>518</ele>
        <time>2021-08-28T12:30:11Z</time>
      </trkpt>
      <trkpt lat="44.54273" lon="2.63305">
        <ele>518</ele>
        <time>2021-08-28T12:30:12Z</time>
      </trkpt>
      <trkpt lat="44.54266" lon="2.63298">
        <ele>515</ele>
        <time>2021-08-28T12:30:14Z</time>
      </trkpt>
      <trkpt lat="44.54239" lon="2.63231">
        <ele>509</ele>
        <time>2021-08-28T12:30:24Z</time>
      </trkpt>
      <trkpt lat="44.54213" lon="2.63193">
        <ele>512</ele>
        <time>2021-08-28T12:30:30Z</time>
      </trkpt>
      <trkpt lat="44.54203" lon="2.63171">
        <ele>513</ele>
        <time>2021-08-28T12:30:33Z</time>
      </trkpt>
      <trkpt lat="44.54195" lon="2.63139">
        <ele>514</ele>
        <time>2021-08-28T12:30:37Z</time>
      </trkpt>
      <trkpt lat="44.54193" lon="2.63132">
        <ele>513</ele>
        <time>2021-08-28T12:30:38Z</time>
      </trkpt>
      <trkpt lat="44.5419" lon="2.63126">
        <ele>513</ele>
        <time>2021-08-28T12:30:39Z</time>
      </trkpt>
      <trkpt lat="44.54185" lon="2.63122">
        <ele>513</ele>
        <time>2021-08-28T12:30:40Z</time>
      </trkpt>
      <trkpt lat="44.54153" lon="2.63115">
        <ele>516</ele>
        <time>2021-08-28T12:30:46Z</time>
      </trkpt>
      <trkpt lat="44.54134" lon="2.63115">
        <ele>517</ele>
        <time>2021-08-28T12:30:50Z</time>
      </trkpt>
      <trkpt lat="44.54129" lon="2.63116">
        <ele>517</ele>
        <time>2021-08-28T12:30:51Z</time>
      </trkpt>
      <trkpt lat="44.54106" lon="2.63129">
        <ele>517</ele>
        <time>2021-08-28T12:30:57Z</time>
      </trkpt>
      <trkpt lat="44.54061" lon="2.63184">
        <ele>512</ele>
        <time>2021-08-28T12:31:15Z</time>
      </trkpt>
      <trkpt lat="44.54054" lon="2.63198">
        <ele>510</ele>
        <time>2021-08-28T12:31:19Z</time>
      </trkpt>
      <trkpt lat="44.54039" lon="2.63218">
        <ele>508</ele>
        <time>2021-08-28T12:31:25Z</time>
      </trkpt>
      <trkpt lat="44.54032" lon="2.63223">
        <ele>508</ele>
        <time>2021-08-28T12:31:27Z</time>
      </trkpt>
      <trkpt lat="44.54026" lon="2.63229">
        <ele>507</ele>
        <time>2021-08-28T12:31:29Z</time>
      </trkpt>
      <trkpt lat="44.54" lon="2.63252">
        <ele>502</ele>
        <time>2021-08-28T12:31:39Z</time>
      </trkpt>
      <trkpt lat="44.53984" lon="2.63264">
        <ele>500</ele>
        <time>2021-08-28T12:31:45Z</time>
      </trkpt>
      <trkpt lat="44.53979" lon="2.63264">
        <ele>500</ele>
        <time>2021-08-28T12:31:47Z</time>
      </trkpt>
      <trkpt lat="44.53968" lon="2.63262">
        <ele>500</ele>
        <time>2021-08-28T12:31:52Z</time>
      </trkpt>
      <trkpt lat="44.5395" lon="2.63262">
        <ele>501</ele>
        <time>2021-08-28T12:31:58Z</time>
      </trkpt>
      <trkpt lat="44.5394" lon="2.63267">
        <ele>502</ele>
        <time>2021-08-28T12:32:02Z</time>
      </trkpt>
      <trkpt lat="44.53915" lon="2.63301">
        <ele>505</ele>
        <time>2021-08-28T12:32:14Z</time>
      </trkpt>
      <trkpt lat="44.53909" lon="2.63305">
        <ele>507</ele>
        <time>2021-08-28T12:32:16Z</time>
      </trkpt>
      <trkpt lat="44.53903" lon="2.63306">
        <ele>508</ele>
        <time>2021-08-28T12:32:18Z</time>
      </trkpt>
      <trkpt lat="44.53876" lon="2.63295">
        <ele>513</ele>
        <time>2021-08-28T12:32:30Z</time>
      </trkpt>
      <trkpt lat="44.53865" lon="2.63295">
        <ele>514</ele>
        <time>2021-08-28T12:32:34Z</time>
      </trkpt>
      <trkpt lat="44.5382" lon="2.63327">
        <ele>520</ele>
        <time>2021-08-28T12:32:52Z</time>
      </trkpt>
      <trkpt lat="44.53801" lon="2.63342">
        <ele>522</ele>
        <time>2021-08-28T12:33:00Z</time>
      </trkpt>
      <trkpt lat="44.53797" lon="2.63346">
        <ele>522</ele>
        <time>2021-08-28T12:33:02Z</time>
      </trkpt>
      <trkpt lat="44.53788" lon="2.63353">
        <ele>522</ele>
        <time>2021-08-28T12:33:06Z</time>
      </trkpt>
      <trkpt lat="44.53773" lon="2.63362">
        <ele>524</ele>
        <time>2021-08-28T12:33:12Z</time>
      </trkpt>
      <trkpt lat="44.53748" lon="2.63364">
        <ele>527</ele>
        <time>2021-08-28T12:33:22Z</time>
      </trkpt>
      <trkpt lat="44.53733" lon="2.63359">
        <ele>528</ele>
        <time>2021-08-28T12:33:28Z</time>
      </trkpt>
      <trkpt lat="44.53724" lon="2.63353">
        <ele>528</ele>
        <time>2021-08-28T12:33:32Z</time>
      </trkpt>
      <trkpt lat="44.5372" lon="2.63348">
        <ele>528</ele>
        <time>2021-08-28T12:33:34Z</time>
      </trkpt>
      <trkpt lat="44.53717" lon="2.63343">
        <ele>529</ele>
        <time>2021-08-28T12:33:36Z</time>
      </trkpt>
      <trkpt lat="44.53715" lon="2.63335">
        <ele>528</ele>
        <time>2021-08-28T12:33:38Z</time>
      </trkpt>
      <trkpt lat="44.53716" lon="2.63327">
        <ele>528</ele>
        <time>2021-08-28T12:33:40Z</time>
      </trkpt>
      <trkpt lat="44.5372" lon="2.6332">
        <ele>529</ele>
        <time>2021-08-28T12:33:42Z</time>
      </trkpt>
      <trkpt lat="44.5375" lon="2.63306">
        <ele>530</ele>
        <time>2021-08-28T12:33:54Z</time>
      </trkpt>
      <trkpt lat="44.5376" lon="2.6329">
        <ele>531</ele>
        <time>2021-08-28T12:34:00Z</time>
      </trkpt>
      <trkpt lat="44.53763" lon="2.63275">
        <ele>532</ele>
        <time>2021-08-28T12:34:04Z</time>
      </trkpt>
      <trkpt lat="44.53763" lon="2.6326">
        <ele>533</ele>
        <time>2021-08-28T12:34:08Z</time>
      </trkpt>
      <trkpt lat="44.53758" lon="2.63245">
        <ele>536</ele>
        <time>2021-08-28T12:34:12Z</time>
      </trkpt>
      <trkpt lat="44.53718" lon="2.63192">
        <ele>537</ele>
        <time>2021-08-28T12:34:32Z</time>
      </trkpt>
      <trkpt lat="44.53711" lon="2.63177">
        <ele>538</ele>
        <time>2021-08-28T12:34:36Z</time>
      </trkpt>
      <trkpt lat="44.53702" lon="2.63072">
        <ele>545</ele>
        <time>2021-08-28T12:35:00Z</time>
      </trkpt>
      <trkpt lat="44.537" lon="2.63022">
        <ele>549</ele>
        <time>2021-08-28T12:35:12Z</time>
      </trkpt>
      <trkpt lat="44.53699" lon="2.63006">
        <ele>550</ele>
        <time>2021-08-28T12:35:16Z</time>
      </trkpt>
      <trkpt lat="44.537" lon="2.62991">
        <ele>551</ele>
        <time>2021-08-28T12:35:20Z</time>
      </trkpt>
      <trkpt lat="44.53702" lon="2.62975">
        <ele>551</ele>
        <time>2021-08-28T12:35:24Z</time>
      </trkpt>
      <trkpt lat="44.53714" lon="2.62948">
        <ele>553</ele>
        <time>2021-08-28T12:35:32Z</time>
      </trkpt>
      <trkpt lat="44.53721" lon="2.62899">
        <ele>555</ele>
        <time>2021-08-28T12:35:43Z</time>
      </trkpt>
      <trkpt lat="44.53714" lon="2.62737">
        <ele>557</ele>
        <time>2021-08-28T12:36:13Z</time>
      </trkpt>
      <trkpt lat="44.53733" lon="2.6262">
        <ele>556</ele>
        <time>2021-08-28T12:36:32Z</time>
      </trkpt>
      <trkpt lat="44.53729" lon="2.62572">
        <ele>557</ele>
        <time>2021-08-28T12:36:40Z</time>
      </trkpt>
      <trkpt lat="44.53724" lon="2.62552">
        <ele>557</ele>
        <time>2021-08-28T12:36:44Z</time>
      </trkpt>
      <trkpt lat="44.53716" lon="2.62495">
        <ele>559</ele>
        <time>2021-08-28T12:36:54Z</time>
      </trkpt>
      <trkpt lat="44.53723" lon="2.62463">
        <ele>561</ele>
        <time>2021-08-28T12:37:00Z</time>
      </trkpt>
      <trkpt lat="44.53751" lon="2.62393">
        <ele>562</ele>
        <time>2021-08-28T12:37:16Z</time>
      </trkpt>
      <trkpt lat="44.53756" lon="2.62375">
        <ele>562</ele>
        <time>2021-08-28T12:37:20Z</time>
      </trkpt>
      <trkpt lat="44.53757" lon="2.62345">
        <ele>561</ele>
        <time>2021-08-28T12:37:26Z</time>
      </trkpt>
      <trkpt lat="44.53753" lon="2.62325">
        <ele>562</ele>
        <time>2021-08-28T12:37:30Z</time>
      </trkpt>
      <trkpt lat="44.53749" lon="2.62315">
        <ele>562</ele>
        <time>2021-08-28T12:37:32Z</time>
      </trkpt>
      <trkpt lat="44.53733" lon="2.62296">
        <ele>562</ele>
        <time>2021-08-28T12:37:38Z</time>
      </trkpt>
      <trkpt lat="44.53676" lon="2.62251">
        <ele>561</ele>
        <time>2021-08-28T12:37:56Z</time>
      </trkpt>
      <trkpt lat="44.53659" lon="2.62232">
        <ele>561</ele>
        <time>2021-08-28T12:38:02Z</time>
      </trkpt>
      <trkpt lat="44.53649" lon="2.62214">
        <ele>562</ele>
        <time>2021-08-28T12:38:06Z</time>
      </trkpt>
      <trkpt lat="44.53646" lon="2.62205">
        <ele>562</ele>
        <time>2021-08-28T12:38:08Z</time>
      </trkpt>
      <trkpt lat="44.53644" lon="2.62186">
        <ele>563</ele>
        <time>2021-08-28T12:38:12Z</time>
      </trkpt>
      <trkpt lat="44.53644" lon="2.62176">
        <ele>564</ele>
        <time>2021-08-28T12:38:14Z</time>
      </trkpt>
      <trkpt lat="44.53676" lon="2.6205">
        <ele>570</ele>
        <time>2021-08-28T12:38:40Z</time>
      </trkpt>
      <trkpt lat="44.53678" lon="2.6203">
        <ele>571</ele>
        <time>2021-08-28T12:38:44Z</time>
      </trkpt>
      <trkpt lat="44.53675" lon="2.62007">
        <ele>570</ele>
        <time>2021-08-28T12:38:48Z</time>
      </trkpt>
      <trkpt lat="44.53663" lon="2.61973">
        <ele>569</ele>
        <time>2021-08-28T12:38:54Z</time>
      </trkpt>
      <trkpt lat="44.53648" lon="2.61894">
        <ele>569</ele>
        <time>2021-08-28T12:39:07Z</time>
      </trkpt>
      <trkpt lat="44.5362" lon="2.6184">
        <ele>569</ele>
        <time>2021-08-28T12:39:17Z</time>
      </trkpt>
      <trkpt lat="44.53617" lon="2.61828">
        <ele>569</ele>
        <time>2021-08-28T12:39:19Z</time>
      </trkpt>
      <trkpt lat="44.53621" lon="2.61752">
        <ele>570</ele>
        <time>2021-08-28T12:39:32Z</time>
      </trkpt>
      <trkpt lat="44.53621" lon="2.61745">
        <ele>571</ele>
        <time>2021-08-28T12:39:35Z</time>
      </trkpt>
      <trkpt lat="44.53621" lon="2.61738">
        <ele>572</ele>
        <time>2021-08-28T12:40:24Z</time>
      </trkpt>
      <trkpt lat="44.53621" lon="2.61629">
        <ele>569</ele>
        <time>2021-08-28T12:40:40Z</time>
      </trkpt>
      <trkpt lat="44.5361" lon="2.61473">
        <ele>565</ele>
        <time>2021-08-28T12:40:57Z</time>
      </trkpt>
      <trkpt lat="44.53585" lon="2.6139">
        <ele>566</ele>
        <time>2021-08-28T12:41:06Z</time>
      </trkpt>
      <trkpt lat="44.53523" lon="2.61232">
        <ele>566</ele>
        <time>2021-08-28T12:41:29Z</time>
      </trkpt>
      <trkpt lat="44.53521" lon="2.61223">
        <ele>567</ele>
        <time>2021-08-28T12:41:31Z</time>
      </trkpt>
      <trkpt lat="44.53521" lon="2.61215">
        <ele>567</ele>
        <time>2021-08-28T12:41:33Z</time>
      </trkpt>
      <trkpt lat="44.53523" lon="2.61209">
        <ele>567</ele>
        <time>2021-08-28T12:41:35Z</time>
      </trkpt>
      <trkpt lat="44.53606" lon="2.6112">
        <ele>566</ele>
        <time>2021-08-28T12:42:05Z</time>
      </trkpt>
      <trkpt lat="44.53695" lon="2.61018">
        <ele>568</ele>
        <time>2021-08-28T12:42:35Z</time>
      </trkpt>
      <trkpt lat="44.53789" lon="2.60949">
        <ele>564</ele>
        <time>2021-08-28T12:42:58Z</time>
      </trkpt>
      <trkpt lat="44.53914" lon="2.60881">
        <ele>558</ele>
        <time>2021-08-28T12:43:20Z</time>
      </trkpt>
      <trkpt lat="44.53937" lon="2.60859">
        <ele>557</ele>
        <time>2021-08-28T12:43:24Z</time>
      </trkpt>
      <trkpt lat="44.53953" lon="2.60828">
        <ele>556</ele>
        <time>2021-08-28T12:43:28Z</time>
      </trkpt>
      <trkpt lat="44.53975" lon="2.60715">
        <ele>556</ele>
        <time>2021-08-28T12:43:41Z</time>
      </trkpt>
      <trkpt lat="44.53993" lon="2.60565">
        <ele>558</ele>
        <time>2021-08-28T12:43:59Z</time>
      </trkpt>
      <trkpt lat="44.53992" lon="2.60533">
        <ele>559</ele>
        <time>2021-08-28T12:44:03Z</time>
      </trkpt>
      <trkpt lat="44.53977" lon="2.60425">
        <ele>561</ele>
        <time>2021-08-28T12:44:16Z</time>
      </trkpt>
      <trkpt lat="44.53982" lon="2.60345">
        <ele>563</ele>
        <time>2021-08-28T12:44:26Z</time>
      </trkpt>
      <trkpt lat="44.53994" lon="2.60309">
        <ele>563</ele>
        <time>2021-08-28T12:44:31Z</time>
      </trkpt>
      <trkpt lat="44.54011" lon="2.60281">
        <ele>562</ele>
        <time>2021-08-28T12:44:36Z</time>
      </trkpt>
      <trkpt lat="44.54079" lon="2.60217">
        <ele>558</ele>
        <time>2021-08-28T12:44:51Z</time>
      </trkpt>
      <trkpt lat="44.54104" lon="2.60206">
        <ele>557</ele>
        <time>2021-08-28T12:44:56Z</time>
      </trkpt>
      <trkpt lat="44.54192" lon="2.60191">
        <ele>555</ele>
        <time>2021-08-28T12:45:14Z</time>
      </trkpt>
      <trkpt lat="44.54229" lon="2.60167">
        <ele>554</ele>
        <time>2021-08-28T12:45:22Z</time>
      </trkpt>
      <trkpt lat="44.54267" lon="2.60135">
        <ele>554</ele>
        <time>2021-08-28T12:45:34Z</time>
      </trkpt>
      <trkpt lat="44.54297" lon="2.60122">
        <ele>555</ele>
        <time>2021-08-28T12:45:46Z</time>
      </trkpt>
      <trkpt lat="44.54378" lon="2.60119">
        <ele>560</ele>
        <time>2021-08-28T12:46:17Z</time>
      </trkpt>
      <trkpt lat="44.54468" lon="2.60164">
        <ele>559</ele>
        <time>2021-08-28T12:46:47Z</time>
      </trkpt>
      <trkpt lat="44.54497" lon="2.60171">
        <ele>559</ele>
        <time>2021-08-28T12:46:55Z</time>
      </trkpt>
      <trkpt lat="44.54518" lon="2.6017">
        <ele>560</ele>
        <time>2021-08-28T12:47:00Z</time>
      </trkpt>
      <trkpt lat="44.54565" lon="2.60155">
        <ele>562</ele>
        <time>2021-08-28T12:47:12Z</time>
      </trkpt>
      <trkpt lat="44.54635" lon="2.60133">
        <ele>570</ele>
        <time>2021-08-28T12:47:36Z</time>
      </trkpt>
      <trkpt lat="44.54713" lon="2.60108">
        <ele>579</ele>
        <time>2021-08-28T12:48:08Z</time>
      </trkpt>
      <trkpt lat="44.54782" lon="2.60082">
        <ele>578</ele>
        <time>2021-08-28T12:48:32Z</time>
      </trkpt>
      <trkpt lat="44.54896" lon="2.59997">
        <ele>575</ele>
        <time>2021-08-28T12:49:03Z</time>
      </trkpt>
      <trkpt lat="44.54927" lon="2.59974">
        <ele>573</ele>
        <time>2021-08-28T12:49:11Z</time>
      </trkpt>
      <trkpt lat="44.54958" lon="2.59961">
        <ele>571</ele>
        <time>2021-08-28T12:49:18Z</time>
      </trkpt>
      <trkpt lat="44.55002" lon="2.59959">
        <ele>566</ele>
        <time>2021-08-28T12:49:26Z</time>
      </trkpt>
      <trkpt lat="44.55202" lon="2.60016">
        <ele>562</ele>
        <time>2021-08-28T12:49:52Z</time>
      </trkpt>
      <trkpt lat="44.55276" lon="2.60004">
        <ele>569</ele>
        <time>2021-08-28T12:50:07Z</time>
      </trkpt>
      <trkpt lat="44.55362" lon="2.59963">
        <ele>579</ele>
        <time>2021-08-28T12:50:37Z</time>
      </trkpt>
      <trkpt lat="44.55419" lon="2.59929">
        <ele>584</ele>
        <time>2021-08-28T12:51:02Z</time>
      </trkpt>
      <trkpt lat="44.55423" lon="2.59926">
        <ele>584</ele>
        <time>2021-08-28T12:51:04Z</time>
      </trkpt>
      <trkpt lat="44.55463" lon="2.59905">
        <ele>585</ele>
        <time>2021-08-28T12:51:23Z</time>
      </trkpt>
      <trkpt lat="44.55497" lon="2.59887">
        <ele>585</ele>
        <time>2021-08-28T12:51:41Z</time>
      </trkpt>
      <trkpt lat="44.55508" lon="2.5988">
        <ele>586</ele>
        <time>2021-08-28T12:51:47Z</time>
      </trkpt>
      <trkpt lat="44.55514" lon="2.59877">
        <ele>586</ele>
        <time>2021-08-28T12:51:50Z</time>
      </trkpt>
      <trkpt lat="44.5557" lon="2.59845">
        <ele>588</ele>
        <time>2021-08-28T12:52:20Z</time>
      </trkpt>
      <trkpt lat="44.55596" lon="2.59832">
        <ele>589</ele>
        <time>2021-08-28T12:52:32Z</time>
      </trkpt>
      <trkpt lat="44.5567" lon="2.59817">
        <ele>593</ele>
        <time>2021-08-28T12:53:04Z</time>
      </trkpt>
      <trkpt lat="44.55737" lon="2.59801">
        <ele>601</ele>
        <time>2021-08-28T12:53:36Z</time>
      </trkpt>
      <trkpt lat="44.55799" lon="2.59793">
        <ele>605</ele>
        <time>2021-08-28T12:54:06Z</time>
      </trkpt>
      <trkpt lat="44.55851" lon="2.59783">
        <ele>609</ele>
        <time>2021-08-28T12:54:37Z</time>
      </trkpt>
      <trkpt lat="44.559" lon="2.59782">
        <ele>615</ele>
        <time>2021-08-28T12:55:00Z</time>
      </trkpt>
      <trkpt lat="44.55942" lon="2.59797">
        <ele>619</ele>
        <time>2021-08-28T12:55:21Z</time>
      </trkpt>
      <trkpt lat="44.55983" lon="2.59819">
        <ele>622</ele>
        <time>2021-08-28T12:55:40Z</time>
      </trkpt>
      <trkpt lat="44.55987" lon="2.59821">
        <ele>622</ele>
        <time>2021-08-28T12:55:42Z</time>
      </trkpt>
      <trkpt lat="44.56056" lon="2.59866">
        <ele>625</ele>
        <time>2021-08-28T12:56:12Z</time>
      </trkpt>
      <trkpt lat="44.56116" lon="2.59904">
        <ele>624</ele>
        <time>2021-08-28T12:56:32Z</time>
      </trkpt>
      <trkpt lat="44.56193" lon="2.5999">
        <ele>622</ele>
        <time>2021-08-28T12:56:58Z</time>
      </trkpt>
      <trkpt lat="44.56242" lon="2.60004">
        <ele>623</ele>
        <time>2021-08-28T12:57:12Z</time>
      </trkpt>
      <trkpt lat="44.56335" lon="2.59995">
        <ele>629</ele>
        <time>2021-08-28T12:57:42Z</time>
      </trkpt>
      <trkpt lat="44.56419" lon="2.59986">
        <ele>634</ele>
        <time>2021-08-28T12:58:13Z</time>
      </trkpt>
      <trkpt lat="44.56443" lon="2.59993">
        <ele>635</ele>
        <time>2021-08-28T12:58:23Z</time>
      </trkpt>
      <trkpt lat="44.56487" lon="2.60018">
        <ele>636</ele>
        <time>2021-08-28T12:58:41Z</time>
      </trkpt>
      <trkpt lat="44.56558" lon="2.60079">
        <ele>640</ele>
        <time>2021-08-28T12:59:13Z</time>
      </trkpt>
      <trkpt lat="44.56603" lon="2.60096">
        <ele>640</ele>
        <time>2021-08-28T12:59:29Z</time>
      </trkpt>
      <trkpt lat="44.56663" lon="2.601">
        <ele>641</ele>
        <time>2021-08-28T12:59:47Z</time>
      </trkpt>
      <trkpt lat="44.56782" lon="2.60071">
        <ele>644</ele>
        <time>2021-08-28T13:00:19Z</time>
      </trkpt>
      <trkpt lat="44.56893" lon="2.60043">
        <ele>647</ele>
        <time>2021-08-28T13:00:49Z</time>
      </trkpt>
      <trkpt lat="44.57004" lon="2.60015">
        <ele>649</ele>
        <time>2021-08-28T13:01:19Z</time>
      </trkpt>
      <trkpt lat="44.57111" lon="2.59987">
        <ele>647</ele>
        <time>2021-08-28T13:01:49Z</time>
      </trkpt>
      <trkpt lat="44.57153" lon="2.59977">
        <ele>645</ele>
        <time>2021-08-28T13:02:01Z</time>
      </trkpt>
      <trkpt lat="44.5718" lon="2.59984">
        <ele>645</ele>
        <time>2021-08-28T13:02:09Z</time>
      </trkpt>
      <trkpt lat="44.57219" lon="2.60013">
        <ele>644</ele>
        <time>2021-08-28T13:02:21Z</time>
      </trkpt>
      <trkpt lat="44.57251" lon="2.60024">
        <ele>646</ele>
        <time>2021-08-28T13:02:29Z</time>
      </trkpt>
      <trkpt lat="44.57303" lon="2.60009">
        <ele>648</ele>
        <time>2021-08-28T13:02:43Z</time>
      </trkpt>
      <trkpt lat="44.5741" lon="2.59971">
        <ele>651</ele>
        <time>2021-08-28T13:03:13Z</time>
      </trkpt>
      <trkpt lat="44.5754" lon="2.59926">
        <ele>652</ele>
        <time>2021-08-28T13:03:43Z</time>
      </trkpt>
      <trkpt lat="44.57616" lon="2.59914">
        <ele>648</ele>
        <time>2021-08-28T13:03:57Z</time>
      </trkpt>
      <trkpt lat="44.57752" lon="2.59934">
        <ele>656</ele>
        <time>2021-08-28T13:04:29Z</time>
      </trkpt>
      <trkpt lat="44.57886" lon="2.59962">
        <ele>656</ele>
        <time>2021-08-28T13:04:59Z</time>
      </trkpt>
      <trkpt lat="44.58053" lon="2.5996">
        <ele>657</ele>
        <time>2021-08-28T13:05:30Z</time>
      </trkpt>
      <trkpt lat="44.58125" lon="2.59953">
        <ele>656</ele>
        <time>2021-08-28T13:05:43Z</time>
      </trkpt>
      <trkpt lat="44.58215" lon="2.59908">
        <ele>658</ele>
        <time>2021-08-28T13:06:03Z</time>
      </trkpt>
      <trkpt lat="44.58336" lon="2.59826">
        <ele>663</ele>
        <time>2021-08-28T13:06:35Z</time>
      </trkpt>
      <trkpt lat="44.58441" lon="2.59733">
        <ele>666</ele>
        <time>2021-08-28T13:07:05Z</time>
      </trkpt>
      <trkpt lat="44.58539" lon="2.59618">
        <ele>666</ele>
        <time>2021-08-28T13:07:36Z</time>
      </trkpt>
      <trkpt lat="44.58642" lon="2.59497">
        <ele>665</ele>
        <time>2021-08-28T13:08:07Z</time>
      </trkpt>
      <trkpt lat="44.58676" lon="2.59466">
        <ele>663</ele>
        <time>2021-08-28T13:08:15Z</time>
      </trkpt>
      <trkpt lat="44.58816" lon="2.59406">
        <ele>662</ele>
        <time>2021-08-28T13:08:45Z</time>
      </trkpt>
      <trkpt lat="44.58923" lon="2.59326">
        <ele>657</ele>
        <time>2021-08-28T13:09:04Z</time>
      </trkpt>
      <trkpt lat="44.58983" lon="2.59257">
        <ele>654</ele>
        <time>2021-08-28T13:09:14Z</time>
      </trkpt>
      <trkpt lat="44.59009" lon="2.59204">
        <ele>652</ele>
        <time>2021-08-28T13:09:20Z</time>
      </trkpt>
      <trkpt lat="44.59017" lon="2.59173">
        <ele>652</ele>
        <time>2021-08-28T13:09:23Z</time>
      </trkpt>
      <trkpt lat="44.59036" lon="2.5903">
        <ele>649</ele>
        <time>2021-08-28T13:09:35Z</time>
      </trkpt>
      <trkpt lat="44.59047" lon="2.59">
        <ele>649</ele>
        <time>2021-08-28T13:09:38Z</time>
      </trkpt>
      <trkpt lat="44.59058" lon="2.58984">
        <ele>649</ele>
        <time>2021-08-28T13:09:40Z</time>
      </trkpt>
      <trkpt lat="44.591" lon="2.58942">
        <ele>646</ele>
        <time>2021-08-28T13:09:47Z</time>
      </trkpt>
      <trkpt lat="44.59117" lon="2.5891">
        <ele>645</ele>
        <time>2021-08-28T13:09:51Z</time>
      </trkpt>
      <trkpt lat="44.5915" lon="2.5878">
        <ele>645</ele>
        <time>2021-08-28T13:10:05Z</time>
      </trkpt>
      <trkpt lat="44.5923" lon="2.58641">
        <ele>640</ele>
        <time>2021-08-28T13:10:21Z</time>
      </trkpt>
      <trkpt lat="44.59255" lon="2.5861">
        <ele>638</ele>
        <time>2021-08-28T13:10:25Z</time>
      </trkpt>
      <trkpt lat="44.59326" lon="2.58564">
        <ele>636</ele>
        <time>2021-08-28T13:10:36Z</time>
      </trkpt>
      <trkpt lat="44.59351" lon="2.58534">
        <ele>636</ele>
        <time>2021-08-28T13:10:41Z</time>
      </trkpt>
      <trkpt lat="44.59385" lon="2.58473">
        <ele>635</ele>
        <time>2021-08-28T13:10:50Z</time>
      </trkpt>
      <trkpt lat="44.59457" lon="2.58274">
        <ele>632</ele>
        <time>2021-08-28T13:11:16Z</time>
      </trkpt>
      <trkpt lat="44.5949" lon="2.58233">
        <ele>631</ele>
        <time>2021-08-28T13:11:23Z</time>
      </trkpt>
      <trkpt lat="44.59552" lon="2.58191">
        <ele>633</ele>
        <time>2021-08-28T13:11:36Z</time>
      </trkpt>
      <trkpt lat="44.59607" lon="2.58172">
        <ele>635</ele>
        <time>2021-08-28T13:11:49Z</time>
      </trkpt>
      <trkpt lat="44.59705" lon="2.58159">
        <ele>638</ele>
        <time>2021-08-28T13:12:19Z</time>
      </trkpt>
      <trkpt lat="44.59779" lon="2.58156">
        <ele>642</ele>
        <time>2021-08-28T13:12:41Z</time>
      </trkpt>
      <trkpt lat="44.59796" lon="2.58149">
        <ele>643</ele>
        <time>2021-08-28T13:12:47Z</time>
      </trkpt>
      <trkpt lat="44.59877" lon="2.58065">
        <ele>647</ele>
        <time>2021-08-28T13:13:19Z</time>
      </trkpt>
      <trkpt lat="44.59925" lon="2.58014">
        <ele>652</ele>
        <time>2021-08-28T13:13:42Z</time>
      </trkpt>
      <trkpt lat="44.59929" lon="2.58008">
        <ele>652</ele>
        <time>2021-08-28T13:13:44Z</time>
      </trkpt>
      <trkpt lat="44.59933" lon="2.58003">
        <ele>653</ele>
        <time>2021-08-28T13:13:46Z</time>
      </trkpt>
      <trkpt lat="44.59957" lon="2.57976">
        <ele>655</ele>
        <time>2021-08-28T13:13:58Z</time>
      </trkpt>
      <trkpt lat="44.5998" lon="2.57957">
        <ele>657</ele>
        <time>2021-08-28T13:14:08Z</time>
      </trkpt>
      <trkpt lat="44.5999" lon="2.57952">
        <ele>657</ele>
        <time>2021-08-28T13:14:12Z</time>
      </trkpt>
      <trkpt lat="44.60049" lon="2.58001">
        <ele>661</ele>
        <time>2021-08-28T13:14:43Z</time>
      </trkpt>
      <trkpt lat="44.60064" lon="2.58034">
        <ele>660</ele>
        <time>2021-08-28T13:15:00Z</time>
      </trkpt>
      <trkpt lat="44.60079" lon="2.5809">
        <ele>659</ele>
        <time>2021-08-28T13:15:09Z</time>
      </trkpt>
      <trkpt lat="44.60173" lon="2.58259">
        <ele>657</ele>
        <time>2021-08-28T13:15:30Z</time>
      </trkpt>
      <trkpt lat="44.60209" lon="2.58298">
        <ele>655</ele>
        <time>2021-08-28T13:15:37Z</time>
      </trkpt>
      <trkpt lat="44.60217" lon="2.58311">
        <ele>655</ele>
        <time>2021-08-28T13:15:39Z</time>
      </trkpt>
      <trkpt lat="44.6022" lon="2.58319">
        <ele>656</ele>
        <time>2021-08-28T13:15:40Z</time>
      </trkpt>
      <trkpt lat="44.60229" lon="2.58418">
        <ele>655</ele>
        <time>2021-08-28T13:15:53Z</time>
      </trkpt>
      <trkpt lat="44.60233" lon="2.58431">
        <ele>653</ele>
        <time>2021-08-28T13:15:55Z</time>
      </trkpt>
      <trkpt lat="44.60243" lon="2.58446">
        <ele>652</ele>
        <time>2021-08-28T13:15:59Z</time>
      </trkpt>
      <trkpt lat="44.6026" lon="2.58457">
        <ele>651</ele>
        <time>2021-08-28T13:16:03Z</time>
      </trkpt>
      <trkpt lat="44.60278" lon="2.58459">
        <ele>650</ele>
        <time>2021-08-28T13:16:07Z</time>
      </trkpt>
      <trkpt lat="44.60304" lon="2.58452">
        <ele>649</ele>
        <time>2021-08-28T13:16:14Z</time>
      </trkpt>
      <trkpt lat="44.60308" lon="2.58449">
        <ele>649</ele>
        <time>2021-08-28T13:16:16Z</time>
      </trkpt>
      <trkpt lat="44.60313" lon="2.58446">
        <ele>648</ele>
        <time>2021-08-28T13:16:21Z</time>
      </trkpt>
      <trkpt lat="44.60313" lon="2.58454">
        <ele>648</ele>
        <time>2021-08-28T13:17:02Z</time>
      </trkpt>
      <trkpt lat="44.60308" lon="2.58453">
        <ele>648</ele>
        <time>2021-08-28T13:17:04Z</time>
      </trkpt>
      <trkpt lat="44.60306" lon="2.58445">
        <ele>648</ele>
        <time>2021-08-28T13:17:06Z</time>
      </trkpt>
      <trkpt lat="44.603" lon="2.58429">
        <ele>649</ele>
        <time>2021-08-28T13:17:12Z</time>
      </trkpt>
      <trkpt lat="44.60296" lon="2.58426">
        <ele>650</ele>
        <time>2021-08-28T13:17:15Z</time>
      </trkpt>
      <trkpt lat="44.60287" lon="2.58421">
        <ele>651</ele>
        <time>2021-08-28T13:17:21Z</time>
      </trkpt>
      <trkpt lat="44.60282" lon="2.58422">
        <ele>651</ele>
        <time>2021-08-28T13:17:24Z</time>
      </trkpt>
      <trkpt lat="44.60278" lon="2.58419">
        <ele>651</ele>
        <time>2021-08-28T13:17:27Z</time>
      </trkpt>
      <trkpt lat="44.60271" lon="2.58406">
        <ele>652</ele>
        <time>2021-08-28T13:17:33Z</time>
      </trkpt>
      <trkpt lat="44.60268" lon="2.58392">
        <ele>654</ele>
        <time>2021-08-28T13:17:39Z</time>
      </trkpt>
      <trkpt lat="44.60269" lon="2.58385">
        <ele>655</ele>
        <time>2021-08-28T13:17:42Z</time>
      </trkpt>
      <trkpt lat="44.60287" lon="2.58358">
        <ele>658</ele>
        <time>2021-08-28T13:17:58Z</time>
      </trkpt>
      <trkpt lat="44.60286" lon="2.58352">
        <ele>658</ele>
        <time>2021-08-28T13:18:01Z</time>
      </trkpt>
      <trkpt lat="44.60278" lon="2.58349">
        <ele>658</ele>
        <time>2021-08-28T13:18:06Z</time>
      </trkpt>
      <trkpt lat="44.60272" lon="2.58344">
        <ele>659</ele>
        <time>2021-08-28T13:18:12Z</time>
      </trkpt>
      <trkpt lat="44.6027" lon="2.58338">
        <ele>661</ele>
        <time>2021-08-28T13:18:12Z</time>
      </trkpt>
      <trkpt lat="44.60268" lon="2.58331">
        <ele>663</ele>
        <time>2021-08-28T13:18:15Z</time>
      </trkpt>
      <trkpt lat="44.60271" lon="2.58325">
        <ele>664</ele>
        <time>2021-08-28T13:18:18Z</time>
      </trkpt>
      <trkpt lat="44.60274" lon="2.5832">
        <ele>665</ele>
        <time>2021-08-28T13:18:22Z</time>
      </trkpt>
      <trkpt lat="44.60277" lon="2.58306">
        <ele>669</ele>
        <time>2021-08-28T13:18:28Z</time>
      </trkpt>
      <trkpt lat="44.60274" lon="2.58274">
        <ele>673</ele>
        <time>2021-08-28T13:18:39Z</time>
      </trkpt>
      <trkpt lat="44.60273" lon="2.58267">
        <ele>674</ele>
        <time>2021-08-28T13:18:42Z</time>
      </trkpt>
      <trkpt lat="44.60273" lon="2.58259">
        <ele>676</ele>
        <time>2021-08-28T13:18:45Z</time>
      </trkpt>
      <trkpt lat="44.60281" lon="2.5825">
        <ele>670</ele>
        <time>2021-08-28T13:18:50Z</time>
      </trkpt>
      <trkpt lat="44.60283" lon="2.58243">
        <ele>671</ele>
        <time>2021-08-28T13:18:53Z</time>
      </trkpt>
      <trkpt lat="44.60291" lon="2.58222">
        <ele>676</ele>
        <time>2021-08-28T13:19:02Z</time>
      </trkpt>
      <trkpt lat="44.60292" lon="2.58215">
        <ele>676</ele>
        <time>2021-08-28T13:19:05Z</time>
      </trkpt>
      <trkpt lat="44.60297" lon="2.58203">
        <ele>677</ele>
        <time>2021-08-28T13:19:11Z</time>
      </trkpt>
      <trkpt lat="44.603" lon="2.58197">
        <ele>676</ele>
        <time>2021-08-28T13:19:15Z</time>
      </trkpt>
      <trkpt lat="44.60307" lon="2.58185">
        <ele>675</ele>
        <time>2021-08-28T13:19:22Z</time>
      </trkpt>
      <trkpt lat="44.60311" lon="2.5818">
        <ele>674</ele>
        <time>2021-08-28T13:19:25Z</time>
      </trkpt>
      <trkpt lat="44.60316" lon="2.58178">
        <ele>673</ele>
        <time>2021-08-28T13:19:28Z</time>
      </trkpt>
      <trkpt lat="44.60315" lon="2.58169">
        <ele>673</ele>
        <time>2021-08-28T13:19:31Z</time>
      </trkpt>
      <trkpt lat="44.60319" lon="2.58165">
        <ele>669</ele>
        <time>2021-08-28T13:20:10Z</time>
      </trkpt>
      <trkpt lat="44.60323" lon="2.58161">
        <ele>668</ele>
        <time>2021-08-28T13:20:15Z</time>
      </trkpt>
      <trkpt lat="44.60335" lon="2.58111">
        <ele>663</ele>
        <time>2021-08-28T13:20:46Z</time>
      </trkpt>
      <trkpt lat="44.6036" lon="2.58041">
        <ele>661</ele>
        <time>2021-08-28T13:21:09Z</time>
      </trkpt>
      <trkpt lat="44.60372" lon="2.57904">
        <ele>661</ele>
        <time>2021-08-28T13:21:33Z</time>
      </trkpt>
      <trkpt lat="44.60377" lon="2.57889">
        <ele>660</ele>
        <time>2021-08-28T13:21:38Z</time>
      </trkpt>
      <trkpt lat="44.60386" lon="2.57882">
        <ele>661</ele>
        <time>2021-08-28T13:21:47Z</time>
      </trkpt>
      <trkpt lat="44.60386" lon="2.57889">
        <ele>662</ele>
        <time>2021-08-28T13:21:53Z</time>
      </trkpt>
      <trkpt lat="44.6038" lon="2.57887">
        <ele>662</ele>
        <time>2021-08-28T13:21:56Z</time>
      </trkpt>
      <trkpt lat="44.60376" lon="2.57882">
        <ele>663</ele>
        <time>2021-08-28T13:22:07Z</time>
      </trkpt>
      <trkpt lat="44.60373" lon="2.57889">
        <ele>663</ele>
        <time>2021-08-28T13:22:10Z</time>
      </trkpt>
      <trkpt lat="44.60395" lon="2.57889">
        <ele>667</ele>
        <time>2021-08-28T13:22:21Z</time>
      </trkpt>
      <trkpt lat="44.60392" lon="2.5789">
        <ele>666</ele>
        <time>2021-08-28T13:22:30Z</time>
      </trkpt>
      <trkpt lat="44.60389" lon="2.57886">
        <ele>666</ele>
        <time>2021-08-28T13:22:33Z</time>
      </trkpt>
      <trkpt lat="44.60388" lon="2.57877">
        <ele>665</ele>
        <time>2021-08-28T13:22:36Z</time>
      </trkpt>
      <trkpt lat="44.60391" lon="2.57872">
        <ele>665</ele>
        <time>2021-08-28T13:22:39Z</time>
      </trkpt>
    </trkseg>
  </trk>
</gpx>